GFSGL_925_thetae_000.txt.gz
Theta_e
358 358 357 357 357 359 358 359 356 352 347 344 343 337 337 337 336 336 335 332 333 332 331 333 335 336 333 330 330 329 329 329 330 328 327 327 328 330 330 330 329 328 327
357 359 358 357 356 358 359 358 352 349 343 342 341 339 337 336 336 336 335 332 332 332 333 334 336 334 334 333 332 332 330 330 330 329 328 329 328 327 328 330 329 327 326
357 358 358 356 357 357 357 352 348 343 329 333 322 330 336 337 336 337 337 335 333 332 333 335 335 335 333 333 332 330 329 329 329 329 329 328 327 326 327 327 328 325 326
356 358 358 357 356 357 353 346 344 330 326 328 326 323 334 339 337 337 336 336 333 332 334 335 336 336 334 333 332 332 332 331 329 328 329 327 326 326 326 326 326 324 323
356 357 358 358 357 352 348 344 339 321 327 324 326 328 332 339 337 336 335 334 334 334 335 336 336 337 334 331 330 329 330 329 328 327 327 326 325 326 327 326 325 325 324
357 358 358 358 354 347 345 341 334 323 328 325 328 331 334 336 333 332 333 334 335 337 337 338 336 333 334 331 329 326 326 327 327 326 326 326 327 328 327 326 326 325 326
358 358 359 357 352 346 344 343 338 334 331 332 334 335 334 336 334 332 331 332 335 336 338 336 334 331 332 333 333 330 327 327 326 327 329 328 328 326 326 326 325 325 324
357 358 358 354 350 347 344 344 340 336 334 336 337 336 335 335 337 336 333 334 336 338 337 334 330 330 331 332 332 330 329 329 329 328 327 326 325 324 322 321 322 322 322
356 356 354 352 348 347 346 344 343 339 337 339 339 338 337 337 339 336 334 334 336 336 330 329 326 325 331 329 327 328 329 328 326 324 322 320 319 318 318 319 320 321 322
355 355 352 350 349 347 346 345 342 342 339 339 339 338 337 338 337 332 331 333 334 328 328 328 329 330 329 326 324 327 326 325 325 322 321 321 319 320 319 319 320 320 320
354 353 350 349 350 348 346 344 343 342 340 341 340 339 338 334 336 334 330 332 332 331 329 331 331 327 323 321 319 323 324 322 319 319 319 317 315 317 317 317 317 315 314
354 352 349 350 349 349 346 343 341 341 341 340 339 340 337 338 336 336 332 330 329 331 333 330 328 326 318 317 315 318 317 315 317 319 317 314 315 315 314 313 313 312 310
352 350 349 349 347 346 345 342 341 340 340 339 339 339 337 337 335 331 329 327 329 331 330 327 323 318 317 315 313 313 314 316 318 317 314 314 314 313 312 311 310 308 310
352 351 348 349 347 344 343 342 342 342 340 339 339 338 335 335 334 328 326 327 327 325 323 320 319 318 317 317 316 314 316 316 315 313 313 312 311 311 310 308 306 307 315
350 349 347 345 344 345 342 339 341 336 336 336 335 333 332 334 334 332 328 327 326 325 323 322 321 321 320 319 318 317 315 314 312 312 311 310 309 307 306 305 305 311 316
346 346 345 345 345 344 339 332 332 331 328 329 332 332 332 331 330 327 325 323 321 318 317 320 320 319 319 318 317 314 312 311 310 309 308 307 306 305 304 304 306 311 315
345 344 343 342 340 339 338 335 332 325 328 327 328 328 325 325 324 322 320 316 314 313 317 318 318 317 316 314 312 310 310 309 307 306 306 305 304 304 304 304 306 309 314
343 340 339 338 338 336 335 335 334 333 330 324 321 321 321 320 318 316 315 314 314 314 317 317 316 314 312 311 310 309 308 306 305 304 304 303 303 303 303 304 305 308 312
336 335 335 334 333 332 332 332 332 332 330 328 315 311 312 313 314 314 314 317 319 317 315 314 312 311 310 310 309 307 305 303 300 302 303 303 303 303 303 304 305 306 310
332 331 331 332 333 333 333 332 331 330 330 329 325 323 315 314 317 318 316 317 316 315 313 312 311 310 310 309 306 303 301 301 302 302 302 302 302 302 303 303 304 305 310
332 332 332 332 331 330 329 328 327 327 327 326 326 324 321 321 321 320 319 317 315 314 313 312 311 309 308 305 302 300 300 301 301 301 301 301 301 302 302 302 303 304 306
331 330 328 326 326 328 328 328 328 327 326 325 324 321 320 319 320 320 319 316 315 313 312 311 309 306 304 301 299 299 300 300 301 300 300 300 300 301 301 302 302 303 304
328 327 328 329 328 328 328 327 327 326 325 325 324 323 319 320 320 319 318 316 313 312 310 308 306 304 301 297 296 298 299 300 299 299 299 300 300 301 301 301 302 302 303
328 328 327 326 325 324 324 325 325 325 324 324 323 322 321 319 319 318 315 313 312 311 310 307 305 303 299 296 296 297 297 297 297 298 299 299 300 301 301 301 301 302 302
325 325 324 324 324 323 323 322 322 322 321 321 320 319 318 318 318 316 314 314 312 311 308 306 304 302 298 296 295 295 294 292 292 294 296 299 300 300 301 301 300 301 302
320 320 319 319 319 319 318 318 318 318 317 316 316 316 315 316 316 316 315 313 312 311 309 306 304 301 298 296 296 295 294 293 292 293 294 298 299 300 298 300 300 300 301

GFSGL_925_thetae_003.txt.gz
Theta_e
362 361 361 361 361 361 359 356 355 351 352 346 347 344 340 340 340 339 337 337 337 337 335 332 333 335 334 332 330 331 329 329 330 329 329 329 330 330 330 331 331 330 329
362 363 362 361 360 360 359 358 357 354 352 347 345 344 338 339 338 339 338 336 335 335 334 334 335 335 337 337 334 333 333 332 332 334 331 331 330 330 330 329 329 328 327
360 362 362 360 361 360 360 359 359 357 352 346 344 343 337 337 338 338 338 338 336 334 334 334 335 336 336 335 335 334 332 332 332 330 330 329 328 328 327 328 329 328 327
356 357 361 362 361 360 360 359 358 355 350 343 341 339 337 338 339 339 338 338 337 336 334 335 336 337 337 336 336 336 335 335 333 330 329 329 329 328 327 327 328 326 327
356 357 361 363 360 359 360 360 356 352 348 340 338 336 336 338 339 340 338 337 338 337 334 335 337 337 337 336 335 333 332 332 332 331 330 329 329 328 328 328 328 327 327
360 360 362 365 362 360 360 359 353 350 345 338 335 334 336 335 334 336 337 336 336 336 336 337 337 339 335 332 330 332 331 329 329 329 330 329 329 329 329 329 328 326 325
361 363 365 366 363 360 359 355 351 347 344 338 335 336 336 338 334 335 333 335 334 335 335 337 339 336 334 334 330 328 327 330 329 326 330 331 330 330 327 327 326 325 324
364 364 365 366 362 357 353 351 349 349 346 341 337 335 336 338 335 333 331 332 332 333 335 337 338 337 335 329 329 328 331 333 331 330 330 331 328 326 325 323 322 322 321
363 365 365 365 360 355 352 350 350 350 349 342 338 337 339 339 336 333 333 334 334 335 336 337 338 334 329 327 327 329 331 331 331 330 328 325 322 320 319 319 320 319 319
362 363 364 362 357 354 350 349 350 351 349 343 340 340 342 342 340 336 335 335 334 333 335 338 333 328 328 329 330 330 331 330 328 327 327 323 322 322 319 319 320 321 319
358 360 361 358 353 351 350 350 349 349 345 341 340 342 343 342 340 337 336 334 332 333 335 334 330 329 329 327 326 326 328 327 327 322 321 321 321 319 317 317 318 316 315
358 358 356 353 352 352 350 349 347 345 345 344 343 344 343 342 338 337 334 334 333 334 333 332 333 333 327 325 323 320 319 319 319 319 320 321 320 316 315 315 313 311 312
359 356 353 352 352 353 351 350 347 346 344 344 344 342 341 340 339 337 336 336 331 331 331 330 329 326 323 321 320 316 314 316 317 320 320 318 314 314 313 312 311 308 306
356 353 351 352 351 350 350 347 344 342 343 343 343 343 342 340 338 336 333 331 329 328 326 326 323 321 320 320 318 318 316 317 319 317 314 313 312 311 311 309 307 306 306
353 352 354 351 350 349 344 343 344 343 341 342 341 340 340 337 337 335 331 330 330 329 328 327 324 324 323 322 321 319 319 318 316 314 313 312 310 309 308 306 305 306 308
353 353 351 349 350 346 340 333 334 333 332 333 334 334 334 333 333 333 332 329 326 325 325 323 322 322 321 320 320 319 317 315 314 312 310 309 308 307 306 305 306 307 308
351 350 349 347 346 345 343 341 338 328 327 327 328 330 330 330 330 330 328 326 324 321 319 320 321 321 320 319 317 315 313 312 311 308 307 307 306 305 305 305 306 306 309
348 346 344 345 342 341 340 338 335 334 332 327 323 324 324 325 325 324 323 319 316 315 318 320 320 318 317 315 313 312 311 309 308 306 305 305 305 305 304 305 305 306 307
344 341 341 339 338 337 336 334 334 334 332 329 319 317 317 319 317 317 317 319 321 322 320 319 317 316 314 313 312 311 309 307 304 302 304 305 304 304 304 304 305 305 306
339 338 337 336 335 334 333 332 332 331 330 330 328 325 316 314 316 317 317 319 321 320 319 318 316 315 314 313 311 309 306 303 303 304 304 304 303 303 304 304 304 305 306
334 334 334 335 333 332 331 330 329 328 327 326 328 326 321 320 323 323 322 321 320 319 318 317 316 315 313 311 309 305 303 302 303 303 303 303 303 303 303 303 304 304 305
334 333 333 332 330 328 328 328 327 327 326 326 324 323 322 323 323 323 322 321 320 318 318 316 315 313 311 308 305 303 301 302 303 303 302 302 302 303 303 303 304 304 304
332 331 330 328 328 328 328 328 327 326 326 326 326 326 324 324 323 322 321 320 318 317 316 314 312 311 308 304 301 300 300 302 302 301 301 302 302 303 302 304 303 303 304
330 329 329 329 329 328 326 325 325 325 325 325 324 324 324 322 321 320 319 319 317 316 314 313 310 308 306 303 299 299 299 300 300 299 301 301 302 303 303 303 303 303 303
330 328 328 327 326 325 324 323 324 324 323 322 323 322 322 321 319 318 318 317 315 315 313 312 309 307 305 302 299 298 297 296 294 293 296 300 302 302 303 302 302 302 303
327 325 325 324 323 322 322 322 321 321 321 320 319 318 319 318 317 317 317 315 314 313 312 311 309 307 305 301 299 297 296 295 294 294 293 297 301 302 301 301 302 302 302

GFSGL_925_thetae_006.txt.gz
Theta_e
369 367 367 366 365 360 363 360 356 352 350 347 344 349 348 347 342 342 338 337 336 336 334 333 333 335 334 334 335 333 331 329 335 332 329 330 329 329 328 329 329 329 331
367 367 367 367 366 365 361 363 357 359 353 347 348 349 349 345 343 342 338 338 340 338 339 337 334 335 335 334 334 335 333 333 334 335 332 331 331 331 328 331 330 330 329
366 366 366 366 366 366 365 361 361 358 355 354 349 351 347 343 343 340 339 337 338 335 335 335 334 335 336 336 337 335 334 335 334 333 333 332 330 327 326 327 327 328 329
364 364 365 364 365 364 364 363 361 360 358 357 353 351 348 342 341 341 341 340 338 336 337 335 335 337 336 336 334 334 335 335 333 332 332 332 331 330 330 330 329 328 329
361 364 365 365 364 364 363 363 362 362 361 359 354 350 347 341 342 342 341 340 339 339 339 336 334 336 337 336 336 335 335 333 331 330 329 330 330 330 329 329 329 329 328
356 361 363 364 366 364 363 364 363 364 362 359 351 347 344 340 339 338 341 341 339 339 339 337 335 338 336 333 333 332 330 331 331 330 330 330 329 330 329 328 330 329 328
357 359 360 364 367 365 364 363 364 363 359 355 349 344 342 339 339 338 341 340 337 338 339 336 335 335 336 335 334 333 329 328 327 326 328 329 330 329 328 328 328 327 325
362 361 362 365 368 366 364 364 364 361 357 353 348 341 338 339 336 336 334 338 335 337 337 334 334 334 337 337 335 332 328 329 330 329 330 330 329 328 327 325 320 320 321
361 366 365 370 369 367 365 363 361 358 355 352 348 340 339 339 338 337 334 334 333 334 332 331 334 336 338 332 332 329 329 329 329 331 329 328 329 328 324 321 320 320 321
365 367 369 371 368 364 361 357 355 353 352 352 349 342 340 340 340 338 335 333 333 334 332 333 334 334 335 332 329 330 333 331 331 330 328 327 326 325 321 322 321 321 321
367 368 371 369 365 359 355 352 350 352 354 351 345 342 340 337 342 341 338 334 336 336 334 333 334 335 332 329 329 328 328 328 326 325 324 321 321 322 323 322 321 320 317
367 368 369 363 358 354 352 351 352 350 348 345 342 341 343 342 342 341 339 337 336 336 334 335 334 333 332 330 326 323 322 320 319 320 321 320 322 320 315 314 313 312 312
365 366 363 357 354 352 353 350 348 348 347 346 345 346 343 342 342 340 339 336 334 334 333 335 332 329 329 326 323 320 320 319 318 319 320 321 315 314 313 312 312 309 308
364 359 355 354 354 354 353 350 349 348 347 346 346 343 342 341 341 339 338 336 335 333 330 330 328 326 325 323 322 320 319 318 319 320 317 316 315 312 311 310 309 307 306
357 354 353 352 352 353 348 347 345 343 343 345 342 341 343 342 341 338 337 334 332 330 330 328 325 324 324 323 321 321 321 320 319 319 315 314 311 310 309 308 306 305 308
354 352 353 351 350 342 338 335 340 340 338 337 336 340 338 335 337 337 333 331 331 331 328 330 327 326 326 324 323 322 320 319 318 314 312 310 309 309 308 306 306 307 308
354 354 351 350 349 345 341 337 330 327 329 330 330 331 332 331 331 333 333 329 327 326 326 325 323 323 321 320 318 317 316 314 313 310 309 309 307 307 306 306 306 307 308
352 350 350 349 349 347 346 344 341 332 329 325 327 328 328 328 328 328 328 327 324 322 321 320 321 321 319 318 316 315 313 312 309 307 305 304 306 306 305 306 306 306 306
351 349 348 348 347 346 344 342 341 337 335 324 319 322 324 324 324 323 322 323 322 322 321 321 320 318 317 315 314 313 312 310 307 304 304 306 306 305 305 305 305 305 306
345 344 344 337 340 340 338 336 335 335 330 325 324 320 318 320 319 319 319 319 321 322 322 320 319 317 316 315 314 313 310 307 305 305 306 304 304 304 304 304 305 305 306
340 338 337 336 336 335 334 333 332 331 333 332 329 324 321 322 323 323 323 322 322 322 321 319 318 317 316 315 313 310 307 304 303 304 304 304 303 303 304 304 304 305 305
335 335 335 335 333 333 332 330 329 328 328 330 329 326 324 324 325 325 323 322 322 320 320 318 318 317 315 312 308 306 305 302 303 303 303 303 303 303 304 303 305 305 305
333 333 333 331 330 329 329 330 329 327 327 328 325 322 321 325 325 323 323 323 320 319 318 317 316 315 313 309 306 303 301 301 303 302 302 302 302 303 303 304 304 304 304
331 331 330 330 329 329 328 329 327 326 326 327 327 327 326 324 323 322 321 321 319 318 316 315 314 313 310 306 304 301 300 301 301 300 300 300 301 303 303 304 304 303 303
330 330 330 329 328 326 325 325 325 325 324 324 324 324 324 324 323 321 320 319 318 317 316 314 313 311 309 307 304 300 298 297 297 296 294 298 300 302 303 302 302 302 303
326 327 327 326 326 326 325 324 323 323 323 323 322 321 323 322 321 320 319 318 318 317 315 314 312 311 309 306 303 301 298 297 296 295 295 295 299 302 303 301 302 302 303

GFSGL_925_thetae_009.txt.gz
Theta_e
366 365 364 362 360 357 357 353 355 355 350 350 349 349 350 348 343 341 340 337 338 336 335 334 334 334 335 333 333 334 332 334 332 332 331 330 330 330 327 329 329 329 329
366 366 365 364 363 361 357 358 356 355 353 351 349 348 349 349 345 341 341 339 336 339 335 335 334 332 335 333 333 334 336 335 334 333 332 332 332 332 330 330 328 330 328
367 366 366 365 365 364 360 359 360 354 354 352 348 347 348 347 347 343 341 340 338 339 336 336 335 335 332 334 335 336 336 334 334 333 332 331 330 330 331 330 328 329 328
368 367 366 365 365 365 364 359 362 362 358 354 351 346 346 347 346 344 343 342 336 338 338 339 338 334 333 336 336 335 334 333 333 332 332 330 331 331 329 331 329 328 327
366 366 365 365 365 365 365 364 360 362 360 359 353 350 349 348 347 344 342 341 336 338 338 338 337 336 336 336 335 335 334 328 332 332 331 330 329 329 326 329 329 328 327
364 365 364 364 364 365 365 364 364 360 361 359 357 354 351 350 346 343 342 341 337 340 338 337 337 334 335 336 337 334 333 334 334 332 330 329 329 328 327 330 328 328 326
361 363 363 362 364 363 364 363 364 363 362 361 359 356 353 350 345 342 342 340 340 339 338 338 339 335 335 336 336 333 332 331 330 330 329 327 327 326 328 329 327 327 327
357 361 362 363 362 364 364 363 364 364 363 362 361 357 353 349 343 340 339 339 340 340 340 338 339 337 335 334 333 334 334 332 330 328 330 329 329 328 328 328 327 325 320
354 356 360 361 364 365 364 364 364 364 362 360 358 354 347 344 342 339 335 337 339 340 338 337 337 335 332 333 332 331 331 331 327 329 330 330 328 327 328 328 325 321 319
352 355 358 360 362 365 364 364 364 363 359 356 353 350 346 341 338 336 335 335 335 335 335 335 334 331 333 332 331 332 330 328 330 329 329 327 326 324 324 324 323 320 320
351 359 361 363 367 365 364 364 360 357 356 353 352 350 343 339 337 338 337 337 336 333 332 333 332 330 332 333 332 329 328 329 326 323 321 320 320 320 321 321 319 316 316
362 368 370 367 363 364 362 359 357 353 352 353 350 344 341 339 340 340 339 339 336 335 336 336 334 335 333 332 330 328 325 323 320 319 318 318 319 316 314 313 312 312 310
370 366 361 361 361 358 354 351 350 351 347 344 343 343 343 342 342 341 341 340 335 336 336 334 333 332 330 328 328 326 322 319 318 318 318 319 317 315 312 310 310 309 307
364 359 356 355 353 352 351 351 350 348 347 345 344 343 343 343 342 341 340 339 336 335 334 333 332 329 327 326 324 323 320 319 318 318 319 319 315 312 310 309 307 306 305
357 355 353 353 353 351 348 348 348 347 347 346 346 344 341 342 342 340 339 338 336 335 333 328 325 324 323 323 322 322 321 321 320 319 319 315 311 309 309 307 306 305 306
353 352 353 350 344 342 340 338 341 342 343 344 342 340 340 341 340 339 337 333 330 329 329 327 326 326 326 326 325 325 322 322 321 318 312 309 308 308 306 306 306 305 306
352 351 351 345 340 337 338 338 330 333 336 336 337 338 337 336 336 337 336 331 331 331 329 330 328 326 324 321 319 320 318 317 314 311 309 307 305 305 306 306 305 305 305
353 350 349 346 343 340 339 337 336 330 326 327 329 330 330 330 334 336 333 329 326 326 326 325 322 322 320 318 316 315 313 311 310 308 307 304 304 305 305 304 304 305 305
351 349 349 348 345 343 341 339 336 332 327 324 324 327 327 328 328 327 327 327 325 323 321 319 320 318 316 315 314 313 312 311 309 307 304 305 306 304 304 303 303 304 304
350 349 349 349 347 345 343 343 338 334 327 324 323 324 324 323 323 323 324 323 322 322 322 321 320 316 316 315 315 314 312 308 306 304 304 305 304 303 303 303 304 303 304
343 341 341 344 342 343 341 341 338 335 328 325 324 324 324 324 322 321 321 320 319 322 321 319 317 317 316 316 315 313 310 306 303 303 304 303 303 303 303 304 303 304 305
341 337 337 336 335 334 333 333 332 331 328 327 326 324 323 322 322 322 322 322 322 322 320 319 318 317 315 315 313 310 305 304 302 303 303 302 302 302 303 303 304 304 304
335 335 334 333 332 330 329 329 328 331 331 331 328 324 321 323 325 325 324 323 322 322 319 318 317 316 314 310 308 306 304 301 302 302 302 302 302 302 303 303 303 304 302
332 331 330 330 329 329 329 329 328 327 327 325 325 324 323 324 324 323 323 323 322 320 319 317 316 315 312 306 304 302 300 300 301 301 300 298 296 301 302 303 303 302 302
330 330 329 329 328 326 325 326 326 325 326 326 325 324 323 324 323 322 321 320 320 319 317 315 314 314 312 310 308 305 300 299 298 298 297 296 295 298 302 302 301 302 302
327 327 326 327 327 326 325 323 322 324 323 324 326 326 325 324 323 322 321 319 319 318 318 316 314 312 310 309 307 305 302 300 299 296 295 295 295 300 302 302 302 302 302

GFSGL_925_thetae_012.txt.gz
Theta_e
359 358 358 357 355 358 357 355 353 354 352 352 353 351 349 347 347 341 337 337 335 337 337 337 336 333 333 334 333 333 334 333 329 330 332 330 331 331 330 330 328 328 329
359 359 359 359 358 356 356 355 355 354 355 353 354 352 349 348 348 344 341 338 336 335 336 338 337 333 334 334 335 333 335 335 332 331 332 332 331 329 331 331 330 330 329
360 360 361 360 360 359 357 356 354 354 353 353 349 350 350 349 349 346 342 339 338 336 337 337 334 334 335 333 334 333 334 335 334 333 332 332 330 330 329 329 330 329 330
361 361 361 362 361 360 358 356 356 355 355 355 352 350 349 348 349 347 344 341 339 339 336 336 336 335 334 334 332 335 335 335 334 333 332 331 331 330 329 329 329 329 328
362 363 362 362 362 362 360 358 357 356 356 356 354 352 350 349 348 348 346 343 340 340 338 337 338 337 338 337 333 335 335 334 334 333 332 331 331 329 329 328 327 328 328
362 363 363 363 363 363 363 361 359 358 359 359 355 352 350 349 347 347 346 345 342 341 339 335 337 337 337 336 333 335 334 335 333 332 331 330 329 328 327 326 327 328 325
362 363 363 363 363 363 363 363 362 359 359 360 358 355 352 350 348 347 346 346 343 342 339 333 336 337 337 336 334 333 333 333 333 332 332 330 329 328 328 328 328 328 327
362 363 364 363 363 362 363 363 362 362 359 359 359 359 357 353 351 349 347 344 343 341 338 334 337 338 338 335 334 333 333 331 331 330 330 328 327 328 330 329 328 328 327
359 361 362 363 362 362 362 362 361 362 360 360 360 358 356 337 351 349 343 342 342 341 338 337 338 339 337 333 334 333 330 329 330 330 328 328 327 328 327 326 327 325 321
356 358 361 362 361 361 361 361 361 362 361 361 361 358 341 343 349 348 345 340 340 340 339 340 340 338 336 334 332 330 330 329 330 328 329 328 326 325 323 322 323 322 320
355 356 358 361 361 360 362 361 362 361 361 360 356 356 349 352 349 347 342 337 335 337 338 337 335 335 334 332 332 331 331 330 328 325 321 319 319 319 319 316 313 313 315
353 354 354 358 359 361 362 361 361 360 357 352 351 350 349 350 347 342 339 337 334 335 336 335 332 334 334 332 331 330 329 326 323 318 317 317 319 316 315 312 311 310 309
350 353 355 358 360 361 360 358 355 354 351 350 348 346 345 344 341 338 338 337 336 337 336 335 335 334 332 331 329 328 326 323 319 318 317 319 318 315 311 311 310 308 307
359 362 361 359 357 357 355 354 350 349 347 345 344 342 342 340 339 339 339 338 337 336 335 335 333 332 330 328 327 325 323 320 318 318 317 319 318 313 311 309 307 306 305
360 359 356 353 353 348 348 347 347 347 349 346 344 344 341 342 342 341 341 340 340 338 334 333 331 328 326 325 323 322 321 320 319 319 319 319 314 310 308 307 306 306 305
354 354 351 340 335 336 338 341 346 347 346 345 344 343 341 341 341 341 340 339 338 335 332 330 327 325 324 324 323 323 323 322 321 320 318 312 308 308 306 305 306 304 304
354 350 342 339 339 338 340 342 326 337 345 345 345 341 340 340 339 339 338 336 332 330 329 327 326 326 326 325 324 324 322 321 321 316 310 307 306 305 304 305 304 303 303
348 343 342 339 336 337 336 332 331 329 330 333 339 340 339 340 339 337 335 333 330 329 329 329 329 328 322 320 319 317 315 313 311 309 308 305 304 304 305 304 303 303 303
347 344 342 339 338 337 336 333 330 330 327 329 330 331 332 333 336 336 334 330 328 329 328 326 325 321 321 317 315 313 312 311 309 308 304 304 305 304 303 303 303 303 303
348 346 344 341 339 337 335 333 331 329 327 325 326 327 328 331 331 332 331 328 327 325 323 322 319 319 316 314 314 313 313 311 308 305 303 304 304 303 302 303 303 302 303
347 348 347 344 342 340 340 337 337 337 331 325 325 327 327 327 327 327 326 325 323 322 321 320 320 317 315 315 315 314 312 309 305 303 303 304 303 302 302 303 302 303 303
338 336 335 340 341 341 340 339 336 332 328 325 323 323 324 325 325 324 323 323 322 320 321 319 318 317 317 316 315 313 311 307 304 302 303 302 302 302 302 302 303 303 302
332 335 335 334 336 336 335 332 335 333 328 326 324 323 323 323 323 322 322 321 321 321 321 319 317 317 316 314 312 310 308 305 302 302 303 302 302 301 301 302 302 302 301
333 331 330 329 329 328 328 329 330 330 329 327 325 323 323 322 322 322 323 323 322 321 319 318 318 317 315 311 310 307 304 303 301 301 301 301 299 298 297 301 302 301 301
331 330 330 329 328 327 327 328 328 329 329 328 326 324 322 323 324 324 324 324 322 320 319 317 316 315 312 308 308 309 305 300 300 300 299 298 297 296 296 302 302 301 301
329 329 328 328 326 324 324 323 325 326 326 326 326 325 323 323 324 323 322 322 321 319 318 316 314 312 312 311 311 309 306 302 299 299 298 295 295 295 299 302 302 301 300

GFSGL_925_thetae_015.txt.gz
Theta_e
351 353 353 354 354 354 354 353 351 351 352 351 351 354 350 351 350 347 340 336 336 334 336 334 334 333 332 332 334 333 333 331 329 330 330 330 329 330 330 330 330 330 329
352 353 353 353 354 354 354 353 351 353 353 354 353 353 351 351 352 349 343 340 336 335 333 336 335 336 335 333 333 334 333 333 332 330 331 331 331 331 330 329 328 329 330
353 354 354 354 353 354 354 354 353 353 354 353 353 352 351 352 351 349 345 344 339 336 333 333 335 336 336 333 334 335 333 334 334 332 331 331 332 331 330 329 328 327 327
354 355 355 355 355 354 354 354 354 354 354 354 353 353 352 352 351 349 346 346 342 339 335 334 334 335 334 333 334 332 332 333 334 334 333 332 331 331 330 328 327 325 327
354 356 356 356 356 356 355 354 354 354 354 353 354 353 353 352 351 349 347 347 345 342 338 337 335 335 335 335 334 335 334 335 335 334 333 332 330 329 328 327 327 326 325
355 356 356 357 358 358 357 356 355 354 354 354 353 352 351 350 349 348 348 346 346 342 341 339 338 336 336 337 336 337 335 334 334 333 332 331 330 329 328 327 327 326 325
356 357 357 357 359 359 358 358 356 355 355 354 353 352 352 352 352 350 349 347 345 343 343 340 338 338 335 337 337 337 335 333 332 332 332 331 330 329 328 328 328 327 327
357 358 359 359 359 359 360 359 358 356 356 355 354 354 353 353 353 352 349 341 340 343 344 343 341 339 334 335 337 336 334 334 332 331 330 329 330 328 328 329 328 327 327
357 358 359 360 360 360 360 360 360 359 356 356 355 356 356 354 355 354 350 337 341 343 344 343 341 339 334 337 337 334 333 333 331 329 329 330 328 328 327 326 325 324 322
358 358 359 360 360 360 360 360 360 360 357 356 357 357 357 356 356 353 342 345 342 344 343 341 340 338 338 339 337 334 333 330 329 330 329 327 325 322 320 320 320 321 320
356 358 359 360 361 360 360 360 361 360 359 358 357 356 357 356 354 350 341 345 345 343 341 340 339 339 339 336 335 333 332 330 330 328 326 319 317 317 318 314 313 312 314
353 354 358 359 361 360 360 360 360 360 359 358 356 352 352 354 352 345 349 346 344 340 338 337 337 337 334 333 333 331 331 330 328 324 318 317 318 317 316 314 311 311 309
351 352 354 357 359 359 359 360 360 360 358 354 349 345 345 348 349 349 346 343 340 337 335 335 334 333 334 333 331 330 329 327 324 318 317 317 318 316 314 312 311 309 307
349 351 353 355 358 359 359 360 360 358 356 352 348 345 341 344 348 343 342 340 337 335 335 335 334 334 332 330 329 327 326 324 320 318 317 317 318 318 314 310 308 306 305
347 349 351 354 358 359 358 359 358 354 352 348 345 344 342 341 343 341 339 337 336 335 336 334 332 331 330 327 326 325 323 321 319 318 318 318 318 316 311 308 306 305 304
353 356 357 357 341 336 337 337 346 346 347 346 339 337 344 344 341 339 339 338 337 336 334 332 331 331 329 325 323 322 321 321 320 319 319 319 317 310 308 306 305 304 303
347 357 349 340 339 341 345 341 334 343 345 344 345 344 344 342 341 340 340 339 339 338 335 332 331 329 325 324 323 323 323 323 322 320 320 315 309 306 304 304 303 303 302
329 335 342 342 343 344 342 338 333 335 336 341 339 343 343 341 341 340 339 337 332 333 333 330 328 326 325 325 323 322 322 320 318 318 312 307 305 303 304 303 303 302 302
334 335 336 339 338 337 336 335 334 335 332 329 335 340 340 340 340 339 337 334 329 329 327 326 326 327 327 325 321 319 317 315 312 310 309 306 305 305 303 303 302 302 302
335 337 337 335 333 332 331 330 330 329 330 332 332 333 334 337 334 334 333 330 328 328 329 328 327 326 323 320 318 315 313 312 311 310 306 303 303 304 303 302 302 302 302
340 339 337 336 334 333 332 332 330 330 327 328 331 333 334 335 332 332 331 329 329 328 327 326 323 320 319 318 315 314 313 312 309 307 304 302 303 303 302 302 302 302 302
340 340 339 338 337 336 333 332 328 327 326 326 325 326 330 331 332 331 332 330 328 326 323 321 320 320 319 316 315 314 313 312 308 305 303 302 303 302 301 301 302 302 302
333 332 335 339 339 338 336 335 333 331 328 326 324 323 324 325 327 328 328 325 324 322 320 320 319 319 317 315 316 315 314 312 310 307 304 302 302 302 301 300 301 302 301
333 333 333 333 333 335 335 335 336 333 330 326 325 324 324 324 324 325 324 323 322 320 319 321 320 317 316 316 315 314 311 308 305 303 302 302 302 299 297 296 299 301 300
330 330 329 328 328 328 329 329 329 329 327 326 325 322 322 324 323 323 322 322 321 321 321 321 319 318 317 315 313 311 306 307 306 301 301 301 300 298 296 295 301 301 301
328 329 328 327 326 326 325 326 326 326 326 327 324 322 323 323 323 322 322 322 322 323 321 320 318 317 316 313 310 309 307 307 304 300 299 298 297 295 294 298 301 301 300

GFSGL_925_thetae_018.txt.gz
Theta_e
351 352 352 352 352 351 351 352 351 351 351 351 349 351 352 352 352 351 350 346 340 336 335 333 334 333 334 334 334 333 333 331 330 329 329 330 329 328 330 330 330 329 329
349 352 352 352 352 352 352 352 351 352 352 351 349 351 351 351 352 351 350 347 342 337 334 334 334 333 333 332 331 332 333 332 331 331 331 330 331 330 331 331 329 328 327
349 350 352 352 352 352 352 351 352 352 351 351 350 350 351 350 352 351 350 349 346 340 337 334 333 335 334 335 333 333 333 333 333 332 332 331 330 331 330 330 329 326 325
349 349 350 352 352 352 352 352 351 351 351 351 351 351 352 353 352 351 350 350 348 344 341 337 333 334 335 335 334 332 334 333 333 333 332 332 332 332 330 329 328 325 325
350 350 350 351 351 351 352 352 352 351 351 352 351 352 352 352 352 351 350 351 350 347 343 341 337 334 333 335 334 333 333 332 332 332 333 332 332 331 329 329 327 326 325
350 350 351 352 352 352 352 352 352 352 352 352 351 351 352 351 351 351 351 350 349 346 343 342 340 337 335 335 336 335 334 334 334 333 334 333 332 330 330 328 327 326 328
350 351 352 353 353 354 353 352 352 352 352 352 351 351 351 352 352 351 352 352 350 345 343 344 344 341 338 337 336 337 337 337 335 333 333 332 331 330 329 328 327 327 327
351 351 353 354 354 354 355 354 353 352 352 352 351 351 351 351 351 351 351 351 348 346 345 346 345 344 342 338 337 336 337 336 334 334 332 331 330 329 329 328 328 327 326
352 352 353 354 355 355 356 356 355 354 353 353 352 351 351 351 352 351 350 348 346 345 346 342 341 343 343 341 337 336 336 334 333 332 331 329 329 328 327 327 326 324 323
353 354 354 355 355 356 357 356 356 356 354 354 352 352 353 352 352 352 351 347 344 344 338 338 342 344 343 340 336 337 335 333 332 330 329 329 327 324 320 319 319 321 320
352 354 355 356 357 356 357 357 358 357 356 355 354 352 353 353 351 352 350 346 345 342 342 345 343 342 340 338 338 338 336 334 331 329 329 325 317 316 317 316 314 313 313
352 354 355 356 357 357 358 358 358 359 359 357 355 354 353 352 352 353 352 348 349 338 345 345 342 339 338 338 336 335 334 332 331 328 323 317 317 317 316 316 313 311 311
349 352 356 356 357 358 359 359 359 359 359 357 355 355 352 347 353 353 351 348 341 346 346 341 338 338 336 334 333 332 332 331 329 324 318 317 317 317 316 313 311 310 308
347 347 351 355 357 359 359 359 359 360 359 357 357 354 348 343 348 348 346 345 345 343 337 335 335 333 332 332 332 331 330 329 326 323 318 317 317 317 317 315 311 307 306
353 349 346 351 355 358 359 359 359 359 359 358 356 349 344 341 338 340 343 342 339 335 334 334 333 333 331 330 329 328 327 324 323 319 318 317 317 317 316 312 308 305 305
337 349 348 348 352 357 346 346 358 359 359 357 351 345 343 340 339 336 339 342 338 334 334 330 330 330 331 328 326 324 323 323 320 319 318 318 318 318 314 308 305 304 303
334 345 351 350 350 342 345 343 334 339 351 345 344 342 338 334 334 332 341 341 337 334 334 331 331 331 330 327 325 323 322 321 321 320 319 318 319 313 308 305 304 303 302
336 337 346 347 344 346 344 343 340 339 337 334 338 335 333 333 335 341 339 337 331 333 333 332 332 332 330 327 323 322 322 322 322 321 320 319 314 307 304 303 303 302 301
336 337 339 340 336 345 344 342 339 337 335 332 329 335 338 338 341 338 337 333 328 329 334 334 333 332 329 324 323 323 322 321 319 317 316 311 307 304 304 303 302 301 302
333 333 335 336 332 329 333 334 335 332 329 326 328 321 331 334 326 327 334 335 332 331 334 331 329 327 325 325 324 321 320 317 314 313 311 309 305 304 304 302 301 302 302
338 335 335 335 334 330 329 331 332 330 330 331 330 333 338 335 332 332 332 332 333 331 327 326 326 326 326 326 323 319 317 315 313 312 310 308 304 302 303 302 301 301 302
338 337 335 334 332 332 331 329 329 330 330 328 324 327 333 334 331 330 330 333 329 326 326 327 327 326 324 320 319 317 315 313 313 311 308 306 303 302 302 301 301 301 301
336 336 335 334 333 332 331 329 329 328 328 326 326 327 330 331 332 332 331 332 329 328 327 326 322 320 320 319 318 316 314 314 314 312 308 305 302 302 301 301 300 301 302
332 332 334 334 334 333 333 331 331 330 329 328 328 330 331 331 329 330 331 329 329 326 323 321 320 320 319 318 316 315 315 315 312 310 307 305 302 301 301 299 297 299 301
329 329 329 329 330 330 329 331 331 329 328 327 325 323 323 323 325 329 329 327 324 322 321 319 320 320 318 317 315 315 314 313 308 306 304 302 302 301 299 297 296 298 301
323 324 324 325 323 323 324 324 324 325 325 324 323 322 321 322 321 322 324 323 322 321 320 320 321 320 318 317 316 314 312 308 306 304 301 301 301 299 297 296 295 301 301

GFSGL_925_thetae_024.txt.gz
Theta_e
358 359 358 357 357 358 358 358 358 357 357 357 357 357 355 357 357 358 357 354 355 353 348 345 344 339 336 337 337 336 335 334 335 333 334 335 337 338 335 334 335 335 334
356 359 360 359 358 357 359 358 358 358 357 358 358 358 356 356 357 358 358 354 355 354 351 348 346 342 341 338 338 337 336 336 335 336 335 335 338 338 339 339 337 334 334
357 358 358 358 359 359 360 359 359 359 359 357 358 359 358 356 356 357 358 357 355 355 353 351 348 343 342 337 338 336 337 337 338 335 336 337 336 337 338 339 338 337 335
354 356 358 360 360 360 360 359 359 360 360 359 359 360 358 357 356 356 357 357 356 356 355 353 350 346 342 341 339 339 337 336 336 337 335 334 336 336 336 334 336 338 335
354 355 358 360 361 360 360 361 360 360 360 360 359 360 359 358 356 356 356 356 356 356 356 355 352 349 345 343 340 339 338 339 335 337 336 335 335 335 336 334 334 333 333
355 356 357 360 361 361 361 361 361 361 361 361 360 360 360 358 355 353 355 356 356 357 356 356 354 349 345 342 339 337 339 340 338 336 336 336 336 337 336 335 334 333 333
355 358 358 360 361 362 362 362 362 362 361 361 361 361 361 360 355 353 352 355 357 356 356 356 355 352 347 345 339 335 335 337 337 339 340 338 338 339 338 337 335 335 334
357 358 359 360 361 362 362 362 362 362 361 362 362 361 361 361 358 354 352 352 356 356 355 356 356 354 351 347 346 340 338 337 337 336 338 340 340 339 339 337 336 334 335
358 359 359 359 359 360 362 363 363 362 362 362 362 362 361 361 359 357 353 352 353 356 356 357 356 356 354 349 348 347 344 341 339 337 337 339 340 338 337 335 334 333 333
357 357 358 359 360 361 362 363 362 362 362 361 361 361 362 361 360 357 355 353 352 353 355 356 355 355 354 350 347 349 348 345 342 341 339 337 337 333 330 331 332 332 329
355 355 357 359 360 361 361 362 362 362 360 362 362 362 362 360 361 359 356 354 353 353 351 354 356 352 352 350 347 347 346 345 342 340 339 338 335 333 330 330 329 326 323
354 355 358 360 359 359 362 363 362 362 362 362 362 362 361 362 360 360 357 354 354 353 353 352 353 352 348 347 344 344 343 343 342 338 338 336 334 332 329 327 325 323 321
355 356 358 360 360 359 362 363 363 363 361 362 361 362 361 361 361 358 357 356 352 355 353 353 352 350 348 344 339 342 343 340 339 338 338 336 334 330 327 324 323 322 321
359 360 360 361 362 361 360 361 361 361 363 361 361 362 361 360 360 359 354 354 353 353 355 352 348 345 341 339 340 338 340 339 339 338 337 335 331 326 324 322 320 320 319
359 359 360 360 361 361 362 360 360 361 360 362 361 361 362 361 360 358 349 344 345 346 348 344 339 335 334 336 336 337 337 337 337 336 335 332 328 325 323 322 321 320 319
347 346 347 349 351 356 357 360 359 359 359 361 361 361 360 360 359 358 349 350 347 339 340 335 336 337 337 335 335 335 336 336 336 334 332 329 326 324 323 322 321 319 318
348 348 348 348 350 350 350 352 354 357 360 360 360 360 360 359 359 358 349 350 344 342 341 339 338 337 336 334 334 334 335 335 334 332 330 328 325 324 323 322 320 318 316
344 343 344 344 346 348 348 348 347 349 351 352 352 352 353 356 359 354 348 345 333 341 340 337 337 335 336 336 335 335 334 333 333 330 329 326 324 324 323 321 319 317 315
343 343 341 338 337 336 339 339 338 338 338 339 330 333 333 327 346 350 345 338 335 337 337 336 336 336 336 335 335 335 334 333 331 330 326 325 325 323 321 319 317 314 311
341 336 338 341 341 341 340 340 336 337 337 335 328 323 322 324 322 321 331 338 335 336 336 337 336 335 336 336 336 334 333 331 329 327 325 325 323 321 319 317 315 313 309
339 338 336 337 337 338 339 338 337 335 333 335 333 329 329 328 329 328 330 333 335 337 337 337 337 337 337 337 335 332 331 328 327 326 325 323 321 319 317 315 313 311 309
338 336 336 336 336 335 335 335 336 336 336 334 332 330 329 329 328 329 331 333 335 336 336 338 337 337 336 335 332 331 329 326 325 325 323 321 319 318 316 315 313 311 309
335 338 336 337 337 335 333 331 331 329 327 325 328 327 329 329 328 330 334 334 335 335 336 336 337 335 334 332 330 328 325 324 323 322 321 320 318 317 315 313 312 310 309
330 332 331 332 332 334 335 334 333 331 328 327 327 329 332 331 332 333 333 334 335 335 334 332 330 329 329 328 327 325 324 323 322 321 320 319 317 315 314 313 311 310 309
323 324 326 328 328 328 328 327 327 327 327 327 328 327 327 328 329 330 330 329 330 328 328 327 327 328 328 327 326 325 323 322 321 320 319 318 316 314 313 312 311 309 308
320 319 319 319 316 319 320 318 318 318 319 317 318 319 326 326 326 328 328 328 327 327 327 327 327 327 327 325 324 322 320 320 319 318 317 316 315 314 313 311 309 308 306

GFSGL_925_thetae_027.txt.gz
Theta_e
363 363 362 363 362 363 361 362 361 360 361 356 359 358 358 359 359 359 357 355 358 357 353 350 348 343 339 338 338 337 336 336 335 335 336 336 337 338 337 336 335 336 335
362 364 363 363 362 363 363 361 362 362 361 363 360 361 360 359 359 360 360 354 357 358 356 352 349 348 344 340 339 339 337 337 336 339 336 339 339 338 339 339 339 335 336
361 362 365 364 364 362 363 363 362 363 363 362 362 363 362 360 359 360 361 360 358 358 357 356 352 349 347 340 338 339 339 339 339 338 337 338 338 340 340 341 340 339 338
358 359 362 365 364 364 363 364 364 364 364 363 362 363 363 362 360 360 361 361 360 358 358 358 356 352 349 346 344 340 340 339 339 339 337 335 336 338 338 337 338 338 338
359 360 361 364 365 365 365 364 365 364 365 364 364 363 365 364 361 361 360 361 362 361 359 359 358 355 351 348 344 343 339 340 336 337 338 337 335 336 339 338 337 336 338
359 360 361 363 365 366 366 366 367 365 366 365 365 364 365 365 361 358 360 360 361 362 361 360 358 356 352 348 345 344 342 342 340 336 336 338 339 338 338 337 337 337 336
357 361 360 363 365 367 368 367 367 367 367 367 366 366 365 365 362 358 357 359 361 362 362 361 360 356 354 350 346 344 342 341 341 342 340 339 341 340 340 341 339 339 336
359 359 362 362 366 367 368 368 368 368 367 367 367 367 366 365 364 361 357 356 359 360 361 361 361 357 355 353 350 345 342 340 339 338 341 342 340 342 344 342 340 339 337
360 362 361 363 365 367 368 368 368 368 368 367 367 367 367 366 365 363 360 356 358 358 360 361 360 360 360 353 352 352 347 343 341 338 334 339 340 341 341 340 338 337 335
361 362 363 364 365 367 368 368 368 368 368 367 367 367 367 367 366 364 363 358 357 359 359 360 359 359 360 357 352 353 352 348 344 341 338 337 337 339 339 339 337 336 336
356 359 364 364 366 366 366 367 369 369 367 368 367 367 367 367 367 365 363 361 359 358 359 359 360 357 360 358 355 354 353 351 347 345 340 339 339 340 338 336 334 334 333
356 359 363 364 364 364 367 368 368 369 369 368 368 367 367 367 366 366 365 362 361 358 358 357 358 359 357 358 356 353 353 352 350 345 343 342 340 338 338 334 333 333 329
360 362 364 365 365 364 367 368 368 367 365 365 365 366 366 365 367 366 364 363 362 359 358 358 355 356 356 356 355 351 351 349 348 343 342 340 338 337 335 333 330 329 327
360 361 362 363 364 364 363 365 364 363 364 364 362 364 362 363 363 365 364 363 362 360 357 357 354 353 356 354 353 349 346 346 346 343 341 339 337 336 333 329 328 326 323
363 363 363 363 363 365 365 361 362 363 362 362 363 361 361 362 362 363 363 362 354 350 353 353 347 343 344 342 344 345 343 343 343 342 339 338 337 332 329 328 327 324 323
361 362 361 360 362 363 362 364 361 360 360 360 360 359 360 361 360 359 361 361 358 352 349 347 344 341 340 338 339 339 341 343 341 340 338 337 334 329 330 328 326 324 323
353 352 349 347 348 349 352 353 354 357 358 358 358 357 357 355 357 357 356 357 360 352 351 346 345 343 342 340 339 340 341 339 339 338 337 337 334 331 329 328 326 324 322
346 345 347 347 348 350 351 350 347 346 345 344 342 341 339 339 342 345 348 348 342 347 350 349 345 343 341 339 339 340 339 338 336 337 338 336 333 331 329 326 325 324 321
345 346 345 342 340 341 344 344 342 341 341 339 338 336 332 328 329 329 330 332 341 335 344 349 343 342 340 339 339 337 336 336 337 337 336 334 332 330 327 326 324 322 320
341 339 341 343 343 344 343 343 340 339 338 339 336 333 331 335 334 333 326 323 326 334 336 339 343 342 340 338 336 336 336 338 337 336 334 332 330 327 326 325 323 320 318
340 340 340 340 340 340 341 341 340 340 339 336 335 329 327 332 334 333 333 328 333 337 337 335 337 338 337 338 337 337 337 336 335 335 332 330 328 327 325 323 321 319 317
339 338 338 337 337 337 336 336 335 334 334 334 334 335 332 334 334 332 333 332 331 332 334 336 335 334 334 336 336 336 336 335 333 331 329 327 326 324 323 321 319 317 315
336 336 335 335 337 337 336 335 333 331 331 330 330 332 333 335 335 333 335 336 336 336 335 336 336 336 336 337 335 334 333 331 330 329 328 326 324 323 321 319 318 316 315
332 331 331 331 329 330 330 330 329 328 327 326 326 328 328 330 331 332 334 335 335 334 335 336 336 336 335 334 332 331 330 328 327 327 326 324 322 321 320 319 317 315 314
325 325 326 327 325 324 324 324 324 323 321 319 317 318 322 322 324 329 331 332 334 335 335 335 334 335 333 332 331 329 327 326 325 324 324 322 321 320 319 318 316 315 314
321 321 321 320 319 319 317 318 317 316 316 314 314 313 315 317 318 320 321 325 327 328 329 331 328 329 329 328 327 327 324 323 323 323 322 322 321 320 318 315 314 314 313

GFSGL_925_thetae_030.txt.gz
Theta_e
365 364 364 364 360 359 360 357 359 354 360 353 362 360 359 360 360 360 359 358 358 357 357 354 350 341 338 340 340 339 337 336 338 336 339 337 335 335 336 334 333 334 335
366 366 365 364 365 363 359 360 360 363 355 361 357 359 361 360 360 361 361 358 359 360 357 356 355 348 341 341 343 339 338 337 337 339 338 337 335 335 335 338 338 336 337
365 366 366 365 365 365 364 359 361 361 364 360 363 361 361 361 361 362 361 361 357 361 361 358 355 352 349 340 340 342 339 339 341 338 340 339 340 339 338 336 338 340 335
364 366 366 366 365 365 364 364 361 363 363 363 363 364 364 363 362 362 362 362 361 358 360 361 358 353 351 348 339 338 342 340 339 341 339 337 340 339 340 339 341 340 340
359 364 365 365 366 365 365 365 365 363 363 364 364 364 364 365 364 363 362 362 363 362 360 361 360 358 353 350 347 343 338 342 343 341 341 340 339 339 343 342 341 338 338
359 361 363 364 365 367 366 366 366 366 365 365 366 365 365 365 365 363 362 362 363 363 363 360 361 360 358 353 350 346 342 340 343 342 341 341 340 338 340 340 339 338 339
361 362 362 363 365 366 368 367 367 367 367 367 367 367 366 365 365 364 363 362 362 363 363 363 362 361 359 357 353 350 345 344 338 338 339 339 340 339 340 340 340 339 338
360 361 365 365 366 367 368 368 368 368 368 368 368 368 367 367 365 365 364 362 361 362 362 362 362 361 360 358 354 350 349 345 343 342 340 338 338 342 341 341 341 339 338
360 362 361 366 367 368 369 369 369 370 369 369 368 369 369 368 367 366 365 362 360 361 362 362 363 362 361 359 355 351 348 347 344 343 342 343 341 337 342 343 341 340 340
361 362 363 362 366 367 369 370 370 370 370 370 370 369 369 369 368 367 366 363 360 359 360 362 362 362 362 361 357 354 352 349 347 344 341 341 339 342 342 343 341 339 339
360 361 362 365 364 366 367 370 371 371 371 370 370 370 369 369 369 369 368 365 364 361 360 360 360 361 362 362 360 356 355 353 349 346 343 341 338 337 338 338 339 339 338
353 361 364 365 366 367 368 370 371 370 370 370 370 370 369 369 369 369 368 368 365 364 363 360 359 360 360 361 361 358 356 355 352 347 344 340 339 338 338 338 339 339 337
362 363 362 367 368 365 369 370 370 370 370 370 370 369 370 369 368 368 368 367 367 366 364 363 361 359 359 359 360 359 356 355 354 349 346 342 341 340 338 340 339 336 334
366 367 366 369 369 368 368 369 369 369 369 369 368 368 368 367 366 367 366 367 367 366 365 364 363 361 357 356 357 358 356 354 354 349 347 344 343 341 340 339 335 333 332
363 365 367 367 367 369 368 365 369 367 366 367 367 366 365 365 357 356 358 360 358 362 362 361 360 358 358 352 348 347 350 353 353 350 346 343 342 340 338 336 332 330 328
367 366 365 364 365 365 367 366 364 363 362 360 357 357 354 349 349 353 354 356 357 358 356 357 359 359 353 353 351 347 348 351 351 349 345 343 340 336 333 332 330 329 327
356 355 350 352 355 367 366 367 368 352 357 355 344 339 336 332 334 336 339 340 341 349 355 354 355 357 355 351 350 348 347 349 349 346 343 341 337 335 332 329 329 328 327
347 348 349 349 351 350 347 346 347 346 349 344 340 336 334 334 334 334 332 330 333 339 345 351 353 353 353 350 348 348 348 347 345 343 340 338 336 334 332 331 329 327 326
349 348 345 343 343 345 346 346 344 342 344 342 339 336 333 334 335 334 333 333 330 329 333 334 335 337 342 347 348 347 347 346 344 341 338 335 335 334 332 331 329 327 325
341 341 345 346 345 345 345 344 343 341 339 340 338 333 330 334 335 336 333 333 334 336 336 337 337 337 337 338 340 343 344 344 343 341 337 336 336 334 332 330 328 326 324
341 341 341 341 341 341 340 340 339 339 339 338 336 333 333 333 335 334 334 335 333 332 334 337 336 335 332 333 335 337 338 337 337 337 337 337 335 333 330 327 326 324 321
339 339 338 338 337 336 334 333 332 332 331 331 331 331 332 334 334 335 335 336 336 336 336 333 334 335 333 329 330 331 329 334 334 335 335 334 332 329 327 326 325 323 320
336 333 333 333 332 332 332 331 330 328 325 323 323 325 326 327 327 329 333 335 336 336 337 336 336 336 336 336 334 336 336 336 336 334 332 329 328 327 326 324 323 322 320
330 330 329 327 327 327 327 326 324 322 321 319 318 317 318 318 320 321 324 326 329 332 336 335 336 336 336 336 336 335 335 333 333 330 328 327 326 325 324 323 321 319 318
325 325 324 323 322 322 322 321 320 318 318 317 316 315 314 314 314 316 318 320 322 322 325 329 332 333 335 334 333 333 332 332 331 328 328 326 325 324 322 321 320 319 317
320 320 319 320 319 318 317 317 316 315 315 313 313 312 311 310 311 311 312 315 317 319 317 317 322 329 334 333 332 331 329 329 328 327 326 325 323 322 321 320 319 318 316

GFSGL_925_thetae_033.txt.gz
Theta_e
360 359 359 357 355 359 360 353 349 357 356 351 354 355 355 356 356 355 353 355 358 357 357 355 352 341 336 339 342 339 339 337 336 336 337 337 335 335 335 335 335 335 334
361 359 360 360 359 355 360 360 348 354 354 357 353 358 357 355 354 357 357 356 358 357 358 357 355 352 345 334 340 340 338 337 336 335 339 339 335 335 334 335 334 332 334
362 362 361 361 362 359 357 357 360 351 352 352 357 361 360 358 357 358 357 358 358 358 356 357 356 354 351 348 337 343 340 338 337 336 339 337 335 335 335 335 335 335 336
362 363 363 362 362 362 360 358 356 360 358 358 355 357 362 360 358 358 357 356 357 357 357 360 357 356 353 351 349 339 342 340 338 340 337 340 339 336 336 337 337 335 337
362 363 364 364 363 363 363 363 361 356 358 360 360 363 359 362 361 360 359 358 358 359 356 356 360 359 356 353 350 347 339 342 341 340 340 338 337 341 342 339 338 338 338
359 363 364 364 364 364 364 363 364 363 358 359 363 360 362 363 363 361 360 360 360 360 360 358 357 360 360 358 353 350 344 337 342 341 339 340 339 337 339 341 340 340 340
356 360 363 364 364 364 364 364 363 363 364 361 360 363 361 362 363 364 363 362 361 361 360 360 359 358 360 360 357 353 351 349 340 340 341 339 338 339 338 341 341 340 339
357 358 359 363 364 364 365 364 365 364 364 365 364 362 364 363 363 363 364 364 362 361 361 361 360 359 359 360 359 356 352 351 350 344 339 341 340 338 337 338 340 340 339
358 359 359 362 363 364 364 366 365 365 365 365 365 365 365 365 365 365 364 365 362 362 361 361 362 361 360 359 359 356 353 351 351 351 346 341 338 339 342 342 341 340 339
361 364 363 362 363 364 364 365 366 366 366 366 366 367 366 366 366 366 366 365 362 361 361 361 361 361 361 361 360 358 355 352 350 348 346 344 342 341 341 341 342 340 339
357 357 360 362 365 366 365 365 367 367 367 367 368 368 368 368 367 368 368 367 364 363 362 361 360 359 361 362 362 359 358 356 351 349 347 345 342 344 344 342 339 341 340
358 360 360 359 361 364 367 368 368 369 369 369 369 369 369 369 369 368 368 368 367 365 364 363 362 360 359 359 361 362 361 357 354 349 348 345 343 340 342 342 339 342 341
354 358 359 360 362 364 366 368 370 370 370 370 369 369 369 369 368 368 369 368 368 368 366 365 364 363 362 360 359 359 361 360 356 354 350 349 345 342 340 340 341 342 340
357 369 365 365 365 367 366 368 371 371 369 369 369 368 368 367 367 368 366 366 367 368 367 367 366 365 364 362 360 358 357 354 356 357 355 351 348 341 339 338 338 338 337
365 371 368 367 368 368 366 370 368 368 367 367 367 367 366 363 357 354 356 355 356 357 357 357 357 360 359 360 358 354 352 352 352 355 356 354 348 341 340 339 338 337 336
364 365 367 367 368 368 367 359 364 365 363 362 362 362 345 338 334 337 338 341 340 340 347 354 355 357 360 360 360 359 354 349 349 351 354 354 348 342 342 340 338 336 334
356 362 365 362 364 366 367 355 334 336 338 337 335 333 334 333 333 332 331 330 330 334 343 349 352 353 356 358 358 357 357 354 351 349 351 353 348 345 343 339 336 334 331
349 348 352 348 350 352 353 359 341 339 339 333 334 332 334 334 333 330 332 333 334 334 333 334 336 337 338 337 337 338 339 343 349 350 350 351 350 345 341 337 333 333 332
344 345 343 345 346 344 344 343 345 343 340 337 333 331 333 335 335 334 333 332 331 333 335 336 336 336 337 337 336 337 337 337 338 340 342 346 349 344 338 336 334 332 329
342 344 344 343 342 341 341 340 340 340 339 333 331 332 334 334 334 334 334 334 334 333 332 334 336 334 333 332 331 332 333 334 333 337 340 338 333 332 332 332 330 328 326
340 339 338 336 334 334 333 332 332 331 332 331 329 330 333 333 332 333 334 336 336 337 335 336 336 334 334 335 333 330 333 330 331 328 329 328 329 328 331 331 328 326 325
336 336 335 334 332 330 330 328 326 324 323 323 323 324 326 325 325 326 327 329 331 333 335 337 336 336 336 337 336 332 331 333 330 329 329 329 330 332 331 329 327 325 322
331 331 331 330 329 326 324 324 322 320 319 318 318 317 318 318 318 320 321 322 324 325 326 330 333 335 336 336 336 335 335 335 334 334 333 332 331 329 328 326 323 321 320
326 325 324 324 324 323 322 320 318 317 316 315 314 313 313 313 313 313 315 316 318 318 318 320 325 328 332 335 336 335 335 335 333 333 332 330 328 328 328 326 323 322 320
321 321 321 320 319 319 317 316 315 314 313 312 311 310 310 309 309 309 310 311 310 312 316 317 317 324 330 331 331 331 332 333 331 329 329 330 328 326 323 323 323 321 318
318 318 319 318 316 316 315 315 314 314 312 310 308 307 306 305 305 306 307 308 309 309 307 308 313 317 319 322 329 331 330 330 330 329 328 326 325 323 322 321 320 318 317

GFSGL_925_thetae_036.txt.gz
Theta_e
357 356 354 353 353 358 356 354 351 351 355 353 354 353 353 353 355 356 353 352 355 355 354 354 350 341 338 339 340 341 340 338 335 335 336 337 336 335 335 335 335 334 333
357 357 357 356 353 353 357 358 354 351 349 356 353 354 354 355 355 356 354 353 355 359 356 355 355 353 348 336 338 339 341 339 337 335 335 337 336 336 335 335 334 334 334
357 357 357 357 356 354 353 356 358 356 352 349 357 355 353 355 356 355 355 354 353 353 356 356 355 355 354 351 338 337 338 340 338 337 335 335 338 336 336 335 335 334 334
358 357 356 357 357 356 354 353 356 358 356 352 350 355 358 356 356 356 354 354 354 354 354 355 355 356 356 354 352 345 337 339 341 338 337 336 338 337 335 336 335 335 334
358 358 358 357 358 358 358 356 353 355 356 357 352 351 355 357 360 358 356 355 354 356 355 355 356 356 355 355 354 353 349 345 340 342 339 338 338 337 336 336 335 335 335
359 359 359 359 358 358 359 359 357 356 354 355 357 357 355 356 357 359 360 358 356 356 356 355 354 355 355 356 358 357 356 351 345 340 340 338 337 338 338 337 337 337 336
358 359 360 360 361 360 360 360 360 360 358 355 354 357 358 358 359 359 360 359 358 358 357 357 357 356 355 355 356 358 358 357 354 347 340 339 338 338 337 338 339 339 338
355 359 360 361 361 362 361 361 361 361 362 361 358 356 358 358 357 359 361 361 360 359 359 359 358 358 357 356 356 356 357 357 356 354 345 342 340 338 338 337 337 338 338
352 354 359 361 362 362 362 362 362 362 361 361 362 360 358 358 360 360 360 362 361 361 361 360 360 359 359 358 357 357 356 356 355 357 356 355 349 342 340 337 338 338 338
352 354 354 359 361 362 362 362 363 362 362 362 362 362 362 362 360 361 362 361 360 360 360 361 361 360 360 360 359 358 357 356 354 352 352 353 352 349 343 340 339 338 338
354 354 355 356 358 361 362 362 362 363 363 363 363 363 363 364 364 364 364 364 362 362 361 361 361 361 360 360 360 360 359 358 358 356 352 349 348 346 342 342 341 340 339
357 358 358 358 358 359 361 361 362 363 364 364 364 365 365 365 366 366 366 366 366 364 363 363 363 362 361 361 360 359 360 361 359 358 354 351 350 346 344 343 342 342 341
357 358 359 361 363 363 362 362 362 364 364 364 365 365 366 367 367 367 367 367 367 367 366 365 365 364 363 363 362 361 360 358 355 357 358 356 352 350 347 344 343 341 341
361 358 359 358 360 362 363 364 365 365 366 366 367 367 367 367 368 367 367 368 368 368 368 367 367 366 365 364 362 361 360 358 352 354 356 358 357 354 349 346 342 341 341
359 365 367 364 363 363 364 364 367 367 367 367 367 367 367 366 364 363 364 362 359 359 359 357 357 356 356 357 359 359 359 357 354 350 351 354 356 356 352 347 343 342 341
355 361 366 367 366 365 362 353 359 367 368 368 367 366 356 358 350 350 351 350 346 342 346 347 348 350 352 355 357 357 354 350 351 350 349 350 351 353 354 349 344 341 341
351 348 360 365 367 365 353 341 331 334 343 343 343 343 341 335 333 332 331 332 331 336 337 335 336 338 338 337 337 337 336 333 334 335 337 342 345 348 349 347 345 342 341
346 349 354 358 360 363 353 340 336 333 331 332 334 334 332 331 331 331 331 330 330 333 334 335 335 335 335 335 334 334 333 332 333 333 335 336 338 340 340 340 341 344 343
343 344 344 344 344 351 344 338 338 333 330 330 331 333 334 334 333 333 334 333 333 332 332 332 334 334 333 333 333 332 331 332 330 330 334 336 332 332 331 331 334 337 338
341 342 342 339 337 336 338 337 335 331 330 328 329 331 333 334 333 333 334 335 335 335 335 334 335 335 334 334 335 335 335 332 331 330 329 328 329 330 330 330 328 328 327
337 336 335 333 331 330 329 329 329 329 327 324 322 325 328 327 326 326 328 328 329 329 331 333 335 335 335 336 336 336 336 333 332 329 328 329 330 331 329 328 327 325 323
333 331 330 329 327 325 324 324 323 321 320 319 318 320 323 322 321 320 320 321 321 321 322 326 330 330 332 335 336 336 334 333 333 333 331 329 329 330 328 327 326 325 324
330 328 325 323 322 321 320 319 318 316 315 314 314 315 315 315 314 315 315 315 315 315 316 318 321 325 329 332 333 335 335 334 334 334 334 332 330 329 329 326 325 324 325
325 324 323 320 319 317 315 314 313 313 312 312 311 310 310 309 309 310 310 310 311 312 312 311 311 313 320 326 330 331 332 333 331 332 333 332 331 331 330 327 326 325 324
321 320 318 317 315 314 312 311 310 309 308 308 308 306 307 307 307 307 307 307 307 308 309 310 311 312 314 316 318 325 330 330 329 329 330 330 329 328 327 326 324 322 320
316 315 315 314 314 313 312 311 309 307 306 304 303 302 302 300 299 301 304 305 306 306 306 307 309 311 312 313 315 318 321 328 329 328 328 328 329 329 328 327 323 320 320

GFSGL_925_thetae_039.txt.gz
Theta_e
351 350 350 351 350 350 350 349 349 350 350 350 348 348 350 349 350 352 355 354 351 350 351 351 351 348 345 344 340 340 341 339 334 337 335 336 337 337 336 335 335 335 335
351 351 351 352 352 352 351 351 350 351 351 350 350 350 350 352 351 351 353 355 353 351 351 353 352 353 352 347 342 340 339 340 339 336 337 336 335 337 336 335 334 334 334
351 352 352 352 352 353 354 354 353 352 352 351 351 354 353 353 353 353 353 354 355 353 351 351 353 354 353 352 352 349 338 338 338 339 338 337 336 335 336 336 335 335 334
351 353 354 354 353 352 352 353 354 354 353 353 352 349 352 354 353 353 353 354 355 354 353 352 351 353 354 352 352 352 351 346 337 338 339 338 337 336 336 336 336 335 335
353 354 355 355 355 354 353 352 352 353 352 351 353 353 350 352 355 355 353 353 355 355 354 353 353 352 351 351 352 352 352 352 349 342 337 338 338 337 337 336 336 336 335
355 355 355 355 355 355 355 354 353 353 353 353 353 353 353 351 350 353 355 356 355 355 355 354 353 353 353 352 351 352 353 352 348 344 344 340 338 337 337 337 336 335 334
355 355 356 355 355 355 355 355 354 353 352 353 353 353 352 352 352 351 353 356 357 357 357 356 355 354 354 354 354 354 353 354 355 352 346 346 343 341 338 336 336 336 335
356 356 356 356 355 355 356 357 357 356 354 353 353 353 353 353 352 352 352 355 356 356 357 356 357 356 356 356 356 355 355 355 354 355 352 352 349 348 342 340 338 337 336
355 356 357 357 357 358 357 357 357 358 358 357 356 355 353 354 354 354 355 357 357 358 357 358 357 357 357 357 357 356 356 356 356 357 356 356 354 352 348 341 337 335 336
353 355 356 357 358 358 359 359 359 359 359 359 359 360 359 357 356 356 356 356 356 356 357 358 358 358 358 359 358 357 356 357 356 355 355 356 357 356 354 345 342 339 337
350 351 354 357 358 359 359 359 360 360 360 360 360 360 361 361 360 360 359 358 357 357 357 358 358 359 360 360 360 359 358 359 358 358 357 355 353 353 355 352 352 342 341
350 351 351 353 357 358 360 361 360 361 361 361 360 361 361 361 361 362 362 361 361 360 360 361 361 361 361 361 360 360 360 360 358 357 358 358 357 355 353 351 350 351 347
354 354 352 352 354 355 358 359 360 360 360 361 361 361 361 362 363 363 363 363 364 363 362 363 364 363 363 363 362 362 361 359 355 352 355 356 357 358 357 354 351 348 346
358 358 356 357 356 355 356 358 358 359 360 361 361 362 363 363 364 365 365 365 365 365 365 365 365 365 365 364 363 363 360 359 358 352 352 354 355 355 356 356 353 351 346
357 359 364 361 357 359 360 360 360 360 361 361 362 363 363 365 365 365 366 366 366 366 365 362 360 358 356 354 352 354 357 355 351 347 346 345 346 346 347 348 350 350 351
353 354 360 364 361 356 350 347 354 362 364 364 365 365 364 365 365 362 360 358 357 356 354 351 347 345 347 348 348 345 342 337 333 333 333 333 334 335 337 338 340 344 346
350 350 352 362 362 353 346 344 332 336 357 362 362 360 351 346 340 340 340 340 337 336 338 337 335 335 335 336 336 335 333 331 332 331 331 331 333 334 335 336 336 335 336
344 348 351 357 362 355 343 338 336 335 331 331 331 332 332 332 332 332 332 332 332 333 334 334 334 332 332 333 332 333 332 332 332 331 330 330 330 330 329 328 328 327 326
343 343 346 350 354 347 338 334 331 330 330 330 332 333 333 333 333 333 333 333 333 332 332 332 332 333 333 333 334 334 335 334 334 331 329 328 328 329 329 328 327 327 324
340 339 342 344 342 340 336 332 331 329 328 328 330 331 332 333 331 330 330 331 332 331 330 332 333 331 333 334 334 335 335 334 333 332 330 329 328 329 329 327 326 324 322
337 335 336 336 333 333 332 330 328 325 323 321 322 325 328 326 322 322 321 321 321 321 321 323 324 327 328 328 330 333 335 335 334 332 332 331 330 328 328 327 325 323 323
334 331 329 326 326 325 324 324 322 320 319 317 316 317 321 320 317 315 315 314 314 314 314 315 318 319 321 323 323 326 328 331 332 333 333 333 333 330 328 328 326 324 323
332 328 325 322 321 322 320 318 317 315 314 313 313 313 313 312 311 310 310 311 312 312 313 315 316 317 317 319 321 319 321 324 328 331 332 331 332 333 330 328 327 325 324
323 323 320 317 317 315 314 313 312 312 311 310 310 310 310 309 309 308 308 309 309 309 311 311 312 312 313 315 315 316 318 323 329 330 329 330 330 330 330 328 326 325 324
318 317 316 315 313 311 310 309 308 307 307 306 304 304 304 305 306 306 306 306 306 307 307 307 308 309 310 312 312 313 316 320 325 328 328 328 328 328 328 327 326 325 323
314 314 312 310 309 308 306 305 304 303 302 301 300 299 298 297 297 297 297 297 297 298 299 301 304 306 307 309 310 311 312 316 319 323 326 326 326 327 327 327 326 324 322

GFSGL_925_thetae_042.txt.gz
Theta_e
345 345 346 346 345 345 345 346 346 346 346 346 349 349 347 347 348 350 351 352 354 352 350 351 350 350 349 347 346 343 339 339 336 338 338 338 336 336 336 336 336 335 335
346 346 346 347 347 347 347 347 347 347 347 345 349 350 349 348 348 349 349 350 352 354 352 350 349 350 350 351 351 348 344 341 338 338 339 339 339 338 336 335 336 336 335
348 347 347 348 348 348 348 348 348 348 348 348 348 349 349 349 349 349 351 350 351 352 353 353 351 349 351 351 351 351 350 348 341 338 337 337 337 338 338 336 335 335 335
348 349 348 349 349 349 349 349 349 349 348 349 349 349 349 349 351 351 352 353 352 352 352 353 353 352 350 350 351 351 351 351 351 348 341 338 336 336 337 337 337 336 335
348 350 349 350 350 350 350 351 350 350 350 350 350 350 350 349 348 351 353 352 352 353 353 353 353 353 352 351 351 350 349 351 349 347 344 342 341 338 337 337 336 337 336
348 350 351 350 350 350 350 350 351 351 351 352 352 352 350 350 350 348 348 353 354 353 353 351 351 352 353 352 352 351 352 351 349 348 347 347 346 344 343 341 338 337 339
349 350 351 352 352 351 351 350 350 351 351 352 352 352 351 350 348 349 349 348 351 353 353 354 354 355 354 353 353 353 353 353 354 353 351 349 348 348 347 343 340 339 340
351 352 352 353 353 353 353 353 352 351 351 352 352 352 352 350 350 347 348 351 350 350 350 352 353 354 353 354 354 355 354 355 355 355 354 354 353 353 351 349 347 344 341
353 353 353 353 353 353 353 354 353 353 352 351 351 352 352 352 351 351 350 351 352 352 353 352 353 353 353 354 354 355 355 355 356 357 357 357 357 357 355 351 347 340 338
354 354 354 354 354 353 354 354 354 355 354 354 353 353 352 353 352 352 352 352 351 352 353 354 355 355 356 356 356 356 356 356 357 356 357 357 358 358 358 356 352 347 346
353 354 354 355 355 355 355 354 355 355 356 357 357 356 356 356 356 356 356 354 354 354 354 355 355 356 357 357 358 357 357 358 357 358 358 357 357 357 358 357 357 352 347
350 353 354 355 356 356 356 357 357 357 357 358 358 358 358 358 359 359 360 359 358 355 355 356 357 358 359 359 358 359 359 359 358 356 356 357 357 356 357 357 355 352 351
348 350 351 354 355 356 357 358 358 358 359 358 359 359 359 359 360 360 360 361 361 358 359 359 359 360 361 362 362 362 361 359 357 350 351 353 354 355 354 354 353 354 353
352 349 349 350 352 355 356 358 358 359 359 359 359 359 359 360 360 361 361 362 361 361 361 360 359 360 361 362 361 360 357 356 354 353 351 350 349 345 343 338 340 341 342
358 359 354 353 351 351 353 355 357 358 359 358 359 360 360 360 361 362 362 364 364 364 362 358 357 356 355 354 352 351 353 353 348 342 337 337 334 332 332 334 336 336 335
352 354 360 357 354 354 351 347 352 355 357 358 359 360 360 362 363 364 364 364 364 363 356 353 351 347 346 345 345 342 341 337 333 332 331 331 331 332 332 332 331 330 330
347 348 349 359 353 347 342 342 334 338 358 361 362 364 363 362 361 358 355 353 352 350 344 339 336 334 333 334 334 333 332 331 331 332 331 330 329 331 330 330 329 328 325
343 346 347 358 353 345 341 338 336 336 332 330 336 340 337 335 335 335 334 335 334 333 333 333 332 331 331 332 332 332 333 334 334 333 332 329 327 328 329 329 329 327 326
342 343 346 353 353 344 339 336 334 331 329 329 330 331 331 331 331 331 331 332 331 331 331 331 331 331 331 332 332 332 333 332 333 332 332 330 328 329 328 328 327 324 323
339 342 344 343 339 336 334 332 331 331 329 329 329 330 331 332 330 329 329 328 328 327 327 327 327 328 327 328 328 328 330 330 330 333 332 331 331 330 328 327 326 322 323
338 338 340 339 335 333 332 330 327 326 324 322 324 328 329 326 321 320 320 320 319 320 321 321 319 320 321 322 323 324 326 328 330 331 331 331 332 332 329 328 327 324 323
335 333 332 331 331 329 326 324 323 320 318 316 315 319 323 320 316 313 313 312 312 312 312 312 312 313 313 313 314 316 317 319 322 324 327 328 330 330 331 328 329 327 324
332 328 327 326 325 322 321 319 317 316 315 314 313 312 313 311 309 308 308 309 310 310 310 311 311 311 311 311 311 312 313 314 317 319 324 325 327 329 330 330 329 327 325
326 324 322 319 319 316 314 313 312 311 310 308 308 308 308 308 307 308 308 308 308 308 308 308 308 308 309 310 311 312 312 314 318 321 321 323 324 327 328 328 327 327 324
322 318 316 315 313 311 309 307 306 305 305 304 305 306 307 307 307 306 306 306 305 305 304 303 302 301 304 306 308 309 310 311 315 318 318 319 322 323 326 327 327 326 325
317 315 312 310 308 307 305 303 302 301 300 299 298 299 298 297 296 296 296 295 295 295 295 295 295 295 295 295 296 303 307 310 311 314 315 315 316 317 318 320 324 325 325

GFSGL_925_thetae_045.txt.gz
Theta_e
347 347 347 348 347 347 348 348 347 343 344 342 344 346 349 350 349 351 352 354 356 356 356 355 354 354 352 351 349 347 346 344 343 341 343 341 339 339 338 337 336 335 337
347 347 347 347 347 348 347 348 348 344 344 345 345 345 348 350 351 352 354 354 355 356 356 356 355 354 354 354 353 352 349 348 345 345 342 342 342 342 338 338 338 339 338
348 348 348 348 348 348 348 348 348 345 345 346 348 346 350 349 351 350 349 354 355 355 355 357 357 356 356 353 354 353 352 352 350 347 347 345 343 341 341 340 338 338 338
349 349 349 349 349 349 349 349 350 346 346 347 348 349 351 351 352 352 353 354 355 356 356 356 356 357 357 357 356 356 355 354 352 352 350 348 348 347 345 344 343 343 342
350 350 350 350 350 350 351 351 350 350 348 347 349 350 352 352 351 353 354 355 356 356 357 357 357 356 355 354 356 356 356 355 354 352 351 350 349 349 348 347 347 347 346
351 351 351 351 351 351 352 352 352 351 351 352 353 353 353 352 350 349 348 354 356 357 357 357 356 353 351 351 350 351 354 356 356 355 354 354 356 355 354 353 352 351 353
351 352 352 352 352 352 353 353 353 353 352 353 353 353 354 353 350 347 347 350 352 354 356 357 357 356 355 354 356 354 353 353 353 353 356 357 358 357 357 357 356 356 355
351 352 353 353 353 353 353 354 354 355 355 354 354 354 354 354 351 350 349 348 351 353 353 353 354 354 354 355 355 355 356 356 356 353 352 353 355 357 358 358 357 355 352
352 352 353 354 354 354 354 354 353 353 354 355 355 356 355 354 352 350 350 351 352 353 353 354 354 354 354 352 353 353 354 356 356 356 356 357 356 356 355 353 350 351 351
353 353 354 355 355 356 356 356 355 354 355 354 355 355 356 356 354 351 351 351 352 353 354 355 354 353 354 353 354 355 357 358 359 361 362 360 358 358 358 357 356 348 349
354 354 355 356 356 356 357 357 357 357 356 356 356 356 356 355 355 353 352 352 353 354 355 355 356 356 355 354 354 356 358 359 360 359 358 358 358 358 359 358 358 356 352
357 357 357 357 356 357 357 357 357 358 358 358 359 359 358 358 357 356 355 355 354 356 358 359 359 358 357 357 357 357 358 358 357 355 355 356 356 356 357 357 356 355 354
357 358 358 358 358 358 358 358 358 359 358 359 359 360 360 361 361 360 358 358 358 354 358 360 360 359 359 358 359 361 360 359 357 350 350 351 352 352 352 351 351 346 344
356 357 358 359 359 358 359 359 359 360 360 360 360 361 361 362 362 362 360 359 359 358 358 356 357 357 358 359 360 361 360 357 355 352 350 350 349 348 346 342 340 339 337
354 355 356 357 357 359 359 358 360 360 360 361 361 362 362 363 363 363 363 361 360 361 360 355 354 354 353 354 354 352 352 353 351 349 347 345 342 339 338 337 336 335 334
361 358 354 353 354 357 349 346 355 358 358 359 360 361 361 362 362 361 361 362 363 363 357 352 351 351 350 348 346 345 344 342 342 340 339 338 336 336 335 335 334 333 332
350 350 358 355 354 352 349 348 340 343 352 356 358 358 359 360 360 363 363 362 359 354 349 346 344 340 337 336 338 339 340 337 336 336 337 336 336 334 333 334 334 332 332
346 346 336 355 352 349 348 351 347 345 344 338 352 359 359 360 360 360 355 349 340 339 339 336 336 336 336 337 337 337 337 337 337 336 336 336 335 334 334 334 334 329 327
344 348 353 350 347 348 348 348 348 343 338 329 330 333 335 337 336 336 336 339 337 335 333 332 333 332 331 330 330 330 331 331 331 331 332 335 335 333 334 332 330 327 325
341 339 343 340 340 343 344 343 342 341 338 337 334 330 330 332 330 327 327 328 327 328 328 324 323 323 325 326 326 326 328 329 330 331 331 332 332 333 333 333 333 329 327
339 338 339 339 337 336 336 336 334 330 326 325 327 329 329 325 323 321 322 321 319 317 317 318 317 319 319 320 321 322 322 322 324 325 327 328 329 331 331 332 331 330 329
336 336 336 336 335 333 331 327 324 322 321 319 317 322 326 319 317 315 312 311 310 310 312 314 314 316 315 316 316 315 314 315 316 317 318 322 325 327 329 330 330 329 331
334 332 331 328 327 324 325 322 320 318 316 315 314 314 314 312 311 309 308 307 308 310 310 310 311 311 312 311 312 312 311 312 315 316 316 316 322 324 327 328 329 330 330
331 330 327 324 323 322 319 317 313 313 312 311 310 309 308 308 308 307 307 308 307 306 306 306 306 305 305 304 304 305 305 310 314 315 314 311 314 319 322 327 327 328 329
326 324 321 318 316 313 311 309 308 307 306 306 305 305 306 306 305 305 305 306 305 303 301 300 299 298 297 297 298 301 305 309 310 313 312 313 314 314 316 320 326 326 326
322 320 317 314 311 309 308 305 304 304 303 303 302 302 300 298 298 299 298 299 299 298 297 296 295 294 294 293 292 293 296 300 306 311 310 312 312 311 313 315 316 318 324

GFSGL_925_thetae_048.txt.gz
Theta_e
352 351 350 350 350 352 352 352 353 353 352 353 351 350 352 355 355 356 355 354 357 357 356 355 356 356 352 349 348 348 347 346 345 342 341 341 347 348 346 346 345 345 342
352 353 351 351 351 351 353 352 353 354 354 354 353 352 352 352 355 357 356 353 356 356 356 356 356 354 356 355 352 351 348 347 346 349 346 344 343 344 345 347 347 344 341
351 351 351 351 351 351 353 353 354 354 355 354 354 354 353 352 355 356 356 356 355 356 357 356 357 357 357 355 354 352 352 354 354 353 352 348 346 347 348 348 349 347 347
351 351 352 352 352 352 352 353 354 354 355 355 354 354 354 353 352 354 355 356 356 356 357 357 357 358 359 360 359 359 358 357 354 353 351 348 346 345 347 349 350 350 349
352 351 353 354 353 353 354 354 354 355 356 356 355 355 355 353 351 352 353 353 355 356 356 358 358 358 359 359 359 358 358 358 354 352 351 350 350 351 352 352 354 353 353
355 354 354 356 355 355 355 356 356 356 356 357 355 355 356 354 349 349 350 351 353 355 357 357 358 358 358 357 356 353 353 358 360 358 355 353 357 357 355 355 354 354 357
356 356 356 357 358 357 357 358 357 357 357 357 357 356 356 356 352 350 349 349 350 353 355 356 355 352 354 356 357 357 356 354 353 354 357 358 358 357 358 360 359 361 362
358 358 358 359 359 359 359 359 359 358 358 358 357 357 357 357 356 354 351 351 351 352 352 353 354 354 353 355 356 356 356 356 357 357 356 356 356 356 359 362 360 360 360
358 359 359 359 359 359 359 359 359 359 359 358 358 358 359 358 356 354 353 353 353 354 354 354 355 355 355 355 355 354 354 354 352 352 353 355 356 358 358 357 355 357 357
358 359 359 360 360 360 360 360 360 359 359 359 359 359 359 360 359 356 354 354 353 353 354 356 355 354 355 355 355 354 355 355 357 360 363 363 363 362 362 362 357 355 356
356 356 358 359 360 360 361 361 360 359 358 359 359 359 359 359 360 359 356 355 353 352 352 351 352 353 354 354 353 355 357 359 362 363 362 363 363 362 363 361 359 358 356
357 357 359 360 359 359 361 362 361 360 360 361 360 360 359 360 359 359 358 356 354 354 353 353 358 359 359 358 357 356 356 355 356 359 358 357 357 358 357 356 356 356 355
358 360 360 360 360 360 362 363 362 362 361 361 361 360 359 359 361 359 357 356 355 354 357 360 361 362 361 360 359 359 357 355 357 355 353 354 354 354 354 356 355 354 350
360 361 361 362 361 360 362 362 361 361 361 360 360 360 360 360 362 364 361 359 357 356 354 357 359 360 361 361 361 359 359 360 359 356 353 352 353 355 355 351 344 341 340
361 361 362 362 361 362 362 357 361 360 360 361 361 361 362 362 363 364 365 364 360 356 358 359 359 359 360 360 357 357 356 354 352 352 351 353 354 351 345 341 340 340 338
358 359 360 360 362 362 362 354 353 348 356 360 360 362 361 363 362 364 364 364 363 361 355 360 360 358 356 355 353 350 349 349 349 349 349 347 344 341 340 339 338 338 338
361 360 357 357 359 357 353 353 354 354 353 359 360 361 361 361 362 362 361 362 362 361 357 354 352 349 344 344 344 344 345 345 344 342 341 341 340 340 338 339 339 338 338
354 360 359 357 355 352 341 337 338 340 352 357 355 358 358 358 359 360 362 362 353 349 346 343 341 339 340 340 341 342 343 342 340 338 338 339 340 340 339 338 338 337 334
351 349 349 348 346 345 335 334 334 338 353 337 336 345 351 353 353 352 351 353 356 351 347 344 342 339 337 335 335 335 335 335 335 335 336 337 337 336 336 335 335 333 331
346 343 346 349 349 351 353 350 351 353 344 338 336 334 332 335 338 340 341 339 337 334 335 332 331 329 328 329 329 329 330 332 331 331 332 334 335 335 335 335 334 334 332
345 344 341 340 344 346 351 352 352 345 341 332 330 335 337 338 337 335 334 330 328 325 325 327 326 325 324 324 324 324 324 325 326 327 329 330 331 332 334 334 334 334 333
340 342 343 341 337 336 336 335 331 330 326 326 325 327 329 329 327 325 321 320 318 319 318 319 319 318 319 319 320 321 322 323 323 323 324 325 327 328 329 331 333 333 333
335 339 338 337 333 329 328 326 325 324 323 321 323 325 325 322 318 318 313 314 314 314 314 313 313 315 315 315 316 316 315 315 314 314 317 320 323 325 324 326 328 331 331
333 333 335 334 332 329 328 323 319 319 318 317 316 318 318 317 314 312 310 310 311 311 311 312 312 312 311 310 309 309 305 309 310 312 314 318 321 322 321 321 327 328 328
328 327 326 323 323 321 318 316 315 313 312 312 311 310 310 310 310 310 309 310 311 310 309 307 305 303 301 299 298 296 298 302 308 311 312 318 319 319 319 317 319 320 323
328 325 323 317 315 315 312 310 308 306 305 305 304 304 304 304 304 305 305 306 305 303 303 301 300 299 298 295 292 292 293 294 298 307 310 314 315 316 316 317 317 319 320

GFSGL_925_thetae_051.txt.gz
Theta_e
355 355 352 352 352 352 354 353 353 353 353 352 353 352 352 352 354 356 354 354 355 354 356 354 355 355 353 348 348 348 347 347 346 345 343 343 346 350 349 349 348 347 347
354 356 354 353 352 352 352 354 355 356 355 355 356 354 352 352 355 356 356 351 356 356 356 355 355 355 357 356 355 352 349 349 349 351 348 349 350 349 347 349 350 350 348
355 356 355 353 354 352 354 354 355 356 357 356 357 357 354 353 354 357 357 356 354 354 355 356 356 356 357 356 356 352 351 354 355 356 355 353 350 350 349 349 351 353 353
352 353 355 356 355 354 353 355 355 357 358 358 358 358 356 355 354 354 356 357 356 355 355 356 356 357 358 360 359 359 358 357 354 354 353 353 350 347 348 351 352 352 353
352 352 355 357 355 355 354 356 357 358 358 359 359 358 357 356 354 353 355 357 357 357 356 356 356 357 357 359 359 359 358 359 357 354 352 350 349 350 354 354 354 356 353
354 353 353 356 356 356 355 357 358 359 360 360 360 360 358 356 352 351 352 354 355 357 358 358 357 357 357 357 358 358 357 360 363 359 355 354 355 356 355 355 355 355 360
357 355 356 358 358 358 358 359 360 360 361 362 361 361 360 358 353 351 349 350 353 355 355 358 358 353 355 358 360 359 357 355 355 354 357 358 357 358 359 360 357 361 365
358 361 357 360 361 360 361 361 361 361 361 362 363 362 361 361 357 354 351 349 350 352 355 356 357 356 355 356 358 357 359 361 360 358 357 357 359 358 359 360 361 362 361
362 361 361 361 362 363 363 363 363 363 363 363 363 363 363 362 358 355 355 352 352 354 355 354 355 357 358 357 354 356 357 357 352 351 351 351 352 352 353 355 358 360 360
362 362 362 362 363 364 364 364 365 364 364 362 363 363 364 364 362 359 356 356 354 355 356 357 356 355 356 357 358 358 360 360 357 356 357 361 365 364 363 362 360 359 360
361 362 364 363 365 365 365 365 366 365 362 364 363 363 363 362 364 361 358 357 355 353 353 350 351 353 353 353 352 355 357 357 357 360 362 364 363 364 362 361 361 361 360
361 362 364 365 364 363 366 366 366 366 365 366 365 365 362 364 362 363 362 359 357 356 352 346 347 348 349 352 353 354 356 355 356 358 360 362 362 361 359 360 359 357 359
361 362 363 365 365 363 366 367 366 366 363 363 364 362 360 359 362 361 360 360 359 357 355 352 351 353 361 360 359 360 359 357 358 360 361 359 357 357 357 356 358 358 354
364 363 364 365 366 364 364 365 363 362 363 360 360 358 356 353 352 356 359 358 358 358 357 355 356 359 361 363 362 362 360 361 362 359 358 356 355 354 355 358 355 350 344
364 365 364 363 363 364 365 363 363 357 358 360 355 352 351 352 351 353 357 362 358 356 357 357 357 359 361 362 362 363 363 360 357 357 354 353 352 355 356 352 345 342 342
364 363 364 361 363 364 356 352 356 353 354 355 356 357 360 357 358 360 362 366 364 360 357 360 362 362 362 363 362 360 357 355 353 352 353 353 353 351 347 344 342 341 342
363 364 362 362 363 364 362 359 356 351 353 356 358 359 359 360 363 364 364 364 364 362 362 361 364 362 359 356 354 352 350 350 349 350 347 347 346 344 342 341 341 341 341
360 361 361 363 363 364 364 362 360 358 353 350 353 353 355 358 359 360 361 362 361 361 361 356 352 348 346 345 343 342 344 347 346 345 344 343 342 342 342 342 341 341 339
359 360 360 361 362 360 357 353 349 348 343 342 341 347 350 352 356 358 361 362 360 354 350 347 344 343 343 342 342 341 341 340 340 339 338 339 340 339 339 338 337 335 335
347 349 351 350 348 348 347 347 344 344 343 344 340 338 348 348 351 351 348 349 353 354 349 347 343 340 337 338 336 336 336 335 335 336 336 336 336 336 336 336 335 335 335
345 345 347 351 351 348 343 344 351 348 346 341 338 340 345 339 342 345 341 340 341 341 340 337 335 333 332 332 332 331 331 331 331 331 332 332 332 332 332 333 334 334 335
342 343 340 340 339 341 343 345 343 339 335 334 334 337 338 338 339 338 334 333 332 331 331 331 330 329 328 327 327 327 327 327 327 326 326 327 328 329 329 329 329 332 333
340 340 338 334 331 331 334 334 332 332 330 330 331 333 332 332 330 328 326 324 322 321 321 320 320 319 320 321 321 320 319 317 316 318 320 322 324 326 326 326 325 328 329
335 338 337 335 334 330 324 322 322 323 323 324 325 325 323 321 319 318 317 318 317 318 318 319 319 319 316 313 310 305 302 307 309 312 313 319 321 322 322 322 323 322 323
332 334 332 332 329 326 322 317 315 315 314 314 315 317 317 317 318 317 317 317 316 315 313 311 309 305 302 300 297 295 295 297 302 306 308 314 317 318 318 319 320 321 322
329 326 324 321 320 318 317 314 310 309 308 308 308 309 309 310 311 310 312 311 311 309 308 306 304 302 299 295 293 293 293 294 296 301 303 306 310 311 312 312 315 316 317

GFSGL_925_thetae_054.txt.gz
Theta_e
358 355 354 352 349 345 349 339 351 347 354 348 355 356 355 354 356 355 352 355 354 352 355 356 356 353 353 355 351 348 348 348 351 348 348 347 347 347 347 346 346 346 348
359 356 355 354 351 350 343 353 348 355 350 357 350 355 352 355 355 355 357 354 356 355 353 352 357 357 356 351 353 355 355 354 353 354 351 348 349 353 352 351 350 350 349
360 357 357 355 355 354 351 348 355 353 356 353 358 353 357 354 354 355 358 354 354 358 357 356 354 355 356 360 358 356 353 353 354 353 356 358 355 352 351 351 351 350 351
358 358 358 356 355 354 355 351 356 357 356 357 356 359 358 356 354 356 359 359 357 355 357 355 357 358 358 358 357 356 356 357 355 356 355 356 356 353 352 356 355 353 354
355 357 358 359 357 355 354 356 352 355 358 359 359 360 360 359 357 355 356 359 359 358 357 357 357 358 358 358 361 361 360 360 361 361 361 358 355 355 356 356 359 358 355
354 356 357 358 358 357 355 356 357 356 358 359 361 361 362 360 358 355 355 356 359 359 359 358 359 359 356 355 357 358 359 359 359 361 363 361 358 357 357 355 356 358 358
355 355 356 358 359 358 358 356 358 358 358 360 361 362 362 362 358 354 353 354 356 358 360 360 360 359 357 357 356 356 356 356 356 356 357 357 356 354 354 359 360 360 362
357 358 356 358 359 360 359 359 357 359 359 360 362 362 363 363 361 355 353 352 353 356 356 356 357 358 355 357 359 361 360 359 357 357 357 357 357 356 356 356 359 360 358
359 358 358 357 359 360 359 359 359 360 361 361 362 363 363 364 363 359 354 353 351 351 351 351 356 360 358 353 350 351 352 354 358 358 357 353 353 353 354 359 356 354 361
359 360 361 358 360 360 360 360 360 361 362 362 363 363 364 364 363 362 358 355 354 354 354 354 354 351 350 355 359 359 360 359 359 359 358 357 359 363 364 365 365 358 360
359 360 361 361 360 363 362 362 363 363 363 364 363 363 365 364 364 363 361 358 357 357 357 357 357 356 353 352 353 354 356 357 360 360 358 359 361 360 362 361 360 360 360
363 361 365 364 362 364 365 366 365 365 366 365 366 366 366 366 365 365 364 360 359 358 358 357 356 353 353 351 351 352 353 353 355 355 357 359 360 363 362 360 361 360 359
363 363 364 365 365 364 366 367 367 367 367 367 367 367 366 366 366 365 363 364 362 359 359 358 355 353 350 351 351 351 353 354 354 358 360 361 362 361 360 359 358 357 358
364 366 364 367 367 365 367 367 368 368 368 367 366 366 366 365 365 366 365 363 362 362 360 359 358 354 357 362 363 361 359 360 360 361 361 361 360 359 357 355 357 356 353
366 366 365 366 367 367 365 367 367 366 367 366 365 364 365 364 362 361 363 361 361 360 360 358 358 357 356 359 362 364 363 361 361 361 360 358 356 355 354 354 353 351 343
366 366 366 366 366 367 365 358 365 367 363 365 363 363 359 356 355 356 353 358 356 357 356 359 359 359 359 360 362 363 363 363 362 359 357 354 352 354 355 349 344 342 341
367 366 365 365 366 366 365 357 349 351 353 355 357 356 361 362 361 359 358 353 360 360 358 358 361 363 364 364 363 361 360 358 355 352 353 352 348 350 346 343 342 343 343
362 364 364 363 365 365 364 361 354 350 351 347 355 358 359 361 361 361 363 364 361 360 359 364 363 362 358 358 356 355 353 349 349 348 346 344 343 342 343 343 342 340 339
355 358 359 365 363 365 364 362 362 359 360 352 349 350 351 353 357 357 360 360 360 360 361 360 358 353 351 347 345 345 344 344 342 341 340 340 340 340 339 339 338 336 335
348 351 355 361 362 362 362 359 357 354 352 347 346 342 345 350 352 347 351 352 352 354 350 347 344 343 342 341 340 340 338 337 337 337 337 336 336 336 336 335 335 335 335
343 348 347 350 350 351 353 352 350 347 346 346 344 341 346 347 346 344 341 338 338 334 341 338 337 337 336 335 334 334 334 333 333 332 332 332 332 332 332 331 331 332 333
339 338 339 338 341 343 343 345 343 344 339 337 339 340 342 343 339 336 335 336 335 335 334 334 333 332 331 330 330 330 331 330 328 327 327 328 328 329 330 330 327 326 328
340 336 333 331 330 331 331 331 333 334 334 336 338 336 334 331 328 328 327 327 327 327 327 326 325 323 321 319 319 319 318 316 317 318 320 322 324 325 325 325 325 324 325
337 336 334 329 325 322 323 323 323 325 326 325 324 322 322 322 323 322 321 321 321 321 319 318 316 314 309 306 305 310 311 311 312 311 313 316 320 321 321 321 321 322 323
329 328 325 330 326 322 319 317 317 316 318 319 318 318 318 318 318 318 318 319 318 314 312 308 308 306 304 301 297 296 296 297 301 305 307 311 314 315 315 316 316 316 318
317 318 315 314 313 315 312 310 308 308 307 309 310 312 312 313 314 315 315 313 311 310 306 304 301 299 296 293 293 294 294 295 299 302 304 305 305 305 303 303 306 312 311

GFSGL_925_thetae_057.txt.gz
Theta_e
351 353 349 347 350 347 344 343 345 347 349 348 354 353 355 354 354 355 354 353 353 351 355 353 354 355 349 351 354 352 349 348 349 348 348 349 347 346 344 348 350 350 349
353 352 354 349 347 350 348 342 343 343 347 356 354 352 353 354 354 355 355 354 354 354 354 353 355 357 354 353 351 351 353 354 354 351 349 348 355 356 354 353 352 352 351
355 353 354 353 348 349 347 346 340 339 342 346 355 356 355 354 352 352 354 352 353 353 355 354 352 351 357 357 355 357 357 356 359 358 357 357 354 351 354 355 355 354 355
356 356 354 353 353 347 347 344 348 346 345 347 350 355 352 352 353 353 354 353 353 351 355 358 356 355 356 354 355 356 355 355 354 354 354 356 357 357 357 355 354 353 353
357 357 356 355 353 353 349 348 341 353 347 355 355 355 357 353 354 353 353 354 356 354 351 351 357 357 354 356 357 357 358 359 358 359 360 361 361 359 357 353 353 350 354
357 358 358 356 355 354 354 353 351 343 358 351 353 356 357 358 355 355 353 354 358 358 357 356 352 356 357 356 356 357 358 359 361 362 360 359 357 354 351 352 353 357 357
353 358 358 357 356 355 354 353 355 352 349 359 357 357 357 356 358 357 356 353 354 356 358 358 357 355 355 357 357 356 356 355 356 356 356 355 355 353 354 355 355 356 357
354 355 357 357 357 357 356 354 354 356 353 352 357 359 359 358 358 359 358 356 355 353 353 358 358 357 357 358 357 357 356 355 355 355 356 357 357 357 356 354 355 358 360
354 354 356 357 357 358 357 357 355 356 357 355 357 359 360 360 359 359 360 357 355 354 353 353 353 355 355 356 355 355 358 360 361 361 361 358 354 356 355 356 358 359 354
345 356 356 356 358 358 358 357 358 355 356 358 357 358 360 360 361 360 360 359 355 352 353 353 354 355 355 357 359 357 356 354 351 351 354 355 357 359 359 360 362 358 359
354 357 358 356 357 358 359 358 357 358 357 357 359 359 360 362 362 361 361 361 356 353 352 352 351 350 350 349 349 350 354 353 356 356 358 361 359 356 358 359 362 361 360
360 359 357 358 357 359 359 359 358 358 358 358 360 360 360 362 363 363 361 361 360 356 354 354 353 353 352 352 351 352 351 352 353 356 357 357 355 357 358 362 361 360 359
356 361 361 361 358 360 360 359 359 359 359 360 361 361 361 362 363 363 363 361 361 361 357 356 356 357 357 356 355 353 355 355 354 354 354 353 357 359 361 361 360 358 356
361 361 360 363 362 359 363 361 362 362 362 362 362 362 363 363 364 365 365 364 363 363 361 358 357 357 356 354 354 354 352 351 352 353 354 359 360 361 360 359 357 355 354
357 363 364 362 365 362 364 364 364 364 363 363 363 363 363 364 363 364 365 365 365 363 363 357 358 358 357 356 356 360 360 354 355 358 360 361 361 358 358 354 354 352 353
352 361 365 362 365 365 364 361 366 366 365 365 364 364 364 363 364 363 363 365 364 362 359 356 356 357 357 356 356 357 360 361 361 359 360 360 358 355 353 353 352 343 341
348 360 365 363 365 366 365 360 355 357 365 366 366 365 364 364 362 363 363 362 362 363 358 356 357 357 357 358 356 356 362 363 363 362 359 355 353 352 349 346 343 342 342
347 358 365 364 364 365 365 363 358 350 352 355 360 364 362 360 359 357 355 356 355 354 355 356 357 359 359 359 361 361 360 358 356 353 352 349 343 343 343 340 339 338 337
344 351 359 364 364 364 365 362 354 352 352 354 353 357 359 359 361 362 362 359 352 355 357 355 354 351 348 348 346 347 349 348 349 344 341 340 340 340 339 338 337 336 334
342 346 353 358 360 362 363 362 353 353 353 346 347 351 353 355 355 357 356 358 357 356 352 350 349 347 345 342 343 342 340 340 339 339 338 338 337 336 335 334 334 334 334
338 341 350 354 355 358 358 357 358 356 350 347 345 344 346 349 349 350 347 346 347 346 345 346 341 339 340 338 338 339 337 336 335 334 333 333 333 332 332 332 331 331 329
335 335 339 337 336 340 343 343 340 338 338 338 339 341 344 344 343 343 340 338 339 341 341 340 339 337 337 338 336 335 333 331 328 327 327 327 328 328 328 331 328 326 325
334 330 329 329 329 331 331 334 336 338 338 336 333 331 332 331 332 331 330 331 333 334 332 330 331 328 328 329 329 329 327 324 323 323 324 325 323 324 324 325 324 323 323
330 325 323 321 320 320 320 320 321 325 327 329 328 326 326 327 328 327 325 325 324 324 323 322 319 320 320 320 319 319 318 318 319 318 319 319 317 316 319 319 320 321 323
315 313 318 317 315 313 313 313 313 314 315 316 318 318 318 319 320 320 319 317 315 313 312 312 311 312 311 308 306 305 307 308 304 305 308 312 307 309 311 311 311 311 313
305 305 305 304 304 306 306 304 305 305 306 307 308 313 314 314 315 313 311 310 309 308 304 301 300 299 296 295 295 295 296 299 302 304 304 304 305 304 302 302 303 306 305

GFSGL_925_thetae_060.txt.gz
Theta_e
349 348 346 345 347 343 342 344 347 351 353 353 352 350 352 350 352 351 351 351 351 351 351 352 351 353 353 350 351 352 354 353 347 348 347 349 349 349 355 354 353 353 353
350 350 348 345 345 346 343 342 343 345 349 349 346 351 353 351 350 353 352 353 352 353 351 352 353 354 355 354 353 352 350 351 353 352 353 354 354 353 351 353 356 353 354
348 350 350 348 345 345 347 344 342 342 345 350 354 351 353 352 352 352 353 353 354 353 353 354 353 352 353 356 356 356 354 354 359 359 358 355 353 350 356 358 355 350 347
348 349 350 351 347 344 345 347 345 344 342 343 348 354 353 352 353 352 352 353 352 352 352 352 355 355 353 351 352 352 353 354 354 354 354 354 356 357 360 357 358 352 349
350 350 349 351 351 348 344 345 345 344 344 341 341 348 354 353 352 351 351 350 351 351 350 352 352 356 357 355 356 355 355 356 356 357 358 359 360 361 360 357 353 352 353
353 352 352 350 352 351 349 345 345 343 344 344 341 341 350 354 353 353 352 351 350 351 351 352 353 351 351 355 356 356 355 357 357 358 358 360 360 357 353 353 353 354 354
354 354 354 354 352 352 351 350 346 345 342 346 349 347 354 354 355 353 352 352 352 351 350 354 355 354 354 353 353 357 358 357 357 357 357 357 356 354 354 355 356 355 355
350 355 355 356 355 353 352 351 350 349 346 342 348 351 350 355 355 355 354 353 353 353 351 352 354 354 354 355 355 354 353 355 356 356 355 355 354 355 357 358 356 356 356
348 348 353 357 356 354 353 352 352 352 352 347 347 353 354 353 352 352 353 355 356 356 354 352 351 351 350 354 357 357 356 355 350 353 357 358 360 358 354 357 356 356 357
341 347 347 349 356 355 355 354 353 352 353 353 350 349 354 357 357 356 354 355 357 356 356 355 354 354 353 351 353 354 356 355 354 353 353 352 352 355 356 359 358 357 356
337 338 343 341 349 356 356 355 355 354 353 354 354 353 353 354 354 355 355 357 356 354 353 353 353 353 353 352 352 354 354 351 352 354 356 355 352 356 359 356 355 357 358
337 338 340 341 349 354 356 356 355 355 354 353 355 356 355 355 356 357 357 357 357 357 355 353 353 352 351 351 351 351 350 350 350 351 351 352 353 355 354 357 358 361 360
343 352 348 351 354 354 355 356 356 355 356 355 354 354 356 356 357 358 358 357 357 359 357 355 354 353 352 352 351 351 352 353 354 351 352 353 353 353 354 357 360 360 359
338 346 353 356 357 355 355 356 357 356 356 356 356 356 356 357 358 359 360 361 360 360 360 359 358 356 355 355 355 355 355 354 351 350 351 352 353 353 358 360 360 358 354
336 341 349 357 357 357 356 357 357 357 356 356 356 357 357 358 358 359 360 360 361 361 361 357 356 356 356 356 356 355 354 355 354 351 349 351 353 358 359 359 357 354 354
329 336 347 357 359 360 357 358 358 358 357 357 357 357 358 359 359 360 360 362 362 362 358 354 354 354 353 354 354 355 356 356 356 356 354 355 359 360 359 356 353 354 350
325 330 338 350 360 360 362 357 355 355 360 360 359 359 360 361 361 361 362 362 362 363 358 355 355 355 355 355 356 356 356 356 356 356 356 358 359 357 352 351 350 344 341
323 328 333 345 356 361 362 362 357 357 355 358 362 362 362 362 363 363 362 363 360 355 356 357 356 356 356 356 356 356 355 356 358 355 353 353 351 347 344 345 345 341 338
319 324 334 344 351 361 363 363 360 356 357 359 356 360 364 364 364 363 362 360 358 353 352 355 355 356 357 357 356 356 355 353 351 339 337 341 340 340 340 338 337 336 335
319 324 335 340 349 358 362 362 359 353 353 350 350 353 357 357 358 358 354 353 354 352 351 352 355 356 356 355 351 345 337 336 334 332 334 344 340 338 338 337 336 334 334
318 323 334 342 351 355 357 358 356 353 351 347 347 347 350 352 351 350 348 352 351 350 349 351 349 349 347 344 342 340 339 339 339 339 340 337 335 335 334 333 332 332 331
319 323 334 337 344 350 352 355 352 350 342 338 339 341 343 344 345 344 343 343 343 344 344 345 342 341 341 339 338 338 336 336 335 334 334 332 332 332 331 331 330 328 325
323 328 327 327 332 338 340 340 340 339 337 337 340 342 344 343 340 335 336 337 339 339 338 338 336 334 334 336 335 333 331 328 327 327 327 325 325 326 328 329 326 324 322
322 320 318 319 320 322 325 326 330 332 331 330 331 330 329 331 331 330 327 327 330 330 329 328 325 323 321 321 321 321 320 319 320 321 322 321 318 320 321 321 318 320 322
307 306 308 310 308 307 308 313 315 319 316 318 318 319 319 319 316 314 316 315 318 312 309 308 307 307 308 307 307 307 306 309 310 311 316 315 311 311 311 309 309 310 309
302 301 302 303 303 305 304 302 303 304 305 305 306 308 310 310 308 306 304 303 301 300 302 299 297 298 299 300 299 300 301 303 304 305 305 305 305 304 303 303 304 304 303

GFSGL_925_thetae_063.txt.gz
Theta_e
346 345 345 344 343 341 344 345 345 350 352 352 351 351 351 353 352 350 350 350 349 347 351 352 350 348 350 352 348 351 351 353 348 350 350 350 351 353 352 350 356 354 350
346 345 345 344 344 343 341 342 344 344 348 352 352 352 351 352 352 350 350 350 351 350 351 351 350 351 351 354 353 352 353 350 351 350 352 354 354 351 350 353 356 354 356
346 346 345 344 344 343 342 341 342 343 343 345 347 351 352 350 351 351 350 351 351 351 351 353 352 351 353 353 354 355 354 354 355 357 356 353 352 351 354 356 357 353 346
347 348 347 345 344 344 341 341 340 341 341 342 343 347 350 348 350 351 351 350 351 352 352 351 352 352 353 353 351 352 353 352 353 354 354 354 355 355 358 357 354 351 354
345 347 348 348 346 344 344 342 339 339 340 340 343 343 348 354 353 351 350 351 351 351 352 352 350 350 351 354 354 353 354 355 355 355 355 355 355 355 356 356 353 353 355
347 346 347 348 348 347 345 344 343 340 339 340 341 343 343 345 352 352 350 352 352 351 351 350 350 349 350 349 353 356 356 356 355 356 356 356 356 355 354 354 353 353 353
348 347 347 348 348 349 348 346 344 344 343 342 340 341 343 343 342 348 352 352 351 351 350 350 350 348 349 352 351 351 351 354 357 357 357 357 356 354 354 354 354 354 354
350 350 349 349 348 349 350 349 347 345 345 344 343 342 341 343 340 339 343 351 352 351 351 350 350 350 349 352 353 353 354 353 352 352 354 355 355 357 356 357 357 355 355
342 348 352 352 352 350 350 350 349 347 346 346 344 343 344 343 343 340 342 352 353 353 352 352 351 351 351 350 353 353 353 354 353 353 354 351 350 351 354 356 355 354 354
344 344 346 352 353 353 352 351 350 350 349 348 347 345 344 345 345 344 344 351 354 354 354 353 351 350 351 352 352 352 352 352 351 349 351 351 351 353 356 355 355 356 356
345 340 338 342 348 354 354 353 352 351 351 351 351 349 346 347 348 348 348 349 350 352 351 351 350 346 348 351 352 353 353 351 351 350 352 352 351 350 350 351 357 358 355
347 348 344 341 340 341 347 354 353 353 351 351 351 352 351 349 348 350 351 352 352 352 352 351 349 348 345 347 350 350 351 352 353 354 354 352 350 350 350 351 354 354 357
337 340 342 344 350 345 341 348 354 354 353 352 352 352 352 353 352 351 351 352 352 355 353 353 353 351 349 350 351 351 351 351 352 353 350 350 352 353 352 353 353 357 359
332 334 337 341 345 352 353 352 351 354 355 354 354 353 352 353 354 353 354 354 355 354 355 355 355 355 355 354 354 354 352 352 351 350 351 354 351 349 350 352 355 358 359
330 331 333 337 343 352 355 355 354 354 355 355 354 354 353 352 353 355 355 355 355 356 356 354 354 355 355 355 354 354 354 354 353 353 351 350 350 349 351 353 358 359 356
326 330 331 332 337 346 354 355 355 355 355 355 355 355 355 355 354 354 355 356 356 356 355 353 352 353 353 353 353 352 354 355 354 353 354 354 352 351 353 357 357 355 353
322 327 330 330 333 338 348 357 354 353 356 356 356 355 355 355 355 355 356 356 357 358 356 354 354 353 353 352 353 352 352 354 355 355 355 355 354 354 357 355 353 351 349
320 320 330 329 329 335 343 353 358 355 354 351 355 356 356 355 355 356 357 357 357 355 354 356 354 354 353 353 353 353 354 354 355 355 354 353 354 355 352 351 350 348 342
317 319 324 327 328 333 340 347 357 358 356 355 354 354 356 356 356 357 358 357 355 352 352 354 354 355 355 356 356 355 356 356 356 355 354 354 354 350 348 346 344 345 340
316 319 321 326 326 330 338 346 355 359 357 357 354 353 353 353 352 355 358 359 356 356 355 354 353 354 354 355 355 355 355 354 353 354 352 347 343 342 339 337 337 336 336
315 317 320 322 325 331 338 347 354 357 355 355 354 353 355 354 351 353 351 352 355 352 351 351 351 351 351 351 351 351 350 347 345 342 336 335 337 338 339 338 337 336 334
315 317 319 322 326 335 339 346 353 354 353 351 350 350 351 350 349 351 350 348 349 349 349 349 348 346 346 345 344 344 343 340 338 337 336 336 338 337 335 334 333 332 331
316 319 321 325 329 333 338 344 348 350 348 346 345 344 341 342 341 339 338 339 340 340 340 341 341 339 340 341 341 340 339 339 338 337 337 336 334 332 331 331 331 327 325
311 314 319 319 323 325 329 332 336 340 340 340 339 338 335 330 327 324 320 319 320 322 323 327 328 332 333 331 330 332 333 332 330 329 327 326 326 327 328 328 326 324 322
304 305 305 307 307 310 311 312 315 318 320 322 322 320 317 318 313 310 309 307 307 303 302 303 306 310 311 312 316 315 316 319 321 322 321 321 321 321 321 319 318 318 316
299 299 299 301 302 304 303 303 305 307 307 309 310 309 308 304 301 301 299 299 298 297 297 297 298 299 300 301 302 305 305 306 310 311 308 309 309 308 309 308 307 306 305

GFSGL_925_thetae_066.txt.gz
Theta_e
345 345 345 344 344 342 342 345 346 346 347 348 349 351 350 349 348 351 349 348 349 349 348 348 348 347 347 350 351 350 350 351 349 350 350 350 352 352 349 348 354 355 352
344 345 345 344 344 344 341 341 344 345 345 349 351 351 351 350 350 349 350 348 348 349 349 349 350 351 351 350 353 352 352 352 350 351 352 352 350 348 349 352 354 349 348
344 344 345 344 344 344 344 341 341 343 345 344 346 351 351 351 352 351 352 350 349 349 350 350 350 351 350 351 353 352 354 354 353 353 354 352 352 352 351 351 349 350 352
345 345 344 344 344 344 343 342 342 340 341 344 344 344 346 347 349 350 349 351 350 349 349 350 351 351 352 352 352 352 351 352 352 352 353 353 354 353 353 353 352 352 353
345 346 345 344 344 344 343 343 342 342 340 339 343 342 343 343 346 349 349 350 351 350 349 348 349 350 350 350 350 353 353 353 353 354 353 353 354 354 354 354 354 353 355
344 344 346 346 345 344 344 343 343 343 341 341 339 339 340 342 342 345 349 352 351 351 350 350 350 349 349 349 349 350 352 355 356 355 354 354 355 355 355 354 353 352 355
342 344 345 346 347 346 346 344 344 343 343 342 341 340 339 339 341 342 342 347 352 351 350 350 350 349 349 349 347 348 351 350 351 352 354 355 355 354 353 355 354 353 353
342 345 345 345 346 347 347 346 345 344 343 343 343 342 340 338 337 338 340 342 343 349 351 351 351 350 349 349 349 349 349 351 351 352 353 352 351 352 354 355 355 354 354
344 343 348 346 346 346 347 348 347 345 344 343 344 343 343 342 340 336 337 341 342 341 342 344 348 350 350 350 351 350 351 349 349 349 352 352 352 352 353 353 352 351 355
344 346 343 347 349 348 347 348 348 348 346 345 345 345 345 345 345 346 344 343 344 343 343 342 344 349 350 349 351 350 352 350 350 350 349 349 349 349 351 351 353 353 355
336 341 344 339 341 351 350 349 349 349 348 347 346 346 346 347 346 347 346 345 346 345 345 346 345 341 347 348 347 348 348 347 350 351 351 352 351 351 352 351 350 352 354
333 332 335 342 343 340 348 353 351 350 349 349 349 348 348 348 348 348 348 347 346 347 346 347 347 346 342 341 345 343 343 348 352 352 352 351 351 351 351 350 350 350 352
330 331 331 333 338 343 346 341 353 353 352 351 350 350 351 350 349 350 350 350 349 347 348 347 347 346 347 348 347 347 347 349 350 349 349 349 349 349 349 350 351 351 353
329 331 332 332 336 338 343 348 344 350 353 352 351 351 351 351 351 351 350 349 350 350 350 350 351 351 351 351 352 352 352 351 351 350 349 350 349 349 350 352 349 351 353
327 329 330 331 332 335 341 346 350 347 349 353 353 353 352 352 352 352 352 351 351 351 350 349 351 351 352 352 352 353 353 353 353 353 351 350 350 351 351 350 348 351 355
323 324 327 330 331 332 335 340 348 353 354 351 353 354 353 353 352 352 352 353 353 353 349 349 350 351 351 351 352 353 351 351 353 354 353 352 351 351 351 351 349 353 356
319 319 321 325 327 330 331 334 341 346 354 354 353 354 354 354 354 353 353 352 353 353 351 351 351 352 352 351 352 352 352 351 350 350 351 351 353 351 351 351 351 354 354
315 314 316 319 323 327 330 334 339 343 352 353 355 354 354 354 354 354 354 353 352 352 352 353 354 354 354 352 351 352 352 352 351 351 351 351 352 352 352 352 352 352 352
310 312 315 318 323 325 328 330 334 336 343 353 355 354 354 354 354 354 353 354 352 350 349 351 354 356 355 353 352 353 352 353 352 352 352 352 352 352 353 353 352 349 344
309 311 313 315 319 322 325 328 332 337 342 350 356 354 353 350 350 351 352 353 352 353 353 350 351 354 355 354 352 353 354 353 352 352 353 352 352 351 350 347 347 341 340
309 310 314 316 318 321 325 327 331 334 340 348 352 356 357 354 352 352 347 347 348 351 355 354 352 352 353 354 354 351 350 352 352 352 351 350 348 344 344 342 341 340 339
309 311 312 314 318 320 323 328 331 334 339 345 351 355 354 352 353 351 352 351 348 348 350 351 352 353 353 352 352 351 349 347 346 347 345 342 341 338 335 336 338 337 335
310 311 312 313 317 319 321 326 332 335 338 343 350 352 352 350 347 347 347 346 344 343 344 345 347 347 346 347 347 348 347 345 343 341 339 338 336 336 337 337 336 334 332
307 309 310 314 320 320 322 327 329 334 337 341 345 344 342 339 338 334 332 330 329 328 327 330 328 331 332 334 335 335 336 336 337 338 338 338 337 335 334 333 332 330 328
302 303 304 305 307 308 309 311 316 323 330 336 335 331 328 325 320 318 318 316 314 314 313 313 315 317 316 316 318 322 322 325 324 323 325 328 330 330 329 329 329 326 322
299 299 299 299 300 302 302 303 304 308 312 313 312 310 307 306 304 303 303 304 305 304 302 303 305 305 305 304 305 308 311 313 313 314 316 315 316 314 313 315 315 313 312

GFSGL_925_thetae_069.txt.gz
Theta_e
347 347 346 346 347 347 347 345 346 345 347 348 347 349 350 349 350 350 351 351 352 353 350 352 353 352 350 351 352 353 353 352 352 351 353 354 352 356 352 351 355 356 350
347 347 347 345 345 347 346 345 344 347 346 346 347 349 353 352 352 352 348 353 353 353 353 353 352 352 355 355 353 356 354 355 354 354 354 354 356 355 355 357 354 351 354
346 346 347 347 347 347 347 344 343 344 347 348 346 350 351 352 351 350 351 349 354 353 353 354 353 354 355 354 355 355 355 356 357 356 355 355 355 355 355 354 356 357 353
346 345 346 345 346 347 348 347 344 342 342 347 347 346 349 352 353 354 353 355 356 355 354 354 354 354 355 357 356 356 356 356 355 357 354 354 354 355 356 355 353 353 355
346 347 347 347 345 344 345 347 346 346 344 341 346 348 348 351 352 353 354 354 354 355 355 355 353 352 350 352 353 354 356 357 355 354 354 353 353 353 353 354 355 355 354
343 347 347 348 348 347 346 344 347 347 345 345 346 346 348 348 347 346 346 354 355 355 355 355 354 349 347 347 348 348 351 355 356 355 353 353 355 355 354 355 355 356 354
344 343 346 348 349 348 347 347 347 347 347 347 346 346 344 344 345 344 343 349 353 355 355 355 355 353 350 353 351 348 348 347 349 352 354 354 353 354 356 356 356 357 355
346 344 345 347 348 349 349 348 347 347 347 347 348 347 345 344 341 339 339 342 350 352 353 353 354 354 355 353 354 354 354 353 351 349 351 354 355 357 358 357 358 357 355
339 346 347 347 348 349 350 350 349 349 348 347 348 348 347 345 343 340 338 343 346 350 350 351 352 352 346 343 350 354 354 354 351 351 349 350 348 349 353 354 354 353 351
328 337 343 347 346 351 350 350 350 351 349 349 348 348 348 347 345 344 343 344 344 345 347 349 348 346 345 339 341 352 354 352 352 351 354 351 350 349 349 350 353 353 351
323 336 336 339 344 344 347 353 352 352 351 351 350 349 348 348 347 346 347 345 346 347 346 345 344 344 338 338 337 348 351 349 350 352 352 353 354 355 355 353 351 353 352
321 331 332 334 338 343 345 345 352 352 352 353 352 352 351 350 347 347 349 348 347 348 350 349 348 344 341 339 338 338 342 346 349 348 348 351 352 352 352 354 356 356 354
318 328 329 331 335 338 343 346 346 348 353 353 354 354 354 354 352 350 348 351 349 346 349 350 349 348 345 344 343 343 342 346 348 348 348 348 350 351 353 354 354 355 355
314 322 326 328 332 335 337 342 345 346 349 353 354 354 354 355 355 354 351 348 349 347 346 348 349 348 347 347 348 347 348 348 349 348 347 347 350 352 352 352 352 354 356
314 319 325 325 329 333 335 337 344 348 348 348 351 353 353 354 354 354 355 352 349 347 346 348 350 350 350 351 351 351 351 350 349 350 350 350 351 352 353 353 354 355 355
316 318 323 323 326 330 333 334 334 335 341 348 350 350 352 353 353 354 353 352 351 350 347 351 352 352 352 351 352 353 352 352 351 350 350 351 351 352 353 355 355 355 355
316 320 320 322 323 325 329 333 333 333 336 337 345 353 352 349 352 354 353 352 351 351 350 352 353 353 352 352 353 353 353 352 353 351 350 351 352 352 354 355 356 356 356
312 315 317 318 320 322 324 330 333 334 336 337 341 349 353 354 353 352 354 352 349 349 351 353 354 353 353 354 354 354 353 355 355 354 352 351 352 353 354 355 356 357 356
309 311 313 315 316 318 320 323 330 332 333 334 336 340 346 349 354 352 351 351 351 352 346 351 353 355 354 355 356 355 355 353 352 354 355 354 354 354 355 356 357 356 357
306 309 310 313 315 316 319 320 324 329 331 333 335 339 347 352 352 349 347 348 351 355 355 353 352 355 354 355 356 356 355 354 352 353 353 352 352 353 354 355 355 354 352
305 306 309 311 313 315 316 318 322 326 331 332 334 337 346 352 352 347 343 342 347 353 356 356 355 354 354 356 356 356 355 354 354 353 352 353 352 351 352 352 350 349 348
306 307 308 309 311 313 315 318 320 324 329 332 333 333 340 346 350 353 351 349 348 349 354 356 356 355 354 354 355 355 354 354 353 352 352 351 350 349 349 347 344 345 343
305 307 308 309 311 312 314 316 318 321 325 331 334 335 339 342 347 351 352 352 349 347 348 350 351 353 353 353 353 353 353 352 351 350 348 347 346 345 343 344 343 341 341
304 306 307 309 310 312 314 316 318 320 322 328 333 335 338 343 344 344 343 342 341 338 337 336 340 341 343 343 343 343 345 345 345 345 343 342 343 341 341 340 339 339 338
300 302 303 306 308 309 311 311 314 316 318 320 326 332 334 334 330 326 323 321 317 318 319 319 320 322 322 324 326 331 333 335 337 336 335 334 335 334 336 333 331 329 329
298 299 299 300 301 303 305 305 307 308 310 312 314 316 319 316 313 310 309 308 308 306 305 304 305 307 309 309 310 313 316 319 324 328 328 325 324 322 322 321 319 317 315

GFSGL_925_thetae_072.txt.gz
Theta_e
352 352 352 352 352 353 352 352 352 351 352 354 354 354 354 353 354 356 353 352 355 353 350 351 353 353 349 348 350 350 350 350 349 348 351 353 358 358 357 356 352 351 347
351 352 352 352 351 350 352 351 352 352 352 354 354 353 354 354 355 356 353 351 352 352 353 352 352 350 354 353 351 351 349 351 351 350 350 353 355 356 356 357 354 350 352
351 351 351 352 351 351 350 351 350 351 351 352 354 354 353 353 357 357 354 353 355 354 354 353 354 352 352 349 353 350 350 352 353 353 352 351 352 354 355 353 354 354 350
350 350 350 350 350 351 351 351 351 351 351 351 353 354 354 351 353 355 356 354 354 354 355 355 353 353 354 355 354 355 355 354 351 353 352 351 351 352 353 352 350 349 352
349 350 350 350 351 351 351 352 352 352 351 351 350 351 353 354 351 353 356 356 356 355 356 357 355 352 353 355 354 354 355 355 352 351 351 351 351 351 353 349 350 349 350
347 348 350 351 351 352 352 351 352 352 352 352 351 349 349 349 349 351 354 356 356 356 356 357 356 354 352 349 346 345 349 355 355 355 352 351 353 354 351 350 350 349 351
333 347 348 349 351 352 353 353 352 351 351 352 352 351 350 349 345 348 348 350 351 354 355 355 356 353 354 354 353 348 348 348 348 351 353 352 351 352 353 355 353 353 353
326 336 346 346 348 351 352 352 353 353 353 353 353 353 352 351 349 345 345 349 349 350 352 354 355 352 352 355 354 353 353 353 352 350 351 352 352 352 354 355 355 356 354
320 324 335 337 349 350 350 352 352 352 353 353 353 353 353 353 351 348 345 346 345 348 350 351 354 354 354 352 353 352 352 352 350 351 350 350 352 351 349 350 349 347 345
314 318 323 335 336 345 348 350 350 351 352 353 353 353 354 354 353 351 347 347 347 345 345 349 351 352 353 353 355 353 352 349 348 347 350 351 351 352 348 350 351 349 344
316 316 318 329 333 331 340 348 349 352 351 353 353 353 354 354 354 353 351 348 348 348 347 344 343 345 347 347 352 353 352 347 344 346 347 347 346 350 355 355 353 352 346
318 317 316 320 331 329 336 339 348 349 353 354 354 355 355 355 354 353 352 350 348 349 350 349 349 348 346 345 345 344 347 347 342 339 339 340 341 343 345 348 353 356 354
315 317 318 317 322 328 331 337 338 347 349 354 354 354 355 355 356 355 353 351 349 347 350 352 352 352 351 350 347 345 344 345 344 340 340 340 340 340 343 346 351 355 358
313 315 317 318 319 324 327 329 334 338 344 348 352 355 354 355 356 357 356 353 351 348 347 347 350 351 351 351 350 348 346 347 345 344 342 341 342 341 342 345 349 350 352
312 313 316 318 319 322 325 327 331 335 340 344 349 351 354 355 355 356 357 358 356 351 348 350 351 351 352 352 351 350 350 349 348 348 348 347 345 343 342 344 347 349 349
310 312 315 318 319 320 322 324 326 331 333 332 335 345 348 352 352 353 354 354 354 354 350 351 353 354 354 354 352 351 351 351 351 351 350 349 348 345 344 345 347 348 350
308 310 313 315 320 321 322 323 324 326 329 332 332 332 335 347 350 350 351 353 353 353 352 353 355 355 356 356 356 355 353 351 351 351 350 350 348 347 346 346 347 349 352
306 307 309 312 315 318 321 321 323 325 328 330 332 334 336 340 342 350 352 350 347 351 351 352 353 356 356 358 357 357 356 356 355 354 353 352 351 350 349 349 349 351 352
305 307 308 311 314 315 317 318 320 322 325 329 331 332 332 334 337 342 348 349 350 351 350 351 352 354 357 357 357 357 357 358 358 357 357 356 355 353 352 351 351 351 352
303 305 307 308 310 313 316 318 319 320 322 325 328 330 331 334 340 346 346 346 345 352 354 354 354 354 355 356 358 358 359 360 358 357 357 358 357 358 358 356 356 356 356
302 304 305 307 310 311 313 316 318 319 321 323 326 328 330 333 338 343 350 347 345 350 353 355 355 357 356 356 357 358 358 359 358 358 357 356 356 356 355 355 356 356 357
302 304 305 306 307 309 311 313 315 318 321 323 324 327 329 332 333 335 339 348 349 348 350 354 357 357 357 359 358 357 357 358 359 357 357 356 355 355 355 354 354 353 352
302 303 305 306 307 308 309 311 312 315 319 321 323 326 328 332 334 336 339 343 352 350 349 349 350 354 356 356 357 357 357 358 357 357 356 355 354 353 352 350 349 348 348
302 303 304 305 307 308 310 311 312 313 315 320 322 325 327 329 331 336 340 343 345 346 346 343 343 344 346 349 351 351 350 351 353 351 353 352 350 349 347 346 346 346 347
297 299 301 302 303 305 307 309 311 313 315 318 320 323 327 328 328 334 334 334 335 332 331 332 329 330 335 338 338 337 337 339 342 342 342 343 342 343 343 344 345 343 342
293 295 297 299 300 301 303 305 308 310 312 314 317 319 320 320 322 324 325 323 322 320 318 317 316 316 317 320 321 320 322 326 328 331 334 335 337 334 333 333 329 326 324

GFSGL_925_thetae_075.txt.gz
Theta_e
355 355 355 356 356 356 354 353 353 351 353 353 356 355 355 354 353 354 355 353 353 352 351 350 354 352 351 347 346 347 348 349 349 347 349 353 359 357 358 359 357 354 352
353 355 355 355 355 355 356 354 354 354 352 352 355 355 355 355 355 355 354 350 353 353 352 351 351 351 354 351 352 350 350 352 352 355 351 350 351 354 356 357 355 352 352
351 353 354 354 355 355 354 355 354 354 354 351 354 354 354 354 355 356 355 354 354 353 353 352 352 353 352 352 352 349 350 353 352 353 353 351 350 351 353 354 354 353 353
350 352 353 355 355 355 355 354 355 354 354 353 352 354 356 353 353 356 356 356 355 355 355 353 353 353 354 354 354 354 352 353 351 351 350 350 350 350 352 353 351 348 349
344 351 353 354 355 354 354 355 355 355 354 354 353 353 354 354 351 353 354 354 355 356 355 355 354 353 353 354 354 354 352 355 352 350 349 349 349 351 354 355 351 349 350
334 343 352 353 353 355 355 355 355 355 355 355 354 353 352 351 349 350 352 354 354 356 356 357 357 354 352 351 352 352 353 357 359 356 353 352 357 353 351 351 351 349 348
324 331 338 347 352 351 354 354 355 356 356 357 356 355 354 353 348 347 350 350 354 357 356 357 356 351 353 355 353 346 341 341 344 349 355 356 354 353 352 355 352 355 354
320 321 325 331 342 348 351 352 354 355 355 355 356 357 357 356 353 349 346 348 351 351 353 356 356 355 355 357 356 356 356 354 350 348 348 348 350 352 353 354 356 358 356
319 319 317 325 333 338 342 350 353 354 354 355 355 356 357 358 356 353 350 347 347 351 352 351 353 356 357 352 355 357 356 356 351 351 352 351 350 350 349 352 351 347 346
321 321 320 319 326 335 336 337 345 352 355 355 355 355 356 357 358 356 354 351 349 349 350 351 350 351 353 356 355 355 357 356 356 348 351 351 351 351 350 350 352 352 348
321 321 322 322 320 326 332 334 339 344 350 354 355 355 354 355 357 356 356 354 352 351 350 350 349 348 345 349 352 356 357 357 356 352 350 347 345 349 354 355 355 354 351
319 319 320 321 323 320 324 331 333 339 342 354 355 355 354 354 355 356 356 355 354 353 352 350 349 348 346 344 344 345 346 352 353 351 348 343 342 343 342 342 349 353 355
317 317 318 319 321 323 322 327 330 334 337 340 352 353 354 354 353 356 355 355 354 353 353 352 351 351 351 350 347 345 345 347 349 351 350 347 342 339 339 339 340 350 354
313 314 315 317 318 320 322 321 324 326 332 335 343 347 352 354 354 355 356 356 355 353 352 351 350 351 351 352 352 352 350 347 349 350 350 349 345 341 341 342 343 342 345
311 311 312 315 316 318 320 322 322 324 329 332 335 341 341 340 354 353 352 350 354 353 351 353 352 351 351 352 354 354 355 353 350 350 351 350 347 345 344 343 343 343 346
308 309 311 312 314 316 319 322 322 323 323 323 325 328 330 332 333 334 346 348 349 352 354 353 354 355 356 355 356 356 356 355 354 353 352 351 350 349 349 349 346 345 346
306 307 308 309 311 314 316 319 323 324 324 323 323 325 327 329 330 330 331 333 345 347 348 355 356 355 356 357 356 356 356 354 353 352 353 354 353 352 352 351 350 348 348
304 305 306 307 308 310 313 316 318 321 323 324 325 326 328 331 332 333 335 342 340 342 346 351 355 356 357 358 357 357 358 357 355 355 355 354 353 353 353 352 351 350 349
302 304 304 306 307 308 311 314 317 318 320 321 323 324 325 329 332 332 332 335 340 344 349 352 351 355 356 357 358 359 359 359 359 360 359 358 357 356 355 354 352 351 351
301 302 304 304 305 306 309 311 313 317 318 320 321 322 323 327 331 336 334 336 342 344 343 351 353 353 355 356 358 358 359 360 359 357 357 357 358 357 356 356 355 355 356
301 301 302 303 304 306 308 309 312 314 317 319 320 321 322 323 327 332 334 340 342 346 345 349 354 355 356 357 357 358 358 359 359 359 359 358 359 359 360 359 358 357 357
300 301 301 302 303 304 306 308 309 312 314 316 319 320 321 321 323 327 331 334 335 341 348 347 351 354 354 355 356 357 357 358 359 360 359 359 357 357 359 358 358 357 357
300 300 301 302 303 304 306 307 308 309 311 313 315 317 320 321 323 326 330 333 334 336 345 351 349 351 351 350 354 356 358 359 360 358 361 359 357 356 357 357 356 354 354
298 298 298 299 300 303 305 307 307 308 309 311 313 315 317 321 322 323 326 330 336 338 342 342 343 345 348 348 348 349 350 351 353 354 354 355 357 357 356 354 353 352 351
295 294 295 295 298 300 301 302 304 305 308 311 313 313 316 319 322 323 328 329 331 335 336 335 337 335 337 339 339 337 340 342 347 347 348 348 346 347 349 348 348 347 347
293 293 294 293 294 295 297 298 300 301 303 307 310 311 313 316 319 322 325 321 321 324 326 329 330 326 324 325 328 326 328 334 337 336 333 334 336 339 339 337 336 334 331

GFSGL_925_thetae_078.txt.gz
Theta_e
359 358 358 359 359 356 354 354 349 353 354 349 342 350 353 352 352 353 350 351 350 347 351 352 349 351 345 352 353 351 347 349 355 352 352 355 352 351 354 356 355 354 353
358 358 358 359 358 359 357 355 354 352 353 353 351 353 352 354 354 352 352 354 352 353 348 348 351 353 350 349 349 350 349 349 349 353 352 348 348 351 355 355 355 353 354
353 358 358 358 358 359 358 357 356 356 355 354 351 355 354 353 353 353 352 353 351 353 354 353 350 352 352 351 351 354 352 354 351 351 350 353 353 351 351 351 354 351 353
344 351 355 358 357 357 357 357 356 356 357 355 353 355 352 354 354 354 353 353 353 353 353 353 354 353 353 352 352 352 352 354 352 352 351 349 349 350 352 353 354 351 347
337 343 347 344 356 357 355 355 356 356 356 357 356 354 355 353 355 353 355 354 351 350 353 355 355 356 354 354 354 355 355 353 355 354 353 353 352 356 355 354 353 355 352
329 334 339 346 348 353 353 354 355 355 355 356 357 356 355 357 353 352 352 356 356 356 352 352 356 354 356 352 352 353 354 354 354 356 359 358 354 356 354 353 352 352 351
320 321 328 336 342 348 353 355 355 355 355 356 357 358 357 355 353 348 349 352 355 357 355 353 354 354 356 354 352 351 348 344 348 349 349 352 353 344 347 351 355 354 357
322 322 321 321 331 338 344 347 352 353 354 355 357 358 359 358 356 352 350 348 351 351 352 356 355 354 352 355 358 358 355 352 349 345 342 341 340 339 341 347 349 354 356
325 324 324 322 319 328 339 338 340 348 352 353 353 355 358 359 359 357 355 352 350 349 352 351 351 356 356 353 350 353 359 359 359 356 355 352 350 348 348 351 353 353 352
323 323 323 324 325 323 322 331 333 338 343 350 352 353 354 356 359 359 357 356 354 352 350 349 351 352 349 354 359 356 355 353 357 359 356 352 351 352 352 353 352 354 354
321 321 322 322 323 324 323 322 331 333 336 342 347 351 352 354 355 357 358 358 356 355 354 353 352 351 349 349 348 351 357 356 355 355 355 355 354 352 350 349 349 352 353
318 319 320 320 321 322 323 326 322 327 333 339 340 344 351 354 355 354 355 356 357 357 356 355 354 354 351 351 350 347 345 349 353 355 355 355 353 351 349 346 344 348 350
315 316 316 317 317 319 321 324 327 325 331 334 338 339 344 352 354 353 354 353 354 356 356 356 355 353 353 352 351 349 347 345 348 350 351 352 352 351 349 344 340 339 343
313 313 314 314 314 315 317 320 322 324 323 326 330 337 343 347 346 352 352 352 351 351 352 355 355 355 354 352 352 352 352 348 346 348 349 349 350 351 351 349 345 341 340
309 310 311 312 313 315 316 318 321 322 324 325 326 328 329 331 337 335 339 337 337 344 350 350 353 353 353 352 352 352 353 353 350 349 350 351 352 353 352 350 347 343 344
307 307 308 308 310 311 312 314 315 317 318 321 323 322 322 322 323 325 326 327 330 331 341 350 352 355 356 357 355 353 353 355 356 354 352 353 353 353 353 351 349 346 347
305 305 305 306 307 309 310 311 313 314 318 319 321 324 323 324 323 324 326 327 330 332 333 340 350 354 356 355 356 358 357 357 356 357 357 357 355 354 353 351 350 350 352
303 303 303 304 306 306 308 310 312 314 317 319 319 321 324 324 324 324 326 330 331 334 338 339 344 349 351 355 356 355 358 359 359 359 358 356 355 356 357 356 354 354 353
303 303 302 303 304 305 305 306 307 309 311 314 318 321 321 322 323 324 326 329 332 335 337 344 345 348 350 352 355 357 356 355 360 359 358 357 357 357 355 354 353 354 354
303 303 303 303 303 304 305 305 307 308 310 314 315 317 320 321 323 324 328 332 333 335 336 338 340 341 351 353 354 356 357 357 356 356 360 359 358 357 357 356 355 355 354
301 301 301 301 301 302 303 304 306 307 309 310 312 315 317 318 321 324 325 327 331 341 342 344 347 347 349 352 355 356 356 357 357 356 357 360 360 358 356 357 356 356 355
300 301 301 301 301 301 302 303 304 305 306 308 309 310 312 315 317 320 324 324 325 329 333 341 342 346 347 350 353 355 353 353 354 355 356 358 357 357 358 358 359 359 358
298 297 298 297 297 298 299 300 302 304 305 306 307 308 310 312 315 317 318 324 323 323 325 326 337 341 350 350 350 349 349 350 351 352 352 351 352 354 357 359 359 358 358
297 296 296 295 295 296 296 297 299 301 302 304 307 308 308 310 312 314 316 318 322 324 324 334 337 341 343 345 343 344 345 345 345 347 346 344 348 352 353 354 355 356 356
298 296 296 294 294 294 294 294 295 297 299 301 304 305 306 309 311 311 313 317 322 325 328 329 330 334 334 334 335 336 338 342 342 340 342 345 346 348 350 350 352 353 352
299 297 295 294 293 293 293 293 293 294 295 296 298 301 302 303 306 310 311 312 317 321 321 319 318 322 325 328 330 332 334 337 338 340 337 336 337 338 339 340 342 343 343

GFSGL_925_thetae_081.txt.gz
Theta_e
352 353 353 353 352 349 351 350 353 351 350 349 349 346 349 351 353 351 349 351 350 346 347 352 350 350 349 343 344 349 350 351 352 352 351 351 349 345 348 351 353 351 352
352 352 351 355 355 352 350 349 355 351 352 349 345 348 352 351 353 351 351 347 350 350 348 348 349 351 353 351 351 347 352 352 355 351 349 349 351 353 353 351 355 351 352
347 349 353 355 356 353 353 352 354 353 351 353 351 346 350 350 352 353 350 352 352 351 350 350 346 349 347 349 350 348 351 350 352 354 352 354 353 351 348 348 349 351 349
338 344 348 351 353 353 354 356 353 354 354 352 353 352 353 352 354 354 352 351 351 353 351 354 353 351 351 351 349 348 349 350 350 352 351 350 348 350 355 358 356 353 353
340 341 342 344 345 349 350 353 356 356 356 356 354 354 355 353 352 354 354 352 351 351 351 352 352 355 354 354 352 352 351 352 353 354 358 358 358 357 356 354 351 350 350
332 335 343 342 336 338 338 343 353 354 355 355 355 355 353 356 353 351 353 352 353 352 350 349 352 352 355 357 354 353 353 352 355 353 353 354 355 357 354 346 344 345 352
320 329 337 338 339 341 343 344 349 353 354 354 355 357 355 354 354 356 354 354 352 354 353 353 353 351 349 352 351 354 353 351 350 349 351 351 351 347 342 339 338 342 349
325 325 323 323 325 328 339 341 342 346 351 354 354 354 355 357 357 353 351 352 352 354 356 356 355 353 352 351 353 355 355 353 352 352 348 342 341 347 345 343 343 345 349
323 323 324 325 326 323 320 326 334 335 340 346 351 352 353 354 354 357 358 354 353 351 350 351 353 353 354 355 353 354 356 355 353 355 356 356 356 351 351 352 348 351 352
321 321 321 322 321 322 326 326 323 326 332 334 341 346 351 352 353 354 355 354 355 354 353 352 350 349 351 353 353 355 357 356 353 353 357 358 358 356 352 352 352 350 350
316 316 317 318 319 320 320 320 321 325 323 324 327 332 338 346 351 352 353 355 355 354 354 354 353 353 351 349 348 350 351 348 354 356 355 353 352 353 353 352 351 350 351
313 314 314 315 314 315 316 318 320 321 326 324 328 331 334 337 344 348 349 350 354 354 355 354 355 354 354 353 352 351 350 349 350 351 353 354 355 354 354 353 352 351 349
311 312 311 311 312 312 313 314 317 319 321 323 324 325 330 338 338 348 353 354 355 355 354 354 353 354 355 355 353 352 351 350 349 346 347 349 350 351 352 352 352 350 348
308 308 308 310 310 310 311 312 315 318 319 321 324 326 327 325 326 343 338 345 346 338 333 345 350 351 353 355 355 355 354 351 351 349 347 347 347 348 349 350 351 350 349
306 306 306 305 306 307 308 310 311 312 313 313 314 316 318 321 323 323 322 322 323 324 324 326 330 346 350 351 352 353 353 352 352 351 348 346 346 347 348 348 350 350 349
304 304 304 304 303 305 305 306 308 309 310 311 312 314 316 317 320 323 322 323 322 323 327 330 335 343 351 353 353 353 353 353 352 350 349 349 348 349 349 351 351 351 350
303 303 303 303 303 304 305 306 306 307 307 308 311 313 316 317 319 319 321 323 323 324 324 326 329 335 343 353 354 355 356 356 355 352 352 351 351 351 351 351 351 351 350
303 303 303 303 303 302 303 303 304 305 305 306 307 308 308 312 317 320 321 321 321 322 323 327 330 334 338 342 347 351 353 354 354 355 355 353 354 353 353 353 352 351 350
302 302 302 302 303 303 303 303 303 304 305 305 306 307 309 313 315 316 319 319 321 323 326 330 332 334 338 340 342 346 350 354 354 354 354 354 354 354 355 354 354 353 352
301 301 301 301 301 301 301 301 302 303 303 304 305 306 307 310 311 311 313 316 321 323 324 330 333 334 336 339 341 348 351 351 352 354 355 354 353 352 353 353 354 352 353
299 299 300 300 300 301 301 301 301 302 302 303 304 305 305 306 307 308 310 313 316 320 324 325 329 340 342 345 346 347 351 352 353 353 353 354 353 353 353 352 353 352 352
299 297 297 297 297 297 297 297 297 298 299 301 302 304 304 305 305 307 308 311 315 317 317 322 322 323 329 337 340 344 344 347 352 352 350 350 351 351 351 351 351 350 350
299 298 297 296 296 296 295 295 295 296 296 297 299 301 302 304 306 307 308 309 310 311 313 316 319 326 327 334 342 344 345 347 347 346 346 345 346 347 347 344 343 344 344
300 299 298 297 296 295 294 294 294 294 294 294 296 297 298 301 303 304 306 308 309 311 316 316 321 323 326 327 330 337 337 338 337 337 340 341 343 343 340 339 339 339 339
300 300 299 298 296 295 293 293 293 293 293 293 293 294 294 296 298 300 302 307 308 311 312 315 319 320 321 323 325 328 329 330 331 332 333 335 338 340 340 343 346 348 349
301 300 299 298 296 295 293 293 292 292 292 292 292 292 292 293 294 297 299 301 303 304 308 311 312 314 316 319 318 316 316 318 320 323 326 329 332 335 335 335 338 342 344

GFSGL_925_thetae_084.txt.gz
Theta_e
350 350 349 346 348 348 345 350 350 350 349 349 350 350 348 347 351 352 351 349 347 348 344 347 347 350 349 350 348 346 348 350 349 349 348 347 348 349 350 351 350 351 354
347 349 349 347 346 349 350 352 351 352 350 349 349 348 346 349 350 353 351 349 348 350 347 345 347 349 350 352 349 348 349 352 354 353 352 352 353 351 349 349 350 352 351
342 346 347 347 347 347 349 349 350 351 351 349 350 344 342 348 350 351 352 350 348 347 352 349 349 348 347 346 345 348 347 348 350 351 352 351 348 348 350 354 354 353 353
342 342 342 346 347 348 350 349 348 349 352 350 350 350 346 344 349 350 351 352 350 350 351 350 350 351 350 349 349 350 349 349 349 351 349 350 352 352 355 354 352 348 345
341 342 340 343 342 342 346 346 347 351 351 350 351 351 352 351 351 350 353 354 351 350 350 350 350 351 352 351 353 353 352 351 350 351 355 354 353 354 354 355 354 349 337
339 341 341 342 339 340 338 340 339 339 350 351 352 353 354 354 355 354 352 352 353 353 351 350 349 351 351 351 354 355 356 353 352 352 352 353 352 352 352 352 350 344 344
330 334 337 339 339 339 341 341 338 337 346 351 352 353 353 353 354 352 354 353 352 353 353 352 351 350 349 349 350 354 354 353 354 354 352 351 349 344 341 341 340 342 344
326 325 326 329 334 337 333 335 336 339 341 344 350 352 353 353 353 353 354 353 354 353 352 353 354 353 352 352 351 350 349 352 354 354 353 351 351 351 350 351 349 348 349
321 322 322 321 321 323 326 326 324 329 331 333 338 343 350 352 353 352 353 354 354 353 352 352 351 351 354 355 355 353 353 352 351 353 353 352 352 354 355 355 353 349 350
316 316 317 317 318 319 319 318 319 322 325 322 321 326 333 342 346 350 352 351 352 353 352 352 353 352 351 349 350 352 354 353 353 352 351 351 353 351 352 357 357 352 349
313 313 313 313 314 314 314 313 314 316 318 321 323 322 325 330 332 338 345 350 351 352 352 351 351 352 352 352 353 351 350 349 350 350 350 351 352 353 354 354 352 354 351
310 310 310 310 311 312 313 314 316 317 319 320 322 324 325 326 330 341 340 346 348 350 351 352 353 354 353 354 353 353 353 352 350 349 348 349 350 351 350 350 349 351 351
307 306 307 308 308 308 309 310 311 311 313 314 315 315 317 318 321 324 331 327 335 345 342 341 337 343 350 352 353 354 354 354 353 349 346 346 348 349 349 350 351 351 350
305 305 304 304 304 304 305 307 308 309 310 309 310 310 312 313 316 317 318 318 323 323 323 322 323 324 328 331 338 347 351 353 354 350 350 350 349 347 347 348 348 349 349
303 303 303 302 303 303 304 305 305 306 307 308 308 309 310 310 313 314 315 317 319 320 321 322 322 323 327 329 334 342 349 349 351 352 350 349 348 347 346 346 346 347 348
302 303 302 302 302 302 302 302 302 303 303 304 304 305 306 307 307 312 317 318 319 320 319 320 322 324 329 332 335 341 349 351 351 351 350 349 348 347 346 346 346 346 347
303 303 303 303 303 303 302 302 302 302 302 303 304 304 305 306 306 309 312 314 317 317 319 320 320 322 324 327 330 337 345 348 351 352 351 350 350 348 347 347 347 348 349
302 301 302 301 301 301 301 301 301 302 302 301 302 303 304 304 305 306 309 313 315 317 318 319 320 321 323 326 329 333 336 341 346 351 352 352 351 351 350 349 349 349 350
299 300 301 301 301 301 300 301 301 301 301 301 301 301 302 303 304 305 306 306 309 312 314 318 321 323 325 327 330 333 335 338 341 345 348 351 352 352 352 351 351 350 349
299 298 299 298 297 297 297 298 299 299 299 300 300 301 301 302 302 303 304 305 306 308 310 313 316 323 329 331 333 335 338 340 343 344 347 350 350 351 351 351 351 349 345
299 298 297 296 296 296 296 296 296 295 295 296 296 297 297 299 300 302 304 304 305 306 308 311 315 316 318 321 325 329 336 341 343 344 347 347 347 348 349 350 350 350 349
300 299 298 297 296 295 295 295 295 294 295 295 295 295 295 296 298 300 301 304 305 305 306 308 310 310 311 313 316 323 327 330 334 342 344 345 345 345 347 349 348 348 346
301 299 299 299 298 297 295 294 294 294 294 294 294 294 294 294 295 296 297 299 302 304 306 307 308 309 311 315 321 324 325 326 331 331 334 336 337 339 342 344 345 340 339
301 300 300 299 299 298 297 295 294 293 293 293 293 293 293 293 293 293 293 295 296 298 300 305 306 307 309 310 312 318 319 322 323 325 325 325 327 331 336 338 340 341 339
301 301 300 300 300 298 296 295 293 292 292 292 292 292 292 291 291 291 292 292 293 294 297 300 301 304 307 308 310 312 317 318 317 316 315 317 319 323 325 328 334 340 342
301 301 301 301 300 299 296 294 293 291 291 291 290 290 290 290 290 290 290 290 291 292 294 296 298 300 302 304 309 313 314 315 315 315 314 314 317 317 318 321 327 330 334

GFSGL_925_thetae_087.txt.gz
Theta_e
348 348 348 347 348 347 347 346 348 345 347 348 347 349 350 348 347 344 348 349 349 345 347 346 346 348 349 350 350 347 349 351 349 349 349 350 350 351 350 348 349 349 349
347 349 350 350 349 347 346 347 346 350 350 349 348 349 350 348 348 348 351 350 349 347 347 348 342 345 348 350 351 348 347 347 351 350 351 350 350 348 347 350 353 352 352
344 345 347 347 349 349 348 349 347 349 350 349 349 349 349 346 347 348 350 351 351 349 346 347 351 347 347 347 347 345 346 347 347 349 349 348 347 346 348 351 352 352 350
344 341 341 343 344 344 345 347 349 349 350 351 350 349 349 344 342 347 349 349 350 350 349 348 349 349 349 349 349 349 350 350 349 349 350 349 351 349 352 354 353 352 349
343 342 343 340 340 341 340 341 341 343 348 349 350 351 350 349 346 346 347 349 350 350 350 349 349 349 349 351 353 351 352 353 352 350 350 351 351 350 350 350 352 350 339
339 339 338 337 340 339 341 339 338 340 339 343 348 350 350 351 350 350 351 351 351 352 351 351 352 350 349 348 351 351 351 353 354 354 352 351 351 350 349 346 346 345 342
331 332 334 336 337 338 338 337 339 339 338 340 344 348 349 351 352 352 352 352 353 353 352 351 351 352 352 350 349 348 349 349 352 353 353 353 353 353 352 350 349 347 345
323 324 324 324 325 330 330 333 332 335 337 336 337 340 342 347 349 351 351 352 352 352 353 353 353 351 351 352 352 352 352 351 350 350 350 351 352 352 352 351 351 351 351
317 318 318 319 320 320 321 320 322 325 324 330 326 327 327 332 341 345 348 349 350 352 352 352 352 351 351 351 350 349 350 353 353 352 352 350 351 351 352 354 353 352 349
313 313 314 314 315 314 314 315 315 315 317 320 321 321 322 326 331 334 337 342 347 349 350 350 351 351 351 350 351 351 351 350 349 348 348 348 347 348 348 350 353 350 349
311 311 310 311 312 312 312 314 315 316 317 319 321 323 323 327 323 338 336 337 341 347 348 348 349 350 351 352 352 351 351 351 351 351 351 350 350 349 349 348 349 350 351
308 307 308 308 309 309 310 311 311 312 314 315 315 316 318 318 317 318 321 319 321 330 333 335 339 341 343 346 351 352 352 352 352 351 347 347 348 348 349 349 349 350 350
305 305 305 305 304 305 306 307 308 309 309 309 309 310 311 313 314 316 317 318 319 319 320 322 322 323 323 323 326 333 338 342 347 349 350 348 349 350 351 350 350 349 349
303 303 303 303 303 303 304 304 305 305 306 306 306 306 306 307 308 309 310 312 315 317 318 320 321 322 323 322 322 322 324 326 331 339 344 347 348 348 349 349 348 348 347
302 302 302 302 302 302 302 302 302 302 303 303 304 304 305 305 305 305 306 308 310 312 315 318 320 320 321 322 323 325 328 331 339 341 345 347 347 347 348 348 348 346 345
302 302 302 302 302 302 301 300 301 300 301 302 303 303 303 303 304 304 305 305 309 312 314 316 317 318 319 321 322 323 324 327 335 342 346 348 348 348 348 348 347 346 344
301 301 301 301 300 300 300 300 300 300 300 300 300 301 301 301 302 303 303 304 305 308 311 313 314 316 317 319 320 322 324 326 328 333 342 345 347 348 348 347 346 346 345
299 300 300 300 299 299 298 297 298 299 299 299 298 299 300 300 301 301 302 302 303 304 306 308 310 314 317 319 321 323 325 327 330 333 336 341 345 347 348 348 348 347 347
298 299 298 297 296 296 296 296 296 296 296 295 295 296 296 297 296 297 299 301 302 303 304 305 307 309 311 315 321 324 328 330 332 334 336 338 341 345 346 347 348 348 349
298 298 297 297 296 296 295 295 294 294 294 295 295 295 295 295 294 295 296 299 300 302 304 304 305 306 308 313 314 318 320 320 326 333 336 340 343 345 347 346 348 349 348
299 298 297 298 298 297 295 294 294 294 294 294 294 294 294 294 294 294 295 296 298 299 301 303 304 305 305 307 310 309 309 312 316 324 330 332 332 342 342 343 344 344 346
300 299 299 299 298 298 297 296 294 294 294 293 293 293 293 293 293 293 294 294 294 295 296 297 299 302 305 306 307 308 309 312 317 323 323 324 329 335 337 339 342 343 345
300 300 300 299 299 299 298 297 295 294 293 293 292 292 292 292 292 292 292 292 292 292 292 293 295 296 298 300 304 306 308 309 310 313 316 319 322 326 328 333 336 339 342
301 301 300 300 299 299 299 298 296 294 293 292 292 291 291 291 291 291 291 291 290 290 291 291 291 292 294 296 299 300 306 308 313 314 317 316 315 318 320 323 329 330 333
302 301 301 300 300 300 300 299 297 294 292 291 290 291 290 290 290 290 290 290 289 289 290 290 290 291 292 292 295 297 300 302 305 308 311 314 314 315 314 316 318 321 325
302 302 301 301 301 300 300 300 298 295 292 291 291 290 290 289 289 289 289 289 289 289 289 289 289 289 290 291 293 294 296 298 300 302 304 309 311 313 312 312 314 317 319

GFSGL_925_thetae_090.txt.gz
Theta_e
345 346 345 346 347 348 348 347 346 347 345 345 346 348 349 348 348 348 346 347 348 347 345 344 345 345 346 348 350 348 347 350 350 349 350 350 349 349 348 347 350 352 350
346 347 347 348 347 348 348 347 347 346 346 347 347 346 347 349 350 348 344 345 347 348 346 346 347 344 345 347 349 350 348 346 347 348 347 345 344 343 344 345 348 351 351
346 344 345 348 349 349 348 346 345 347 348 348 347 347 348 349 348 348 347 347 348 347 348 348 346 348 346 345 345 346 346 346 347 348 348 347 346 344 346 349 350 349 352
343 342 341 341 342 344 345 345 346 346 348 348 348 348 349 348 346 346 343 347 348 348 348 348 348 347 348 348 348 347 348 348 349 349 349 349 349 349 349 349 348 345 341
342 343 342 341 339 340 339 341 342 341 343 346 348 348 350 349 349 347 344 345 346 348 349 349 349 349 348 347 348 350 351 351 351 353 352 351 351 351 351 351 349 349 349
340 340 339 340 340 339 339 338 338 339 339 340 344 346 347 349 350 349 348 349 350 350 350 351 351 351 351 350 349 349 349 351 351 351 351 352 352 350 351 352 350 348 348
334 334 334 336 336 336 336 335 337 336 336 336 337 340 343 346 347 348 350 351 352 352 352 353 352 351 351 351 351 350 350 350 349 349 349 350 350 349 350 352 351 350 348
321 322 323 325 327 326 326 329 329 331 330 331 330 330 331 332 335 340 345 347 349 351 352 351 352 351 351 351 350 350 350 350 350 351 351 352 352 352 351 351 352 351 350
315 315 316 317 317 317 317 318 318 320 321 323 326 325 325 331 335 338 338 340 345 348 349 350 351 352 351 351 350 349 349 349 349 349 349 348 348 348 348 350 350 349 350
312 312 312 313 313 313 313 314 315 317 319 320 323 324 326 323 331 327 333 335 339 342 345 346 348 349 350 350 350 350 349 350 350 350 351 351 351 351 351 350 350 350 350
309 309 310 310 310 310 311 312 313 314 315 317 318 318 318 320 318 322 319 319 318 325 334 339 342 340 338 342 345 348 350 351 351 351 351 351 351 351 351 351 350 349 349
306 307 307 307 307 307 308 309 310 310 311 311 312 312 313 314 313 313 314 315 315 316 317 319 321 323 324 326 326 328 327 329 334 340 344 347 349 350 350 350 350 351 350
304 304 303 304 304 304 305 305 306 306 307 306 307 306 307 307 308 309 309 309 311 313 314 316 318 320 321 322 324 324 323 323 324 328 332 332 335 339 343 346 347 348 348
303 303 302 302 302 302 302 302 303 303 303 303 304 304 304 305 305 304 305 305 306 307 309 311 313 316 318 320 321 321 322 323 326 332 334 334 336 342 345 346 346 347 348
302 302 302 302 302 301 300 300 301 301 301 302 302 302 302 302 302 302 303 303 304 304 307 308 310 312 314 316 318 319 320 321 327 330 335 338 341 342 344 345 347 347 347
302 302 302 301 301 300 300 300 300 300 300 300 300 300 300 301 301 301 300 301 302 303 305 307 310 312 314 316 317 319 320 321 322 324 328 334 339 341 342 344 344 345 346
300 301 300 300 299 298 297 297 297 297 297 297 297 297 298 298 298 298 299 299 300 301 303 305 306 307 309 312 315 317 318 321 324 326 328 331 335 339 340 340 343 343 345
299 300 299 298 296 296 296 296 296 296 296 296 296 295 295 295 295 296 297 298 300 300 302 303 304 305 306 308 310 312 317 318 320 326 329 331 332 334 338 341 344 345 345
299 298 296 296 295 295 295 295 295 295 294 295 295 294 294 294 294 294 295 296 298 299 300 301 302 303 304 305 306 307 309 313 316 315 318 319 326 333 336 338 340 341 342
298 297 297 298 297 295 295 294 294 294 294 294 294 293 293 293 294 294 294 294 295 295 296 297 299 300 301 302 303 305 306 308 308 308 310 312 316 327 329 331 333 339 342
298 298 297 298 297 297 296 296 295 294 294 293 293 293 292 293 293 293 293 293 293 293 294 294 294 295 295 297 298 301 304 306 307 307 309 311 317 321 322 324 329 335 339
299 298 298 298 298 298 297 297 296 295 294 293 293 292 292 292 292 292 292 292 292 292 292 291 291 292 292 293 294 295 298 300 303 306 309 306 308 313 315 319 323 325 331
299 300 299 299 298 299 298 298 298 297 295 293 293 292 292 292 291 291 291 291 291 291 291 290 290 290 290 290 291 292 293 295 297 299 302 307 309 314 315 316 317 322 325
300 300 300 300 299 299 299 299 299 298 297 295 292 291 291 291 291 290 290 290 290 290 290 290 290 290 290 290 290 290 290 291 291 293 294 297 300 303 310 312 315 316 320
300 300 301 301 300 300 300 299 300 300 299 297 294 292 292 291 290 290 290 290 289 289 288 288 288 289 289 289 289 289 289 289 290 290 292 293 296 298 301 305 310 313 315
303 302 302 301 301 301 300 300 300 300 300 298 295 293 291 291 290 290 289 289 288 288 288 288 287 287 287 287 288 288 288 288 288 289 290 291 293 296 300 303 306 310 313

GFSGL_925_thetae_093.txt.gz
Theta_e
346 345 345 345 345 346 348 347 347 346 346 346 347 347 348 347 347 347 347 349 347 351 347 348 349 346 349 351 353 352 352 352 351 351 352 352 347 352 347 345 348 353 351
346 345 344 346 345 344 346 347 347 347 347 347 346 346 347 346 347 348 348 350 348 346 351 350 349 349 351 351 351 355 353 354 350 350 350 349 351 352 349 349 350 348 351
345 345 344 344 345 346 347 347 347 345 344 344 346 347 347 347 348 350 350 349 347 349 348 351 351 352 352 349 350 349 348 351 351 351 351 351 352 352 353 352 353 352 348
345 345 344 343 344 346 347 347 346 346 347 347 347 348 347 347 347 347 348 347 346 346 346 345 346 351 352 352 352 353 351 351 351 353 352 352 353 353 355 353 353 352 353
343 343 341 340 341 343 344 342 341 342 343 346 348 349 348 349 349 348 347 347 348 347 350 349 351 348 349 350 351 351 350 349 351 351 351 351 351 351 351 352 354 355 353
342 342 341 341 340 339 339 340 340 340 341 343 345 347 348 349 348 348 349 349 350 352 353 350 349 348 350 350 350 350 349 351 351 349 350 351 354 353 352 353 352 353 352
335 336 336 337 337 338 337 336 336 335 335 335 336 340 341 340 344 346 347 349 351 351 350 351 349 351 352 350 349 350 350 350 350 350 352 354 353 355 353 355 353 354 353
325 325 327 330 328 330 331 333 332 330 332 331 332 332 333 331 336 339 341 344 347 350 351 352 353 350 350 351 350 353 352 350 349 351 350 352 353 354 355 355 355 354 352
317 317 318 318 318 318 319 319 320 324 326 329 327 333 328 325 328 337 338 339 342 344 346 348 348 350 352 350 350 353 354 354 352 351 350 350 349 350 350 350 352 352 351
312 312 312 313 314 314 315 316 317 322 325 326 324 323 319 319 319 322 329 326 330 335 341 345 345 338 342 344 344 347 352 353 353 354 354 353 353 353 352 351 351 352 352
309 309 310 310 310 311 312 312 313 316 317 319 318 317 315 315 314 315 315 319 318 320 323 326 327 327 331 329 331 332 336 337 338 337 344 349 351 352 352 353 353 352 352
307 308 307 307 308 308 309 309 310 311 311 313 314 313 311 310 309 309 308 310 310 313 314 316 316 319 320 322 322 322 323 323 329 332 335 337 338 340 340 341 346 351 352
307 307 307 306 306 306 307 308 309 308 309 308 309 309 309 309 308 305 305 305 306 307 308 308 310 313 316 320 321 320 322 328 330 332 333 333 333 334 338 339 342 346 350
306 306 305 306 305 305 305 305 306 306 306 307 307 306 305 306 305 304 304 304 305 306 306 307 309 312 315 315 318 321 324 326 327 329 332 332 333 334 336 338 339 340 342
305 305 305 305 305 304 303 304 304 303 304 305 304 304 304 304 301 300 300 300 301 302 304 310 311 313 314 315 317 318 320 321 322 324 325 327 329 330 333 335 338 340 342
304 304 304 304 304 303 303 302 299 301 300 299 299 300 302 299 297 297 298 299 300 301 307 308 309 310 310 311 312 314 316 318 320 323 324 326 327 329 331 332 335 337 340
304 304 302 303 302 302 301 302 302 298 296 296 296 296 296 296 296 297 298 299 300 304 305 305 306 307 308 309 310 311 312 314 318 317 319 322 326 328 329 330 331 333 335
303 301 302 301 300 300 300 300 300 301 301 300 297 296 295 295 295 296 297 301 302 302 303 303 304 305 305 305 306 308 308 308 310 311 315 315 317 319 322 326 331 333 336
302 301 300 299 299 298 299 299 299 299 299 299 299 298 296 296 296 297 297 299 299 299 299 300 300 300 301 302 302 303 303 305 307 308 310 310 311 313 315 318 322 326 328
301 299 299 299 298 298 298 298 298 298 298 298 298 297 296 298 298 298 297 297 297 297 297 297 297 297 297 298 298 299 301 302 303 305 306 308 309 310 314 317 320 321 325
300 299 299 300 300 299 299 299 298 298 298 298 297 296 293 296 297 297 297 296 296 296 296 296 295 295 295 295 295 296 297 298 299 299 301 303 306 307 307 308 310 315 320
301 301 300 301 300 300 300 300 299 299 298 298 297 296 294 296 296 296 296 295 295 295 294 294 294 294 294 294 294 293 293 294 295 296 297 299 300 301 303 307 310 313 316
300 301 301 301 300 300 300 301 301 300 300 299 298 296 295 296 296 295 295 295 294 294 293 293 293 293 293 293 293 293 292 293 293 293 293 294 294 293 294 296 300 303 312
301 301 301 301 301 301 301 301 302 300 300 300 298 297 296 295 295 295 294 294 293 293 292 292 292 291 291 291 290 290 290 291 291 290 290 291 291 293 293 294 296 298 302
302 301 301 302 302 302 302 301 301 301 301 300 300 298 297 296 295 294 293 293 292 291 291 290 290 290 290 290 290 290 289 288 288 288 289 289 289 290 291 292 294 296 299
301 301 302 302 302 302 302 302 302 302 302 301 301 299 298 297 295 294 293 292 291 290 290 290 290 290 289 289 289 289 289 290 291 292 291 289 288 288 289 291 292 293 295

GFSGL_925_thetae_096.txt.gz
Theta_e
351 351 349 349 349 349 348 349 350 352 354 351 350 350 351 350 350 351 351 351 353 351 352 351 351 350 347 346 348 349 348 348 349 348 351 351 355 353 353 352 349 348 345
351 349 347 349 349 349 349 349 351 350 350 351 353 351 349 351 352 352 351 351 352 351 349 350 351 347 349 348 347 348 348 349 348 347 347 348 351 352 352 354 351 347 346
347 348 348 345 347 348 350 349 350 351 350 349 350 350 350 352 351 351 353 353 351 350 350 349 350 349 350 346 346 346 344 345 347 347 347 346 348 351 352 351 349 350 349
345 344 343 343 344 344 349 350 351 352 351 349 350 350 350 354 353 353 353 354 352 351 350 350 349 349 351 352 352 351 351 351 348 348 346 345 345 347 349 348 345 346 348
345 344 344 344 344 343 346 350 351 351 352 352 353 354 354 354 352 354 352 352 352 351 351 351 351 350 350 349 350 350 352 351 347 344 345 344 345 347 349 347 347 347 346
344 344 342 345 342 344 344 347 348 348 349 351 352 353 353 352 350 348 348 352 353 353 353 354 353 352 350 348 349 350 350 352 352 351 348 347 349 351 351 350 350 348 349
342 340 341 340 340 339 339 339 342 343 344 344 346 349 343 340 340 345 346 350 353 354 354 353 353 348 350 351 351 350 348 349 350 350 352 352 352 352 353 355 352 352 352
335 334 334 334 334 334 336 336 336 337 341 341 341 341 331 327 335 338 340 346 351 353 353 353 354 353 353 351 352 351 351 352 352 352 352 353 354 353 353 354 353 354 354
323 324 326 326 326 328 331 333 334 335 337 338 339 335 326 324 331 336 340 344 348 350 349 349 349 348 347 348 349 353 353 353 352 351 352 352 352 351 350 350 351 351 350
316 316 317 319 319 320 322 322 326 328 333 334 334 327 321 319 321 327 330 331 335 339 345 341 339 336 339 341 342 343 348 350 348 347 348 349 352 354 354 353 353 353 352
312 312 312 312 313 315 316 317 322 325 328 328 327 325 321 319 315 316 322 323 321 326 331 331 329 322 322 322 325 329 335 330 331 335 340 344 346 349 350 351 352 353 354
310 310 311 313 312 314 316 316 318 320 321 323 323 320 318 316 310 308 308 310 310 314 315 317 316 318 320 320 322 324 322 323 330 336 339 339 340 340 340 340 342 343 343
311 311 311 312 313 314 314 313 314 315 315 315 316 316 315 314 312 308 307 305 307 310 312 307 307 308 310 314 322 318 320 330 334 335 336 337 337 338 337 337 338 341 343
312 312 311 312 312 311 311 311 312 312 312 313 313 313 311 311 307 304 303 306 307 309 307 311 312 314 316 317 318 320 321 323 324 324 325 327 328 329 330 331 333 335 337
311 310 310 310 310 310 309 309 310 306 307 310 310 310 310 310 303 299 299 300 302 303 306 312 313 314 314 315 316 316 318 319 320 321 323 324 324 325 326 327 328 330 332
309 309 309 309 309 309 308 305 303 302 301 301 301 305 304 300 298 298 299 299 300 304 310 310 310 311 312 312 313 314 314 315 317 319 319 319 320 322 325 327 328 328 330
308 308 307 307 307 307 307 308 305 298 297 297 297 297 298 297 297 298 299 302 303 307 309 309 309 309 309 309 309 310 312 312 312 312 313 315 316 316 316 319 320 322 326
307 305 306 306 305 305 306 306 306 307 306 304 298 298 296 297 297 299 302 305 307 306 306 306 306 306 306 306 306 306 306 307 308 309 310 311 313 314 314 315 316 317 319
306 304 305 304 304 304 304 304 304 304 305 304 304 301 300 299 300 301 302 304 304 304 304 304 304 303 303 303 303 303 304 304 304 305 307 308 309 310 312 313 314 316 318
306 304 303 303 302 303 303 303 303 303 304 304 303 302 301 303 304 303 303 302 303 302 302 302 302 301 301 301 301 301 301 301 302 302 303 303 304 305 307 309 310 311 311
305 302 302 304 303 303 303 303 303 302 302 302 302 298 295 301 302 302 302 301 301 301 301 300 300 300 300 300 299 299 299 299 299 299 300 300 300 301 302 303 304 305 307
304 304 302 304 304 303 303 303 303 303 302 302 301 300 297 300 301 301 301 300 300 300 299 299 299 298 298 298 297 297 297 297 297 298 297 298 298 298 299 299 300 300 300
305 305 304 304 304 303 303 304 304 304 303 303 302 301 300 300 300 300 300 300 299 299 298 298 298 297 297 296 295 294 294 294 294 294 294 294 294 294 295 296 296 297 298
306 306 305 304 304 304 304 304 304 303 303 303 302 302 301 300 300 299 299 299 298 298 297 297 296 295 295 295 294 294 293 293 292 291 290 291 291 292 292 293 294 295 296
306 306 305 305 305 303 304 304 304 304 304 303 303 302 302 301 300 299 298 298 297 297 296 296 295 295 295 294 294 293 292 290 290 291 290 289 290 290 290 290 291 292 293
305 306 305 305 305 305 304 304 304 304 304 304 303 303 303 302 301 299 298 298 297 296 296 295 295 295 294 293 293 291 291 291 291 293 294 292 290 290 289 289 290 290 291

GFSGL_925_thetae_102.txt.gz
Theta_e
354 354 353 354 353 352 351 350 351 352 348 350 352 352 351 350 350 351 351 350 351 351 349 350 351 351 347 346 346 343 347 348 351 350 350 350 350 351 351 354 351 353 350
353 354 354 349 350 351 350 350 350 351 352 352 353 352 353 352 352 353 353 352 352 353 352 351 351 348 351 351 350 351 350 349 349 350 348 349 347 343 343 350 352 352 349
352 349 348 352 352 352 350 345 349 351 350 353 353 352 349 351 352 352 351 353 352 352 352 352 351 351 349 349 348 348 349 348 344 345 345 345 345 346 346 346 349 346 348
344 344 344 347 346 350 347 348 350 350 349 351 350 351 351 353 353 353 354 352 352 353 352 351 351 352 350 351 350 350 350 350 350 352 353 352 348 350 351 353 353 355 351
346 347 347 345 345 342 343 343 343 343 348 350 350 350 352 351 352 351 350 352 351 353 353 353 353 352 351 351 351 351 349 348 348 350 351 352 353 353 353 353 356 351 348
349 348 348 349 347 344 344 343 344 344 346 348 347 350 352 349 346 348 348 350 351 352 352 352 352 352 352 351 349 349 346 345 346 349 349 353 353 352 354 356 355 356 357
350 350 348 348 349 349 347 346 345 344 344 344 348 349 347 343 343 344 346 348 347 348 350 351 350 352 351 350 351 349 349 350 350 349 349 351 354 353 354 356 356 356 356
347 348 347 347 345 345 344 344 341 343 344 345 346 339 336 331 335 338 339 343 344 349 352 354 355 351 347 346 347 348 350 347 351 351 350 351 352 353 353 352 352 353 354
335 338 339 340 340 340 341 343 342 340 340 343 343 338 336 330 331 334 338 339 348 350 344 345 346 342 339 340 340 343 348 350 350 348 349 349 347 346 348 349 349 351 352
326 327 330 334 335 335 334 335 337 339 342 341 339 335 328 329 326 329 332 332 335 333 342 338 330 329 327 327 327 327 333 340 338 337 338 338 340 342 344 346 348 350 351
323 324 323 324 325 326 327 327 330 333 337 337 334 332 328 325 320 317 321 326 326 326 325 324 327 326 322 319 317 319 324 326 325 326 333 337 341 340 341 336 339 339 344
314 314 315 316 317 319 323 324 325 328 332 333 332 331 328 324 318 314 310 310 312 314 318 319 315 313 312 313 313 315 317 318 325 328 328 326 325 327 325 326 327 328 329
313 313 312 313 314 316 318 317 317 321 323 326 328 327 324 320 316 313 309 307 309 310 312 312 309 313 315 319 319 320 321 322 322 321 322 324 325 324 324 325 326 328 329
312 313 310 311 313 314 316 317 317 319 318 318 318 318 320 319 316 313 306 304 308 310 309 310 315 316 317 317 319 320 319 319 320 320 318 317 318 319 320 322 320 318 320
318 317 317 317 313 314 313 312 313 313 313 312 314 315 315 313 312 312 304 302 302 303 309 314 316 315 315 315 315 314 316 315 314 314 315 316 316 316 317 317 317 319 320
316 316 314 315 314 316 314 310 309 310 307 307 308 310 310 309 306 302 301 301 304 307 312 314 314 314 313 312 312 311 311 310 309 310 309 310 312 312 312 314 315 316 317
317 315 315 313 315 314 315 313 309 304 302 301 301 301 306 305 300 301 302 305 308 309 311 313 313 312 311 311 311 310 310 309 309 307 308 308 308 309 308 308 309 310 310
316 313 314 313 310 312 313 312 313 308 306 302 300 300 299 299 300 303 306 307 308 309 311 311 310 309 309 309 308 308 307 307 306 306 306 306 306 306 307 307 307 306 306
315 313 311 310 311 310 310 310 311 311 312 308 304 303 302 303 303 304 306 309 310 309 309 309 308 308 307 307 307 306 306 305 305 305 305 304 304 304 304 304 304 304 304
314 312 310 309 310 309 309 309 309 309 309 310 310 308 305 304 306 308 308 308 308 308 307 307 307 306 306 305 305 304 304 303 303 303 302 302 301 301 301 301 301 301 301
314 312 308 308 309 308 307 308 308 308 308 308 308 306 304 303 307 307 307 307 307 306 306 306 305 305 304 303 303 302 302 301 301 300 299 299 298 298 298 298 298 299 299
314 312 309 307 308 308 308 308 308 308 307 307 306 304 303 299 305 306 306 305 305 305 304 304 304 303 303 302 301 301 300 299 299 298 297 296 296 296 296 296 296 297 297
315 312 310 307 307 308 308 308 308 307 307 307 307 304 303 302 305 305 305 305 304 304 303 303 302 302 301 301 301 300 299 298 297 295 295 294 294 294 295 295 295 295 295
316 314 311 309 308 308 308 308 308 308 307 307 307 307 306 305 305 305 304 304 304 303 302 302 301 301 301 300 300 299 298 297 295 294 293 293 293 294 294 294 294 294 294
315 315 312 311 310 309 309 308 308 308 308 308 308 308 307 306 306 305 304 303 303 302 302 301 301 300 300 300 299 299 298 295 294 294 294 294 295 295 295 294 293 293 293
315 314 312 310 310 310 310 310 309 309 309 308 307 307 307 307 306 306 305 304 303 302 301 301 300 300 300 299 298 297 296 295 294 294 295 296 296 295 294 294 294 294 294

GFSGL_925_thetae_105.txt.gz
Theta_e
355 352 351 350 349 352 351 351 351 349 347 339 342 349 349 351 349 351 350 349 348 350 348 350 349 347 350 350 349 351 349 350 349 350 349 350 349 348 346 343 346 353 351
354 353 351 341 352 350 350 350 350 349 350 350 350 351 352 352 351 351 352 352 353 351 350 351 350 349 347 350 349 349 349 348 348 345 346 347 347 348 351 350 348 349 353
353 351 350 349 344 351 350 349 348 349 352 353 353 351 350 350 351 351 352 351 350 351 351 351 351 351 352 349 348 347 350 350 349 352 351 351 351 351 349 349 354 350 347
350 348 347 347 348 349 350 349 344 348 349 349 350 351 350 350 352 352 351 350 350 350 351 352 351 350 350 350 350 349 351 349 349 349 348 346 349 350 350 351 348 346 346
345 343 343 344 345 344 345 345 345 344 343 347 350 351 351 349 347 349 348 349 349 350 352 351 351 351 351 350 349 350 351 348 345 344 345 346 346 348 348 351 353 351 349
344 345 346 345 345 344 341 342 343 343 343 344 346 348 348 347 346 345 346 348 350 351 350 349 350 351 351 350 349 349 348 348 347 348 349 350 349 349 350 353 354 353 355
347 348 348 348 347 348 347 346 346 343 342 343 343 343 344 341 340 342 342 345 347 347 349 349 350 349 349 348 347 348 347 348 349 350 350 350 349 350 352 352 352 351 352
351 350 348 348 346 345 344 343 341 344 344 343 343 339 337 333 335 337 340 343 345 350 349 350 349 348 344 342 343 344 348 350 349 348 349 348 348 349 346 344 347 348 348
344 345 345 344 342 342 342 343 341 340 342 343 340 339 335 332 331 333 335 345 348 343 342 343 339 332 330 330 332 332 337 343 340 337 335 336 336 339 341 344 345 346 348
333 335 338 338 337 337 337 339 339 339 342 341 336 337 333 332 328 329 331 330 333 335 337 334 329 326 323 322 322 322 325 327 325 326 332 334 330 336 327 328 332 340 341
329 330 331 332 332 331 330 332 334 337 338 336 335 332 328 324 321 320 320 321 324 324 323 324 324 324 320 316 317 319 318 317 322 326 326 324 324 323 324 325 327 328 333
324 323 322 324 325 325 325 326 328 333 334 334 332 331 328 323 319 316 311 312 310 312 316 318 316 310 312 315 318 319 320 322 322 323 323 319 319 319 320 321 321 322 322
314 314 315 315 315 317 315 317 316 324 326 327 328 328 327 322 317 316 312 307 309 310 311 309 309 315 317 318 318 321 321 323 320 318 316 316 316 316 317 317 317 318 318
312 312 312 312 314 316 317 318 318 318 318 319 319 319 322 315 315 314 310 303 303 305 305 314 316 317 318 316 316 316 315 314 313 312 312 312 313 313 313 314 314 315 316
313 312 312 311 313 313 313 313 314 313 312 312 314 314 316 314 311 312 310 304 302 304 313 314 314 314 314 313 311 311 310 310 309 308 308 308 309 308 307 308 309 309 310
318 317 316 316 315 313 313 311 312 312 311 308 308 311 311 310 308 305 303 301 303 306 313 314 314 313 312 311 310 309 308 308 306 307 308 307 306 307 307 307 306 306 306
319 319 315 314 314 317 315 313 311 308 307 303 302 302 304 306 305 302 301 304 308 310 311 315 311 310 309 309 308 307 307 306 305 305 306 305 305 304 304 304 304 304 304
317 316 314 313 312 312 316 314 313 313 309 305 303 301 300 300 300 301 305 307 307 309 310 309 309 308 308 307 307 306 306 305 304 304 303 302 301 301 301 301 300 300 300
316 315 313 313 311 312 312 312 312 312 309 309 304 304 301 301 301 305 307 309 311 309 308 307 307 307 306 306 305 304 303 302 302 301 300 300 299 299 298 298 298 298 299
316 315 313 311 309 310 309 309 310 309 312 310 306 306 304 304 305 306 308 308 307 307 307 307 306 306 305 304 303 302 301 301 300 299 299 298 297 297 296 296 296 297 297
316 315 313 310 309 309 309 308 308 308 309 310 309 308 306 304 307 307 309 307 306 306 306 305 305 304 303 303 302 301 300 299 299 298 297 295 295 295 295 295 295 295 295
317 315 314 312 308 309 308 307 308 307 308 308 309 307 304 302 306 307 306 306 305 305 304 304 304 303 302 302 300 300 299 299 298 296 295 294 294 294 295 294 295 295 295
317 317 315 313 309 307 308 307 308 308 308 307 307 305 304 304 303 306 306 305 304 304 303 303 302 301 301 301 300 299 299 298 296 295 294 294 294 295 295 295 295 295 295
319 318 316 313 310 307 306 309 308 308 308 307 307 306 305 304 302 305 305 304 304 303 303 302 302 301 301 300 300 299 298 298 296 295 295 295 295 295 296 295 295 295 294
317 317 316 311 309 307 307 308 308 307 307 308 308 307 306 306 305 305 304 304 304 303 302 302 301 300 300 300 300 299 298 297 296 295 295 295 296 296 296 296 295 295 295
313 315 315 312 310 309 310 308 309 308 307 308 307 308 307 307 306 305 304 303 303 302 302 301 300 300 300 300 299 298 297 297 295 295 295 296 296 296 296 295 295 295 295

GFSGL_925_thetae_108.txt.gz
Theta_e
351 352 350 351 352 352 351 348 347 348 347 346 349 344 348 349 351 351 349 350 349 348 348 348 348 350 347 349 349 350 348 350 347 346 344 347 348 350 350 351 349 348 351
352 351 352 352 351 351 352 351 351 348 348 345 343 349 350 350 351 350 349 350 348 350 349 349 349 351 348 349 348 347 347 348 349 346 348 350 350 350 348 347 352 350 349
350 350 350 348 345 350 350 350 349 349 349 350 351 350 350 351 351 351 351 351 351 350 350 350 350 350 350 350 349 348 348 349 349 349 349 349 348 347 347 344 343 342 342
347 349 349 348 345 347 348 348 348 349 348 348 350 352 351 350 349 349 350 348 348 349 349 350 350 351 351 349 349 350 349 350 347 345 344 344 345 345 346 350 349 348 346
348 348 348 347 346 346 346 347 346 345 346 346 349 349 351 350 347 343 345 346 348 343 348 349 349 349 348 347 348 348 349 350 348 345 346 347 347 348 349 350 350 350 348
346 344 344 344 345 344 343 342 342 343 343 344 344 348 349 347 345 345 343 345 348 349 348 347 344 343 348 347 346 347 349 348 347 347 348 348 348 349 349 349 351 350 350
345 344 345 344 345 345 344 344 344 344 343 343 344 344 341 340 339 340 342 344 346 348 347 347 347 347 347 346 345 347 347 346 347 348 348 348 348 347 347 345 341 342 345
347 346 347 347 347 346 345 344 343 343 344 342 337 333 331 332 336 337 339 342 342 346 347 347 346 343 339 339 340 343 347 345 343 340 335 336 334 333 338 340 341 342 343
349 349 348 347 345 344 342 339 340 343 342 341 338 336 335 334 332 333 340 345 344 342 343 339 333 329 328 329 328 330 334 333 327 327 331 333 327 326 328 331 336 340 342
343 345 345 344 342 341 341 340 340 341 342 340 338 336 333 333 330 330 331 335 338 335 332 331 330 328 325 325 325 323 320 319 321 325 326 325 323 324 325 324 325 328 336
334 337 338 338 338 336 336 337 337 341 340 337 335 332 328 323 321 319 320 325 327 326 325 325 323 320 317 314 313 315 317 322 322 322 321 320 320 320 319 319 319 320 320
330 331 329 328 328 328 330 331 336 337 335 333 331 326 322 319 317 317 315 310 312 315 317 318 315 311 315 319 319 319 320 322 320 319 317 315 315 315 315 316 317 319 319
322 321 321 319 320 318 323 323 328 331 333 332 331 327 322 317 316 312 304 305 308 309 310 308 310 315 316 318 320 320 320 317 316 314 312 311 310 309 310 311 312 313 313
313 314 313 315 316 317 317 318 318 320 321 321 320 324 322 316 315 313 312 307 302 303 306 316 317 317 316 314 314 313 312 311 309 308 308 308 307 306 306 306 305 305 305
311 310 310 312 313 314 313 314 314 315 315 315 315 316 321 316 314 311 309 308 303 308 315 315 313 312 311 310 310 309 308 307 307 307 306 305 305 305 304 304 303 303 303
316 314 314 313 312 311 312 312 312 312 311 310 308 311 311 310 306 305 302 302 302 308 313 313 312 310 309 308 308 306 306 305 305 305 304 304 303 302 301 300 300 300 300
315 315 315 316 314 314 313 311 310 308 308 306 303 302 303 305 305 303 301 303 307 309 313 311 309 309 308 307 306 305 305 304 304 303 302 301 300 299 298 298 298 298 298
318 318 314 317 314 314 315 315 313 311 310 308 303 303 300 300 300 300 303 305 307 310 310 309 308 307 307 306 305 304 303 303 302 301 300 299 298 297 297 296 297 297 297
314 315 315 313 313 311 311 314 315 313 311 309 306 304 301 301 300 304 307 309 310 308 308 307 307 306 306 305 303 302 302 301 300 299 298 296 296 296 296 296 296 296 296
318 314 313 313 313 310 309 310 310 310 310 309 309 307 304 302 302 306 308 308 307 307 306 306 306 305 304 304 302 301 300 300 299 297 295 295 295 295 295 295 295 295 295
320 318 315 314 313 309 309 309 309 308 308 309 311 308 306 305 306 307 308 307 306 306 306 305 304 304 303 303 301 300 299 299 298 296 295 295 295 295 295 294 295 295 295
319 318 320 318 314 312 309 309 308 308 307 308 310 309 307 304 305 307 308 306 306 305 305 304 303 303 302 301 300 300 299 298 297 295 295 295 295 295 295 295 295 295 295
320 319 317 317 315 313 311 308 308 307 307 307 308 309 308 305 303 306 308 306 305 304 304 303 303 302 301 301 300 299 299 298 297 295 295 295 295 295 295 295 295 295 294
316 318 318 317 316 315 313 312 307 307 307 307 307 308 307 305 303 302 306 305 304 304 303 302 302 301 301 300 300 299 299 298 297 295 295 295 296 296 296 295 295 295 295
316 315 315 315 316 315 314 311 307 307 308 308 307 306 306 304 302 302 305 304 304 303 303 302 301 301 300 300 300 299 299 298 297 295 295 295 296 296 296 295 295 295 295
314 314 312 313 314 313 312 309 307 307 308 307 307 307 307 305 304 304 305 304 304 303 302 302 301 300 300 300 299 299 298 297 297 296 295 295 296 296 296 295 295 295 294

GFSGL_925_thetae_111.txt.gz
Theta_e
348 350 348 349 349 350 350 350 348 349 347 345 344 349 348 349 349 350 349 349 350 348 346 348 347 349 348 348 348 349 347 348 346 345 344 346 348 349 347 347 349 349 347
349 350 351 351 350 351 351 350 347 347 347 344 344 348 342 347 350 350 350 350 350 348 347 347 348 349 350 349 349 347 346 348 348 345 346 348 349 349 347 345 342 340 341
351 349 348 347 348 348 350 350 350 350 348 348 348 348 350 351 351 351 350 350 350 351 350 349 349 350 350 349 349 348 347 348 348 348 347 347 345 343 343 344 345 343 343
349 348 348 347 345 342 346 346 347 347 348 348 349 350 351 350 349 349 348 349 349 348 349 349 349 349 350 349 348 347 349 349 349 346 345 343 345 345 347 348 347 346 345
346 347 344 343 347 345 343 345 347 346 346 346 348 349 349 349 349 347 344 346 347 347 345 347 347 345 345 345 343 343 345 348 348 347 345 346 347 347 348 349 349 346 342
345 347 344 344 346 346 345 346 345 344 344 343 344 346 346 347 347 345 344 343 345 346 345 347 347 345 344 346 346 345 346 348 347 345 346 346 346 347 346 344 344 340 344
346 346 345 346 345 345 343 342 341 342 342 343 344 344 344 342 341 339 340 342 345 346 347 347 346 344 345 345 344 346 346 346 345 346 345 342 337 335 334 336 337 339 341
345 344 344 343 343 344 345 345 344 344 343 343 341 336 332 332 335 336 337 340 340 345 345 347 345 344 341 338 338 342 344 339 335 331 331 332 328 328 332 342 342 336 341
345 344 345 345 346 346 344 342 342 343 342 339 334 331 332 331 331 335 342 343 344 342 339 335 332 330 328 325 326 329 331 322 326 325 328 324 326 324 326 330 330 331 335
338 344 346 347 346 344 341 339 341 342 339 334 332 331 330 331 331 330 334 340 338 335 330 327 327 325 325 326 325 323 322 321 323 324 322 321 320 319 319 320 321 324 335
336 338 343 343 340 340 340 339 340 341 338 333 331 328 323 320 318 319 324 329 331 331 329 326 323 322 318 316 315 315 319 322 321 320 319 318 317 316 316 318 319 319 319
332 332 333 333 332 333 334 334 338 340 336 332 329 322 318 315 316 314 313 311 317 322 321 320 316 312 314 317 318 320 322 319 318 317 315 313 312 311 311 312 315 312 308
327 327 327 328 327 328 328 329 335 334 332 330 327 324 321 318 315 310 304 304 308 309 310 308 308 315 317 319 319 319 317 316 314 313 309 307 306 306 306 306 309 308 303
318 317 317 319 318 318 319 320 327 328 328 328 326 326 324 320 317 314 313 309 303 303 307 315 316 315 316 314 313 312 311 310 309 307 306 306 305 304 303 302 302 302 300
312 312 312 313 313 314 314 315 316 316 318 317 316 317 323 321 318 314 311 308 303 310 313 314 313 312 311 310 309 308 307 307 306 305 304 303 303 301 300 299 299 299 298
311 311 312 311 311 311 311 311 311 311 311 310 310 312 316 317 316 310 305 303 302 312 314 312 310 310 309 307 307 306 305 305 304 303 302 301 299 298 298 297 297 297 297
315 315 315 315 314 313 311 311 311 309 308 307 306 304 304 306 307 307 305 302 304 308 312 311 310 308 307 306 306 305 303 303 302 301 300 298 297 297 297 297 297 297 296
317 318 317 314 315 314 313 314 313 311 310 309 305 304 302 300 300 300 301 302 305 307 312 309 308 307 306 305 304 303 302 301 300 299 297 296 296 296 296 296 296 296 295
316 315 315 315 313 313 311 311 312 312 312 310 307 305 303 301 300 301 305 306 308 310 309 308 307 306 305 304 303 302 301 300 298 296 295 296 296 296 296 295 295 295 295
319 318 316 314 313 313 311 309 311 314 314 312 310 307 305 302 301 304 307 309 308 308 307 307 306 305 304 303 302 301 300 298 297 295 295 295 295 296 296 295 295 295 295
320 319 319 317 314 313 312 309 308 308 308 309 309 309 307 305 302 306 307 307 307 307 306 306 305 304 303 302 301 300 299 298 297 295 295 295 296 295 295 295 295 295 295
317 321 319 318 318 317 315 312 308 308 308 307 307 308 308 306 305 305 307 307 307 306 306 305 304 303 302 302 300 299 299 298 296 295 295 295 295 295 295 295 295 295 294
316 317 319 319 317 317 316 314 312 308 308 307 307 307 309 307 304 304 306 307 306 305 305 304 303 302 302 301 300 299 299 298 297 295 295 295 295 295 295 295 295 295 294
313 316 316 317 317 317 317 317 314 314 312 307 306 307 307 308 308 304 304 307 305 305 304 303 303 302 301 301 300 299 299 298 297 295 295 295 295 295 295 295 295 295 295
310 311 315 316 315 314 313 313 315 313 310 308 307 307 307 307 308 305 302 307 305 304 303 303 302 302 301 300 300 299 299 298 297 296 295 295 295 295 295 295 295 295 295
309 311 313 313 312 312 312 312 312 311 311 310 307 306 306 307 307 305 302 303 305 304 303 303 302 301 301 300 300 299 299 298 297 296 295 295 295 296 296 296 295 295 294

GFSGL_925_thetae_114.txt.gz
Theta_e
345 345 346 349 347 349 348 348 348 348 347 346 346 344 348 348 348 348 349 349 349 348 347 347 347 347 347 347 348 348 347 347 347 346 345 344 345 349 348 346 344 344 343
345 345 347 348 348 349 349 350 348 347 346 346 345 346 348 344 347 348 349 349 349 349 348 346 347 348 349 348 348 348 347 346 347 346 346 346 347 347 344 343 343 344 345
346 346 349 348 349 349 350 349 348 347 347 347 345 342 345 346 348 349 349 349 349 349 349 349 348 349 349 349 349 348 348 346 348 347 347 345 343 342 342 344 346 344 342
347 348 348 349 349 348 342 341 343 346 347 347 347 349 349 350 349 350 349 347 347 348 350 349 349 349 348 350 348 347 347 348 348 347 346 345 343 345 346 348 347 345 340
349 349 348 346 346 344 344 343 342 343 345 345 345 346 346 348 348 348 347 345 346 346 348 348 348 348 347 345 344 344 344 344 347 346 345 344 345 345 347 347 346 341 341
348 348 347 343 342 343 343 345 342 342 345 345 344 344 345 346 346 347 346 344 342 344 346 346 347 346 345 344 344 345 344 345 347 345 345 345 345 345 343 336 337 339 343
345 345 345 344 345 344 344 344 345 344 343 342 342 342 343 343 342 342 340 340 342 344 346 346 345 344 343 340 343 343 344 343 344 345 343 339 335 333 332 336 339 339 342
344 344 345 345 344 344 345 344 343 342 342 342 342 342 338 334 335 336 335 337 338 339 343 340 342 343 340 338 338 342 341 335 332 332 332 329 327 328 331 339 340 338 339
344 345 345 345 344 344 344 343 343 343 343 340 336 331 328 330 332 336 338 339 340 339 341 339 338 335 334 328 328 334 328 326 325 327 325 321 321 323 326 329 328 332 338
344 344 344 344 344 343 343 340 341 342 340 333 328 327 328 327 329 331 335 340 338 331 325 325 326 324 324 323 323 323 321 322 323 321 319 319 319 320 321 321 322 328 333
340 336 338 343 344 342 339 339 341 339 336 332 330 327 324 320 319 321 327 332 331 331 330 327 325 323 320 319 318 317 318 322 320 319 317 315 315 315 317 317 317 318 314
331 336 334 335 332 336 337 338 339 338 334 330 328 321 318 317 317 314 313 313 319 324 323 322 320 315 314 316 317 319 321 319 317 315 313 310 309 308 311 311 308 308 306
328 328 329 333 328 328 331 334 338 335 332 328 324 322 320 319 314 309 305 304 306 309 311 310 308 312 316 318 319 319 317 316 314 312 308 306 305 304 304 308 304 301 300
319 318 319 320 322 324 324 329 331 331 330 328 326 325 323 320 316 314 312 308 304 303 305 311 313 315 317 316 314 312 311 310 310 308 306 304 303 302 301 300 300 302 299
313 313 313 314 314 314 315 315 319 323 323 323 320 320 322 321 319 315 311 308 302 309 314 315 313 312 310 310 309 309 308 307 306 305 304 302 300 299 298 298 298 298 299
309 310 310 310 310 311 311 311 312 312 312 312 312 313 317 318 318 315 307 305 303 310 312 311 311 310 308 307 307 306 305 304 303 302 301 299 298 298 298 298 298 298 298
314 314 314 314 312 311 310 310 310 309 308 307 306 306 305 306 307 307 307 306 303 303 312 311 310 308 307 306 306 304 303 302 301 300 299 297 297 297 298 297 297 297 297
316 317 317 314 314 314 313 313 313 312 311 310 309 306 306 304 302 300 300 300 302 305 308 310 309 307 306 306 305 303 302 301 300 298 297 296 296 297 297 297 297 296 297
317 316 315 314 314 313 313 311 311 312 311 311 310 308 306 304 302 301 301 304 304 306 308 309 307 307 306 305 303 302 301 300 298 296 296 296 296 296 296 296 296 296 296
319 318 317 316 314 313 312 311 309 309 311 312 312 311 307 304 303 301 304 307 307 308 309 308 306 306 305 304 303 301 300 298 296 295 295 296 296 296 296 296 296 296 296
315 319 319 318 317 316 314 312 310 308 308 309 309 309 309 306 304 302 306 308 309 308 308 307 306 305 304 303 302 300 299 297 296 295 295 295 295 295 295 295 296 296 296
311 313 314 316 318 318 317 315 316 313 308 307 307 307 307 307 305 303 306 307 308 308 307 306 306 305 303 302 301 300 299 297 296 295 295 295 295 295 295 295 295 295 295
309 311 313 315 316 316 317 316 315 314 315 313 308 306 306 307 307 304 305 306 307 307 306 306 304 303 302 302 301 299 299 298 297 295 295 295 295 295 295 295 295 295 296
308 308 310 312 315 315 315 314 314 314 314 313 313 314 310 305 307 307 305 306 306 306 305 305 303 303 302 301 300 299 298 298 297 295 295 295 295 295 295 295 295 295 295
308 308 309 311 312 314 314 313 312 312 311 312 312 311 310 309 305 306 306 304 305 306 305 304 303 302 302 301 300 299 299 298 297 296 295 295 295 295 295 295 295 295 295
308 308 308 309 310 310 310 310 310 310 310 310 309 308 309 306 305 304 305 306 303 306 305 304 303 302 301 301 300 299 299 298 297 296 295 295 295 295 295 295 295 295 295

GFSGL_925_thetae_117.txt.gz
Theta_e
349 349 349 349 348 348 348 349 348 347 348 347 346 346 347 349 349 349 348 349 351 352 350 348 351 351 350 351 351 352 351 351 349 346 350 348 347 351 353 350 349 350 349
349 350 346 345 348 349 349 350 348 348 347 348 346 345 347 349 348 349 351 350 350 350 349 349 351 350 351 347 351 351 351 351 350 350 350 350 350 350 348 350 349 348 349
349 350 348 345 348 351 350 349 349 348 347 347 346 344 348 348 347 350 349 351 351 350 351 352 352 351 351 348 347 349 351 350 350 351 351 351 349 347 348 350 352 351 346
349 350 350 350 351 351 350 348 345 344 345 347 347 347 348 349 353 351 348 348 348 350 347 351 352 351 350 351 347 348 349 347 348 351 351 350 348 350 349 350 349 349 346
348 350 351 347 349 350 348 343 341 341 344 344 346 345 348 348 348 348 348 349 349 350 350 347 348 347 347 347 346 346 343 343 343 348 350 350 350 348 350 349 346 346 349
350 351 348 348 348 348 344 343 342 343 342 344 345 344 344 344 345 345 345 345 344 345 349 351 347 345 344 344 344 342 344 345 346 350 350 349 350 349 347 342 343 345 347
348 348 347 347 346 343 343 344 344 344 343 344 344 344 342 340 343 342 342 340 340 343 346 351 344 344 343 343 342 342 342 342 343 349 350 348 343 343 335 341 346 346 346
343 342 346 345 343 342 343 344 344 343 344 344 343 342 342 341 341 336 336 337 339 339 340 344 344 340 339 340 337 339 337 330 330 333 335 331 328 327 332 339 343 343 335
343 344 344 344 344 344 342 344 344 343 343 342 342 340 336 333 332 335 337 336 337 337 336 338 340 340 338 335 332 337 327 326 326 328 326 321 321 322 325 332 333 337 340
344 344 344 344 344 343 343 343 342 342 342 339 332 324 325 325 330 332 336 336 334 328 327 327 329 326 326 324 323 328 328 328 324 323 321 319 320 320 321 322 327 333 335
342 341 340 340 342 342 342 342 341 339 334 324 321 321 325 324 323 325 329 332 332 331 329 325 322 324 323 322 321 320 326 325 322 321 319 317 316 316 315 315 316 317 321
336 336 336 337 338 338 338 338 338 335 327 325 321 320 320 318 319 315 314 315 320 326 327 322 323 320 316 317 317 317 319 321 320 318 317 315 313 313 312 311 309 308 307
326 327 328 332 334 335 335 335 335 333 331 325 322 319 317 316 311 309 307 304 305 311 311 311 309 311 315 318 319 319 317 316 316 313 314 312 309 308 310 309 305 302 301
323 322 324 327 328 328 330 327 330 329 328 326 324 322 321 319 315 313 312 309 307 309 308 310 312 315 317 317 314 315 313 312 312 313 311 308 306 305 304 305 305 306 304
315 314 314 315 319 319 318 319 323 324 327 326 325 325 324 321 319 316 313 309 304 305 313 314 314 313 312 311 311 311 309 309 310 309 308 306 305 304 303 303 303 304 304
313 313 311 310 310 310 310 311 312 312 312 312 313 314 317 319 319 317 314 308 307 306 313 315 315 314 314 313 312 309 307 307 304 305 304 304 304 303 303 303 302 303 303
317 317 315 314 313 313 312 314 314 309 309 308 307 307 306 306 307 307 306 305 305 304 311 314 314 313 311 311 309 309 307 306 305 304 304 303 302 302 303 302 302 302 302
316 316 316 316 316 315 314 314 314 314 315 313 310 307 306 305 304 304 303 301 304 304 307 311 314 313 312 311 309 307 305 304 304 303 302 302 302 302 302 302 302 302 302
320 318 317 316 314 314 315 315 314 314 314 313 312 311 309 306 306 305 302 302 306 307 308 310 312 311 310 309 307 306 305 304 302 301 301 301 301 301 301 301 300 299 300
321 320 319 318 318 316 315 314 313 312 312 313 313 314 309 308 306 306 305 306 308 309 310 311 311 310 309 308 306 305 304 301 301 300 300 300 300 301 301 301 301 301 301
317 317 315 318 319 319 318 317 316 314 315 314 312 311 310 308 309 308 306 308 309 310 311 311 310 309 308 307 306 304 303 302 301 300 300 300 300 300 300 300 300 300 301
312 313 315 315 316 317 318 318 317 317 317 315 314 312 309 307 307 308 307 309 310 311 311 310 309 308 307 306 305 304 303 301 300 299 299 299 299 299 300 300 300 300 300
310 310 310 312 314 315 316 316 316 315 315 315 314 314 312 309 308 308 308 308 309 310 310 309 309 307 306 305 304 303 302 301 300 299 299 299 299 299 299 300 299 300 300
311 311 311 311 312 313 314 315 316 314 313 313 313 312 312 312 311 310 307 307 308 309 309 308 308 306 305 304 303 302 301 300 299 298 298 299 299 297 299 299 299 299 299
310 310 311 312 312 313 313 313 313 313 313 312 312 311 311 311 312 310 307 306 307 308 308 308 307 306 305 304 302 301 300 299 299 298 297 298 298 298 298 298 299 299 299
309 310 310 310 311 311 311 311 311 312 311 311 311 311 311 310 310 310 307 306 305 306 306 306 306 305 304 303 302 301 299 298 298 297 297 297 297 298 298 298 299 299 299

GFSGL_925_thetae_120.txt.gz
Theta_e
349 350 350 350 351 352 352 354 354 355 355 355 355 355 354 353 354 355 354 352 353 352 352 352 352 352 350 347 347 347 347 348 348 345 345 347 351 350 350 350 347 349 351
349 350 352 351 352 351 352 352 354 354 354 355 355 354 353 354 354 354 354 351 352 352 351 351 351 349 351 352 349 349 349 350 349 348 348 348 351 351 351 352 351 347 349
351 352 352 352 352 351 352 353 354 354 354 353 353 353 353 353 353 353 353 352 352 352 351 351 351 351 351 351 350 350 350 350 351 352 349 350 350 349 349 351 353 352 348
352 352 352 352 351 352 352 353 354 353 354 353 354 353 352 351 352 353 352 352 352 351 352 351 351 351 352 352 351 352 346 350 350 349 351 348 349 350 350 349 347 349 347
352 352 352 352 352 353 352 353 353 352 351 351 351 351 352 353 352 354 353 352 352 352 352 352 350 351 350 348 349 347 345 350 348 347 349 348 346 345 349 347 347 347 351
350 349 351 353 353 353 351 353 352 350 350 350 349 350 351 349 346 344 344 347 350 351 351 351 352 346 346 345 344 343 344 344 349 349 349 350 350 349 349 346 345 347 350
348 348 351 352 351 351 351 352 349 345 348 348 349 349 346 342 341 342 342 342 345 347 349 351 352 346 345 346 342 342 342 342 342 346 351 350 350 349 343 345 349 349 349
348 348 349 347 349 350 347 344 343 344 345 345 345 346 344 342 340 339 340 339 342 347 345 349 351 344 340 340 339 338 337 337 335 338 341 337 332 329 339 342 345 346 341
343 344 345 343 346 346 343 342 342 343 344 343 342 341 340 337 338 338 336 340 340 337 336 336 338 338 338 337 337 342 332 328 328 330 328 325 322 322 324 334 339 337 346
343 344 344 345 345 344 344 344 343 344 342 341 339 335 332 330 329 334 337 341 341 339 335 330 332 330 328 326 330 336 336 334 327 324 325 324 324 323 322 324 327 331 335
344 343 342 340 341 343 343 342 342 340 338 335 332 329 327 323 322 328 331 336 337 338 336 334 330 326 324 322 322 330 333 334 330 329 327 325 323 322 320 319 318 319 323
338 337 337 338 339 339 339 337 333 332 332 324 328 326 324 321 317 313 315 320 323 331 334 332 328 325 323 320 319 323 319 321 326 326 324 322 320 319 317 315 314 313 311
333 332 331 333 335 335 335 335 335 332 330 326 324 323 317 313 311 309 308 306 306 316 318 316 312 312 314 317 317 319 320 323 323 322 320 319 316 314 315 313 311 309 306
325 325 326 326 327 330 332 331 331 330 328 325 322 320 318 317 315 314 312 312 311 316 316 314 314 316 319 319 317 318 319 319 320 319 317 314 311 311 310 310 310 311 310
317 318 317 319 321 323 325 325 326 325 327 326 325 325 324 322 322 320 316 313 309 308 312 316 317 318 318 319 318 316 314 313 314 312 314 312 311 310 308 308 308 308 309
315 314 313 311 312 312 313 313 314 316 316 316 316 317 318 319 319 319 317 312 309 309 314 318 319 318 317 317 317 315 315 312 314 311 310 309 309 308 307 307 307 308 308
319 318 317 317 317 316 317 317 315 309 308 307 307 307 307 307 307 307 306 304 303 303 309 313 316 317 317 317 317 316 315 313 311 310 310 309 308 307 305 307 307 307 307
320 319 319 318 318 318 317 317 317 317 317 316 312 309 307 307 306 305 305 304 308 308 307 309 313 316 316 315 315 314 312 311 310 309 308 307 307 307 306 306 306 306 306
325 324 323 322 320 319 320 319 317 316 316 316 316 314 312 309 307 307 306 305 308 309 310 310 311 313 315 315 314 313 311 310 308 307 307 306 306 305 306 305 304 302 303
324 321 322 324 323 322 321 320 319 319 318 317 317 315 314 311 310 311 311 310 310 310 310 311 311 313 313 314 313 311 310 307 307 306 305 305 305 304 305 304 304 305 305
319 319 315 317 318 318 318 318 319 318 318 318 318 318 314 313 312 312 312 312 311 311 311 312 312 313 313 313 312 310 309 308 306 305 304 304 304 304 304 304 304 304 304
311 311 311 312 313 314 315 315 315 316 316 315 315 314 315 314 314 313 313 312 311 312 312 312 313 313 313 312 311 310 308 307 305 304 303 303 303 303 303 303 303 303 304
310 310 311 311 312 312 313 314 314 314 314 313 313 313 312 312 312 313 313 313 311 311 312 312 313 312 312 311 309 307 306 306 305 304 303 303 302 303 303 303 303 303 303
311 311 312 313 313 312 313 314 314 314 314 313 313 313 312 312 312 312 312 312 313 310 311 311 311 310 309 308 307 306 306 305 304 303 302 302 302 301 302 302 302 302 302
311 311 312 312 312 312 312 312 312 312 312 312 312 312 311 311 311 311 311 311 311 311 310 311 310 310 309 308 306 306 303 302 302 301 301 301 301 302 301 302 302 302 302
311 311 311 312 312 312 311 310 310 309 310 310 311 311 311 311 311 312 311 310 311 311 310 310 309 310 308 307 306 305 302 300 299 298 300 300 300 301 301 301 301 301 301

GFSGL_925_thetae_123.txt.gz
Theta_e
350 350 350 351 352 353 352 354 354 355 355 355 355 354 356 355 355 355 353 355 354 354 353 352 354 353 351 347 349 349 346 344 346 347 347 350 351 350 351 352 348 349 349
349 350 351 351 351 351 352 351 355 355 354 354 357 356 356 356 355 355 356 353 353 353 354 353 352 351 352 354 349 347 351 352 351 353 349 347 350 352 352 353 353 348 350
350 350 351 352 353 353 352 353 353 354 356 354 355 356 355 355 355 355 355 355 354 353 352 351 351 351 351 350 351 351 350 351 350 351 350 351 350 350 351 350 352 350 351
351 350 350 351 351 352 352 353 353 352 354 353 354 354 354 353 353 354 354 354 354 353 353 354 354 352 351 351 352 351 351 345 342 347 346 348 351 350 349 350 347 350 346
353 353 352 351 352 352 353 352 351 352 353 351 351 352 353 353 352 353 354 354 353 353 353 353 353 353 352 349 350 348 347 346 342 348 347 347 348 347 343 344 346 350 350
355 355 354 354 354 353 354 354 355 354 353 352 350 351 350 350 348 350 348 349 351 351 352 352 352 351 347 346 346 347 349 346 349 346 347 350 350 352 349 349 348 350 350
353 354 353 353 354 354 353 352 354 353 352 352 351 349 350 350 346 343 342 342 348 349 350 351 352 351 348 350 343 342 342 341 341 342 348 350 349 345 343 344 350 351 352
352 353 354 354 354 354 352 353 352 352 349 347 346 347 347 346 343 340 340 341 343 347 346 346 351 350 346 344 346 343 339 337 338 338 342 339 333 329 334 342 345 347 347
350 350 351 348 348 348 349 349 349 349 348 345 345 344 344 341 340 338 338 342 342 339 336 336 337 340 340 338 338 340 339 335 331 332 332 328 326 325 325 331 338 341 346
342 343 345 347 347 347 347 348 346 344 344 343 343 338 336 331 333 334 337 340 341 340 338 335 334 334 334 337 335 342 341 339 328 327 329 329 327 327 324 325 327 329 333
343 343 342 343 340 339 342 343 342 341 337 331 326 325 325 328 329 330 332 336 337 340 340 337 328 328 324 323 323 333 337 337 338 334 334 331 328 327 323 323 320 321 325
341 340 339 338 339 338 339 337 335 332 330 326 325 321 323 321 324 322 325 317 318 330 335 334 331 328 325 323 322 324 328 328 332 332 331 329 326 323 322 320 317 314 313
334 333 334 336 337 337 335 333 331 330 327 324 323 323 322 323 321 317 314 310 308 316 318 318 316 312 314 318 317 318 318 321 327 328 328 325 322 320 320 318 314 309 310
328 328 329 329 331 333 333 332 331 330 327 325 324 324 322 322 321 317 316 315 315 317 320 319 313 312 316 321 318 319 323 324 324 324 322 321 317 316 315 314 314 315 313
323 323 325 326 327 326 326 326 328 328 328 326 325 325 325 324 323 319 316 314 312 312 311 320 320 320 320 321 321 322 321 319 320 320 319 316 315 312 312 311 311 311 312
316 316 317 318 317 316 318 318 319 318 319 321 321 321 320 321 321 319 318 315 312 311 312 317 320 321 321 320 320 319 319 317 319 317 317 316 314 312 311 310 310 310 311
320 318 318 318 319 320 319 317 311 309 309 310 309 309 309 310 309 308 306 305 305 305 306 311 314 317 318 319 319 319 319 318 317 315 314 313 312 312 309 309 310 310 310
322 321 320 319 319 319 319 319 319 320 316 312 311 309 308 307 307 306 306 307 310 311 311 312 312 313 317 318 317 317 317 314 314 313 312 311 310 309 309 309 309 309 309
327 326 325 324 322 322 322 321 320 319 319 319 318 315 313 312 309 308 308 307 310 312 312 313 313 313 314 316 318 317 316 315 313 312 311 310 309 309 308 308 308 306 305
324 321 322 325 324 324 322 321 320 320 320 320 319 319 316 315 314 314 314 314 314 314 313 313 314 314 314 315 317 317 315 314 312 311 310 309 308 307 307 307 307 307 307
318 319 315 316 318 318 318 317 318 318 318 318 317 317 317 317 315 315 315 315 315 315 314 314 313 314 315 315 316 315 314 313 311 310 308 308 307 307 306 306 306 306 306
312 312 312 313 314 314 315 314 314 315 316 316 315 315 314 314 315 315 314 314 314 313 313 314 314 314 315 315 315 314 313 312 311 309 307 307 306 306 306 306 306 306 306
312 312 313 313 313 313 314 315 315 315 315 315 315 314 314 314 314 313 313 313 313 313 313 313 313 313 314 314 314 313 312 310 309 308 307 306 306 305 305 305 305 305 305
312 312 313 314 312 314 314 314 314 314 313 313 313 313 313 313 313 312 312 312 312 313 313 312 312 312 313 312 311 310 309 308 307 307 306 305 305 304 304 305 305 305 305
312 312 313 313 313 313 313 313 313 312 311 311 312 312 312 312 312 312 313 312 312 311 312 312 312 311 312 312 311 308 307 305 306 304 304 304 304 304 303 304 304 304 304
312 312 313 313 313 312 312 311 310 310 309 310 311 312 312 313 312 311 312 311 311 310 310 311 310 310 311 311 311 308 305 303 302 301 302 303 303 303 303 303 303 303 303